<?xml version="1.0" encoding="UTF-8" standalone="no" ?>
<gpx xmlns="http://www.topografix.com/GPX/1/1" xmlns:xsi="http://www.w3.org/2001/XMLSchema-instance" xsi:schemaLocation="http://www.topografix.com/GPX/1/1 http://www.topografix.com/GPX/1/1/gpx.xsd" version="1.1" creator="VisuGPX - https://www.visugpx.com">
  <metadata>
    <name>gr20nord - j2 : refuge de Petra Piana - bergerie de Vaccaghia</name>
    <desc><![CDATA[Etape plus 'alpine' avec quelques passages sur dalles : montée à Bocca Muzzella, descente et remontée à la brèche de Capitello (point culminant de l'étape, au-dessus du lac homonyme) avant de redescendre jusqu'au refuge de Manganu puis la bergerie de Vaccaghia à travers un superbe alpage où paissent des chevaux en liberté.]]></desc>
  </metadata>
  <trk>
    <name><![CDATA[GR20N-J2 petra piana refuge - vaccaghia bergerie 2015-06-22]]></name>
    <trkseg>
      <trkpt lat="42.19814" lon="9.05206">
        <ele>1843.47</ele>
        <time>2015-06-22T06:32:09Z</time>
      </trkpt>
      <trkpt lat="42.19816" lon="9.05187">
        <ele>1844.43</ele>
        <time>2015-06-22T06:32:25Z</time>
      </trkpt>
      <trkpt lat="42.19815" lon="9.0517">
        <ele>1845.39</ele>
        <time>2015-06-22T06:32:40Z</time>
      </trkpt>
      <trkpt lat="42.19814" lon="9.05169">
        <ele>1845.39</ele>
        <time>2015-06-22T06:32:41Z</time>
      </trkpt>
      <trkpt lat="42.19805" lon="9.0515">
        <ele>1846.83</ele>
        <time>2015-06-22T06:32:58Z</time>
      </trkpt>
      <trkpt lat="42.19803" lon="9.05144">
        <ele>1846.83</ele>
        <time>2015-06-22T06:33:03Z</time>
      </trkpt>
      <trkpt lat="42.19801" lon="9.0513">
        <ele>1848.27</ele>
        <time>2015-06-22T06:33:17Z</time>
      </trkpt>
      <trkpt lat="42.19806" lon="9.05118">
        <ele>1850.68</ele>
        <time>2015-06-22T06:33:33Z</time>
      </trkpt>
      <trkpt lat="42.1981" lon="9.05109">
        <ele>1852.6</ele>
        <time>2015-06-22T06:33:48Z</time>
      </trkpt>
      <trkpt lat="42.19816" lon="9.05108">
        <ele>1855</ele>
        <time>2015-06-22T06:34:01Z</time>
      </trkpt>
      <trkpt lat="42.19824" lon="9.05104">
        <ele>1857.4</ele>
        <time>2015-06-22T06:34:13Z</time>
      </trkpt>
      <trkpt lat="42.19829" lon="9.05098">
        <ele>1859.81</ele>
        <time>2015-06-22T06:34:28Z</time>
      </trkpt>
      <trkpt lat="42.19836" lon="9.05098">
        <ele>1863.17</ele>
        <time>2015-06-22T06:34:48Z</time>
      </trkpt>
      <trkpt lat="42.19841" lon="9.05094">
        <ele>1865.09</ele>
        <time>2015-06-22T06:35:03Z</time>
      </trkpt>
      <trkpt lat="42.1985" lon="9.05095">
        <ele>1867.98</ele>
        <time>2015-06-22T06:35:16Z</time>
      </trkpt>
      <trkpt lat="42.19856" lon="9.05093">
        <ele>1868.94</ele>
        <time>2015-06-22T06:35:32Z</time>
      </trkpt>
      <trkpt lat="42.19861" lon="9.05095">
        <ele>1870.86</ele>
        <time>2015-06-22T06:35:48Z</time>
      </trkpt>
      <trkpt lat="42.19864" lon="9.05084">
        <ele>1873.75</ele>
        <time>2015-06-22T06:36:02Z</time>
      </trkpt>
      <trkpt lat="42.19869" lon="9.05074">
        <ele>1876.15</ele>
        <time>2015-06-22T06:36:17Z</time>
      </trkpt>
      <trkpt lat="42.19876" lon="9.05066">
        <ele>1878.55</ele>
        <time>2015-06-22T06:36:31Z</time>
      </trkpt>
      <trkpt lat="42.19877" lon="9.05056">
        <ele>1879.51</ele>
        <time>2015-06-22T06:36:45Z</time>
      </trkpt>
      <trkpt lat="42.19875" lon="9.05046">
        <ele>1882.4</ele>
        <time>2015-06-22T06:37:00Z</time>
      </trkpt>
      <trkpt lat="42.19871" lon="9.05039">
        <ele>1882.88</ele>
        <time>2015-06-22T06:37:12Z</time>
      </trkpt>
      <trkpt lat="42.19868" lon="9.0503">
        <ele>1882.88</ele>
        <time>2015-06-22T06:37:25Z</time>
      </trkpt>
      <trkpt lat="42.19873" lon="9.05025">
        <ele>1884.8</ele>
        <time>2015-06-22T06:37:37Z</time>
      </trkpt>
      <trkpt lat="42.19874" lon="9.05018">
        <ele>1887.69</ele>
        <time>2015-06-22T06:37:53Z</time>
      </trkpt>
      <trkpt lat="42.19876" lon="9.05014">
        <ele>1890.09</ele>
        <time>2015-06-22T06:38:06Z</time>
      </trkpt>
      <trkpt lat="42.19882" lon="9.0501">
        <ele>1892.49</ele>
        <time>2015-06-22T06:38:19Z</time>
      </trkpt>
      <trkpt lat="42.19883" lon="9.05005">
        <ele>1894.9</ele>
        <time>2015-06-22T06:38:33Z</time>
      </trkpt>
      <trkpt lat="42.19878" lon="9.04999">
        <ele>1896.82</ele>
        <time>2015-06-22T06:38:47Z</time>
      </trkpt>
      <trkpt lat="42.19885" lon="9.04998">
        <ele>1897.78</ele>
        <time>2015-06-22T06:38:57Z</time>
      </trkpt>
      <trkpt lat="42.1989" lon="9.04996">
        <ele>1899.22</ele>
        <time>2015-06-22T06:39:12Z</time>
      </trkpt>
      <trkpt lat="42.19893" lon="9.04989">
        <ele>1901.63</ele>
        <time>2015-06-22T06:39:29Z</time>
      </trkpt>
      <trkpt lat="42.19893" lon="9.04982">
        <ele>1903.55</ele>
        <time>2015-06-22T06:39:43Z</time>
      </trkpt>
      <trkpt lat="42.19896" lon="9.04974">
        <ele>1906.91</ele>
        <time>2015-06-22T06:40:00Z</time>
      </trkpt>
      <trkpt lat="42.19901" lon="9.04969">
        <ele>1909.32</ele>
        <time>2015-06-22T06:40:15Z</time>
      </trkpt>
      <trkpt lat="42.19897" lon="9.04962">
        <ele>1910.76</ele>
        <time>2015-06-22T06:40:31Z</time>
      </trkpt>
      <trkpt lat="42.19902" lon="9.04956">
        <ele>1913.16</ele>
        <time>2015-06-22T06:40:45Z</time>
      </trkpt>
      <trkpt lat="42.19899" lon="9.04952">
        <ele>1916.04</ele>
        <time>2015-06-22T06:40:59Z</time>
      </trkpt>
      <trkpt lat="42.19902" lon="9.04947">
        <ele>1917.49</ele>
        <time>2015-06-22T06:41:11Z</time>
      </trkpt>
      <trkpt lat="42.19899" lon="9.04943">
        <ele>1919.89</ele>
        <time>2015-06-22T06:41:25Z</time>
      </trkpt>
      <trkpt lat="42.19901" lon="9.04939">
        <ele>1920.85</ele>
        <time>2015-06-22T06:41:34Z</time>
      </trkpt>
      <trkpt lat="42.19901" lon="9.04932">
        <ele>1923.74</ele>
        <time>2015-06-22T06:41:49Z</time>
      </trkpt>
      <trkpt lat="42.19901" lon="9.04927">
        <ele>1925.18</ele>
        <time>2015-06-22T06:42:02Z</time>
      </trkpt>
      <trkpt lat="42.199" lon="9.04921">
        <ele>1926.62</ele>
        <time>2015-06-22T06:42:14Z</time>
      </trkpt>
      <trkpt lat="42.19897" lon="9.04915">
        <ele>1928.54</ele>
        <time>2015-06-22T06:42:29Z</time>
      </trkpt>
      <trkpt lat="42.19897" lon="9.04908">
        <ele>1930.46</ele>
        <time>2015-06-22T06:42:42Z</time>
      </trkpt>
      <trkpt lat="42.19898" lon="9.04899">
        <ele>1932.87</ele>
        <time>2015-06-22T06:42:57Z</time>
      </trkpt>
      <trkpt lat="42.199" lon="9.04891">
        <ele>1935.27</ele>
        <time>2015-06-22T06:43:09Z</time>
      </trkpt>
      <trkpt lat="42.19904" lon="9.04886">
        <ele>1937.19</ele>
        <time>2015-06-22T06:43:25Z</time>
      </trkpt>
      <trkpt lat="42.19909" lon="9.04881">
        <ele>1939.12</ele>
        <time>2015-06-22T06:43:41Z</time>
      </trkpt>
      <trkpt lat="42.19911" lon="9.04878">
        <ele>1941.52</ele>
        <time>2015-06-22T06:43:56Z</time>
      </trkpt>
      <trkpt lat="42.1991" lon="9.04872">
        <ele>1942</ele>
        <time>2015-06-22T06:44:15Z</time>
      </trkpt>
      <trkpt lat="42.19908" lon="9.04864">
        <ele>1943.92</ele>
        <time>2015-06-22T06:44:27Z</time>
      </trkpt>
      <trkpt lat="42.19901" lon="9.04862">
        <ele>1944.88</ele>
        <time>2015-06-22T06:44:40Z</time>
      </trkpt>
      <trkpt lat="42.19893" lon="9.04857">
        <ele>1942.48</ele>
        <time>2015-06-22T06:44:54Z</time>
      </trkpt>
      <trkpt lat="42.19892" lon="9.04852">
        <ele>1942.48</ele>
        <time>2015-06-22T06:45:12Z</time>
      </trkpt>
      <trkpt lat="42.19891" lon="9.04854">
        <ele>1942.96</ele>
        <time>2015-06-22T06:45:30Z</time>
      </trkpt>
      <trkpt lat="42.19888" lon="9.04842">
        <ele>1943.92</ele>
        <time>2015-06-22T06:45:46Z</time>
      </trkpt>
      <trkpt lat="42.19893" lon="9.04837">
        <ele>1945.85</ele>
        <time>2015-06-22T06:46:00Z</time>
      </trkpt>
      <trkpt lat="42.19897" lon="9.04834">
        <ele>1947.77</ele>
        <time>2015-06-22T06:46:16Z</time>
      </trkpt>
      <trkpt lat="42.19904" lon="9.04836">
        <ele>1950.17</ele>
        <time>2015-06-22T06:46:30Z</time>
      </trkpt>
      <trkpt lat="42.19907" lon="9.04829">
        <ele>1953.06</ele>
        <time>2015-06-22T06:46:43Z</time>
      </trkpt>
      <trkpt lat="42.19908" lon="9.04825">
        <ele>1954.5</ele>
        <time>2015-06-22T06:46:59Z</time>
      </trkpt>
      <trkpt lat="42.19913" lon="9.04824">
        <ele>1956.42</ele>
        <time>2015-06-22T06:47:12Z</time>
      </trkpt>
      <trkpt lat="42.19913" lon="9.04814">
        <ele>1958.34</ele>
        <time>2015-06-22T06:47:25Z</time>
      </trkpt>
      <trkpt lat="42.19913" lon="9.04809">
        <ele>1960.27</ele>
        <time>2015-06-22T06:47:41Z</time>
      </trkpt>
      <trkpt lat="42.19914" lon="9.04798">
        <ele>1963.15</ele>
        <time>2015-06-22T06:47:58Z</time>
      </trkpt>
      <trkpt lat="42.19915" lon="9.04792">
        <ele>1965.55</ele>
        <time>2015-06-22T06:48:14Z</time>
      </trkpt>
      <trkpt lat="42.19917" lon="9.04787">
        <ele>1967.48</ele>
        <time>2015-06-22T06:48:29Z</time>
      </trkpt>
      <trkpt lat="42.19921" lon="9.04786">
        <ele>1970.36</ele>
        <time>2015-06-22T06:48:42Z</time>
      </trkpt>
      <trkpt lat="42.1992" lon="9.04778">
        <ele>1971.8</ele>
        <time>2015-06-22T06:48:57Z</time>
      </trkpt>
      <trkpt lat="42.19927" lon="9.04779">
        <ele>1973.72</ele>
        <time>2015-06-22T06:49:10Z</time>
      </trkpt>
      <trkpt lat="42.19929" lon="9.04773">
        <ele>1975.65</ele>
        <time>2015-06-22T06:49:25Z</time>
      </trkpt>
      <trkpt lat="42.1993" lon="9.04769">
        <ele>1978.53</ele>
        <time>2015-06-22T06:49:39Z</time>
      </trkpt>
      <trkpt lat="42.19929" lon="9.04758">
        <ele>1979.97</ele>
        <time>2015-06-22T06:49:55Z</time>
      </trkpt>
      <trkpt lat="42.19924" lon="9.04746">
        <ele>1982.38</ele>
        <time>2015-06-22T06:50:12Z</time>
      </trkpt>
      <trkpt lat="42.19923" lon="9.04739">
        <ele>1984.78</ele>
        <time>2015-06-22T06:50:27Z</time>
      </trkpt>
      <trkpt lat="42.19926" lon="9.04735">
        <ele>1986.7</ele>
        <time>2015-06-22T06:50:42Z</time>
      </trkpt>
      <trkpt lat="42.19931" lon="9.04734">
        <ele>1988.62</ele>
        <time>2015-06-22T06:50:57Z</time>
      </trkpt>
      <trkpt lat="42.19935" lon="9.04734">
        <ele>1991.03</ele>
        <time>2015-06-22T06:51:12Z</time>
      </trkpt>
      <trkpt lat="42.19937" lon="9.0473">
        <ele>1992.95</ele>
        <time>2015-06-22T06:51:25Z</time>
      </trkpt>
      <trkpt lat="42.19944" lon="9.04732">
        <ele>1994.87</ele>
        <time>2015-06-22T06:51:39Z</time>
      </trkpt>
      <trkpt lat="42.1995" lon="9.04731">
        <ele>1997.28</ele>
        <time>2015-06-22T06:51:55Z</time>
      </trkpt>
      <trkpt lat="42.19954" lon="9.04727">
        <ele>1999.68</ele>
        <time>2015-06-22T06:52:12Z</time>
      </trkpt>
      <trkpt lat="42.19959" lon="9.04728">
        <ele>2002.08</ele>
        <time>2015-06-22T06:52:29Z</time>
      </trkpt>
      <trkpt lat="42.19958" lon="9.04723">
        <ele>2004.01</ele>
        <time>2015-06-22T06:52:45Z</time>
      </trkpt>
      <trkpt lat="42.19963" lon="9.04717">
        <ele>2006.41</ele>
        <time>2015-06-22T06:53:01Z</time>
      </trkpt>
      <trkpt lat="42.19968" lon="9.04716">
        <ele>2008.33</ele>
        <time>2015-06-22T06:53:16Z</time>
      </trkpt>
      <trkpt lat="42.19969" lon="9.04716">
        <ele>2009.29</ele>
        <time>2015-06-22T06:53:38Z</time>
      </trkpt>
      <trkpt lat="42.19971" lon="9.04715">
        <ele>2008.81</ele>
        <time>2015-06-22T06:54:12Z</time>
      </trkpt>
      <trkpt lat="42.19973" lon="9.04715">
        <ele>2010.73</ele>
        <time>2015-06-22T06:54:24Z</time>
      </trkpt>
      <trkpt lat="42.19977" lon="9.04714">
        <ele>2013.14</ele>
        <time>2015-06-22T06:54:41Z</time>
      </trkpt>
      <trkpt lat="42.19983" lon="9.04717">
        <ele>2015.54</ele>
        <time>2015-06-22T06:54:58Z</time>
      </trkpt>
      <trkpt lat="42.19991" lon="9.04719">
        <ele>2016.98</ele>
        <time>2015-06-22T06:55:11Z</time>
      </trkpt>
      <trkpt lat="42.19996" lon="9.04721">
        <ele>2018.43</ele>
        <time>2015-06-22T06:55:27Z</time>
      </trkpt>
      <trkpt lat="42.19997" lon="9.04717">
        <ele>2020.35</ele>
        <time>2015-06-22T06:55:42Z</time>
      </trkpt>
      <trkpt lat="42.19995" lon="9.04713">
        <ele>2021.31</ele>
        <time>2015-06-22T06:55:57Z</time>
      </trkpt>
      <trkpt lat="42.19993" lon="9.04705">
        <ele>2023.23</ele>
        <time>2015-06-22T06:56:12Z</time>
      </trkpt>
      <trkpt lat="42.2" lon="9.04707">
        <ele>2026.12</ele>
        <time>2015-06-22T06:56:28Z</time>
      </trkpt>
      <trkpt lat="42.20005" lon="9.04707">
        <ele>2027.08</ele>
        <time>2015-06-22T06:56:42Z</time>
      </trkpt>
      <trkpt lat="42.20005" lon="9.04703">
        <ele>2029</ele>
        <time>2015-06-22T06:56:57Z</time>
      </trkpt>
      <trkpt lat="42.20008" lon="9.04702">
        <ele>2030.92</ele>
        <time>2015-06-22T06:57:10Z</time>
      </trkpt>
      <trkpt lat="42.20005" lon="9.04697">
        <ele>2033.33</ele>
        <time>2015-06-22T06:57:27Z</time>
      </trkpt>
      <trkpt lat="42.20006" lon="9.04691">
        <ele>2034.77</ele>
        <time>2015-06-22T06:57:40Z</time>
      </trkpt>
      <trkpt lat="42.20007" lon="9.04688">
        <ele>2036.69</ele>
        <time>2015-06-22T06:57:56Z</time>
      </trkpt>
      <trkpt lat="42.20003" lon="9.04684">
        <ele>2039.09</ele>
        <time>2015-06-22T06:58:12Z</time>
      </trkpt>
      <trkpt lat="42.20005" lon="9.04679">
        <ele>2041.5</ele>
        <time>2015-06-22T06:58:28Z</time>
      </trkpt>
      <trkpt lat="42.20001" lon="9.04676">
        <ele>2043.9</ele>
        <time>2015-06-22T06:58:43Z</time>
      </trkpt>
      <trkpt lat="42.19998" lon="9.04672">
        <ele>2044.86</ele>
        <time>2015-06-22T06:58:57Z</time>
      </trkpt>
      <trkpt lat="42.20002" lon="9.04666">
        <ele>2046.3</ele>
        <time>2015-06-22T06:59:08Z</time>
      </trkpt>
      <trkpt lat="42.20003" lon="9.04667">
        <ele>2047.26</ele>
        <time>2015-06-22T06:59:25Z</time>
      </trkpt>
      <trkpt lat="42.20001" lon="9.04668">
        <ele>2047.26</ele>
        <time>2015-06-22T06:59:53Z</time>
      </trkpt>
      <trkpt lat="42.20002" lon="9.04666">
        <ele>2047.75</ele>
        <time>2015-06-22T07:00:20Z</time>
      </trkpt>
      <trkpt lat="42.2" lon="9.04667">
        <ele>2046.3</ele>
        <time>2015-06-22T07:00:39Z</time>
      </trkpt>
      <trkpt lat="42.19999" lon="9.04665">
        <ele>2046.78</ele>
        <time>2015-06-22T07:00:57Z</time>
      </trkpt>
      <trkpt lat="42.19996" lon="9.04662">
        <ele>2043.42</ele>
        <time>2015-06-22T07:01:11Z</time>
      </trkpt>
      <trkpt lat="42.19998" lon="9.04664">
        <ele>2045.82</ele>
        <time>2015-06-22T07:01:16Z</time>
      </trkpt>
      <trkpt lat="42.19999" lon="9.04669">
        <ele>2046.78</ele>
        <time>2015-06-22T07:01:32Z</time>
      </trkpt>
      <trkpt lat="42.19998" lon="9.04669">
        <ele>2045.82</ele>
        <time>2015-06-22T07:02:02Z</time>
      </trkpt>
      <trkpt lat="42.19998" lon="9.04668">
        <ele>2045.82</ele>
        <time>2015-06-22T07:02:34Z</time>
      </trkpt>
      <trkpt lat="42.19999" lon="9.04668">
        <ele>2046.3</ele>
        <time>2015-06-22T07:02:56Z</time>
      </trkpt>
      <trkpt lat="42.19998" lon="9.04668">
        <ele>2046.78</ele>
        <time>2015-06-22T07:03:29Z</time>
      </trkpt>
      <trkpt lat="42.19997" lon="9.04665">
        <ele>2046.3</ele>
        <time>2015-06-22T07:03:53Z</time>
      </trkpt>
      <trkpt lat="42.19998" lon="9.04653">
        <ele>2044.38</ele>
        <time>2015-06-22T07:04:07Z</time>
      </trkpt>
      <trkpt lat="42.19996" lon="9.0465">
        <ele>2043.42</ele>
        <time>2015-06-22T07:04:12Z</time>
      </trkpt>
      <trkpt lat="42.2" lon="9.04641">
        <ele>2043.42</ele>
        <time>2015-06-22T07:04:26Z</time>
      </trkpt>
      <trkpt lat="42.19999" lon="9.04637">
        <ele>2040.05</ele>
        <time>2015-06-22T07:04:34Z</time>
      </trkpt>
      <trkpt lat="42.20003" lon="9.04623">
        <ele>2040.54</ele>
        <time>2015-06-22T07:04:48Z</time>
      </trkpt>
      <trkpt lat="42.20005" lon="9.04623">
        <ele>2041.98</ele>
        <time>2015-06-22T07:04:50Z</time>
      </trkpt>
      <trkpt lat="42.20013" lon="9.04618">
        <ele>2044.38</ele>
        <time>2015-06-22T07:05:04Z</time>
      </trkpt>
      <trkpt lat="42.20019" lon="9.0461">
        <ele>2046.78</ele>
        <time>2015-06-22T07:05:18Z</time>
      </trkpt>
      <trkpt lat="42.20027" lon="9.04604">
        <ele>2048.71</ele>
        <time>2015-06-22T07:05:31Z</time>
      </trkpt>
      <trkpt lat="42.20028" lon="9.04602">
        <ele>2047.75</ele>
        <time>2015-06-22T07:05:35Z</time>
      </trkpt>
      <trkpt lat="42.20033" lon="9.04595">
        <ele>2049.19</ele>
        <time>2015-06-22T07:05:44Z</time>
      </trkpt>
      <trkpt lat="42.20042" lon="9.04582">
        <ele>2050.63</ele>
        <time>2015-06-22T07:06:01Z</time>
      </trkpt>
      <trkpt lat="42.20043" lon="9.04581">
        <ele>2051.59</ele>
        <time>2015-06-22T07:06:03Z</time>
      </trkpt>
      <trkpt lat="42.20048" lon="9.04572">
        <ele>2053.03</ele>
        <time>2015-06-22T07:06:18Z</time>
      </trkpt>
      <trkpt lat="42.20053" lon="9.04572">
        <ele>2055.44</ele>
        <time>2015-06-22T07:06:28Z</time>
      </trkpt>
      <trkpt lat="42.20058" lon="9.04572">
        <ele>2056.88</ele>
        <time>2015-06-22T07:06:41Z</time>
      </trkpt>
      <trkpt lat="42.20063" lon="9.04568">
        <ele>2058.8</ele>
        <time>2015-06-22T07:06:55Z</time>
      </trkpt>
      <trkpt lat="42.20068" lon="9.04567">
        <ele>2061.68</ele>
        <time>2015-06-22T07:07:09Z</time>
      </trkpt>
      <trkpt lat="42.20071" lon="9.04561">
        <ele>2063.13</ele>
        <time>2015-06-22T07:07:20Z</time>
      </trkpt>
      <trkpt lat="42.20073" lon="9.04559">
        <ele>2064.57</ele>
        <time>2015-06-22T07:07:26Z</time>
      </trkpt>
      <trkpt lat="42.20078" lon="9.04561">
        <ele>2066.01</ele>
        <time>2015-06-22T07:07:42Z</time>
      </trkpt>
      <trkpt lat="42.20085" lon="9.04554">
        <ele>2068.89</ele>
        <time>2015-06-22T07:07:59Z</time>
      </trkpt>
      <trkpt lat="42.20093" lon="9.04549">
        <ele>2070.34</ele>
        <time>2015-06-22T07:08:13Z</time>
      </trkpt>
      <trkpt lat="42.20093" lon="9.04548">
        <ele>2070.34</ele>
        <time>2015-06-22T07:08:14Z</time>
      </trkpt>
      <trkpt lat="42.20096" lon="9.04544">
        <ele>2070.34</ele>
        <time>2015-06-22T07:08:18Z</time>
      </trkpt>
      <trkpt lat="42.20102" lon="9.04533">
        <ele>2070.34</ele>
        <time>2015-06-22T07:08:29Z</time>
      </trkpt>
      <trkpt lat="42.20105" lon="9.04531">
        <ele>2071.78</ele>
        <time>2015-06-22T07:08:33Z</time>
      </trkpt>
      <trkpt lat="42.20106" lon="9.04531">
        <ele>2074.18</ele>
        <time>2015-06-22T07:08:35Z</time>
      </trkpt>
      <trkpt lat="42.20111" lon="9.04526">
        <ele>2073.7</ele>
        <time>2015-06-22T07:08:46Z</time>
      </trkpt>
      <trkpt lat="42.20116" lon="9.04522">
        <ele>2076.1</ele>
        <time>2015-06-22T07:08:55Z</time>
      </trkpt>
      <trkpt lat="42.20123" lon="9.04514">
        <ele>2078.03</ele>
        <time>2015-06-22T07:09:11Z</time>
      </trkpt>
      <trkpt lat="42.20132" lon="9.04507">
        <ele>2079.47</ele>
        <time>2015-06-22T07:09:26Z</time>
      </trkpt>
      <trkpt lat="42.20139" lon="9.04502">
        <ele>2081.39</ele>
        <time>2015-06-22T07:09:41Z</time>
      </trkpt>
      <trkpt lat="42.20149" lon="9.04495">
        <ele>2083.79</ele>
        <time>2015-06-22T07:09:57Z</time>
      </trkpt>
      <trkpt lat="42.20154" lon="9.04489">
        <ele>2085.24</ele>
        <time>2015-06-22T07:10:10Z</time>
      </trkpt>
      <trkpt lat="42.20156" lon="9.04487">
        <ele>2085.24</ele>
        <time>2015-06-22T07:10:26Z</time>
      </trkpt>
      <trkpt lat="42.20157" lon="9.04485">
        <ele>2084.76</ele>
        <time>2015-06-22T07:10:43Z</time>
      </trkpt>
      <trkpt lat="42.20157" lon="9.04487">
        <ele>2085.24</ele>
        <time>2015-06-22T07:11:15Z</time>
      </trkpt>
      <trkpt lat="42.20166" lon="9.04479">
        <ele>2085.24</ele>
        <time>2015-06-22T07:11:31Z</time>
      </trkpt>
      <trkpt lat="42.20174" lon="9.04471">
        <ele>2085.72</ele>
        <time>2015-06-22T07:11:45Z</time>
      </trkpt>
      <trkpt lat="42.20178" lon="9.04469">
        <ele>2086.68</ele>
        <time>2015-06-22T07:11:53Z</time>
      </trkpt>
      <trkpt lat="42.20185" lon="9.04464">
        <ele>2085.72</ele>
        <time>2015-06-22T07:12:01Z</time>
      </trkpt>
      <trkpt lat="42.20199" lon="9.04456">
        <ele>2085.24</ele>
        <time>2015-06-22T07:12:17Z</time>
      </trkpt>
      <trkpt lat="42.20201" lon="9.04455">
        <ele>2085.72</ele>
        <time>2015-06-22T07:12:21Z</time>
      </trkpt>
      <trkpt lat="42.20211" lon="9.04445">
        <ele>2087.16</ele>
        <time>2015-06-22T07:12:34Z</time>
      </trkpt>
      <trkpt lat="42.20215" lon="9.04442">
        <ele>2085.72</ele>
        <time>2015-06-22T07:12:39Z</time>
      </trkpt>
      <trkpt lat="42.20218" lon="9.04439">
        <ele>2086.2</ele>
        <time>2015-06-22T07:12:44Z</time>
      </trkpt>
      <trkpt lat="42.20221" lon="9.04437">
        <ele>2085.24</ele>
        <time>2015-06-22T07:12:47Z</time>
      </trkpt>
      <trkpt lat="42.20229" lon="9.04434">
        <ele>2084.76</ele>
        <time>2015-06-22T07:13:03Z</time>
      </trkpt>
      <trkpt lat="42.20235" lon="9.04428">
        <ele>2083.31</ele>
        <time>2015-06-22T07:13:16Z</time>
      </trkpt>
      <trkpt lat="42.20243" lon="9.04425">
        <ele>2082.35</ele>
        <time>2015-06-22T07:13:29Z</time>
      </trkpt>
      <trkpt lat="42.20249" lon="9.04426">
        <ele>2083.79</ele>
        <time>2015-06-22T07:13:41Z</time>
      </trkpt>
      <trkpt lat="42.2025" lon="9.04423">
        <ele>2083.79</ele>
        <time>2015-06-22T07:13:55Z</time>
      </trkpt>
      <trkpt lat="42.20252" lon="9.04421">
        <ele>2083.79</ele>
        <time>2015-06-22T07:14:10Z</time>
      </trkpt>
      <trkpt lat="42.20256" lon="9.04416">
        <ele>2082.35</ele>
        <time>2015-06-22T07:14:25Z</time>
      </trkpt>
      <trkpt lat="42.20263" lon="9.04414">
        <ele>2084.76</ele>
        <time>2015-06-22T07:14:38Z</time>
      </trkpt>
      <trkpt lat="42.20267" lon="9.04407">
        <ele>2087.64</ele>
        <time>2015-06-22T07:14:51Z</time>
      </trkpt>
      <trkpt lat="42.2027" lon="9.04412">
        <ele>2090.04</ele>
        <time>2015-06-22T07:15:03Z</time>
      </trkpt>
      <trkpt lat="42.20273" lon="9.04414">
        <ele>2091.97</ele>
        <time>2015-06-22T07:15:17Z</time>
      </trkpt>
      <trkpt lat="42.20275" lon="9.04412">
        <ele>2093.89</ele>
        <time>2015-06-22T07:15:31Z</time>
      </trkpt>
      <trkpt lat="42.2028" lon="9.04407">
        <ele>2095.33</ele>
        <time>2015-06-22T07:15:44Z</time>
      </trkpt>
      <trkpt lat="42.20281" lon="9.04404">
        <ele>2094.85</ele>
        <time>2015-06-22T07:15:50Z</time>
      </trkpt>
      <trkpt lat="42.20289" lon="9.04402">
        <ele>2096.29</ele>
        <time>2015-06-22T07:16:06Z</time>
      </trkpt>
      <trkpt lat="42.20295" lon="9.04403">
        <ele>2099.18</ele>
        <time>2015-06-22T07:16:19Z</time>
      </trkpt>
      <trkpt lat="42.20301" lon="9.04395">
        <ele>2101.1</ele>
        <time>2015-06-22T07:16:35Z</time>
      </trkpt>
      <trkpt lat="42.20306" lon="9.04391">
        <ele>2103.5</ele>
        <time>2015-06-22T07:16:51Z</time>
      </trkpt>
      <trkpt lat="42.20311" lon="9.04383">
        <ele>2104.94</ele>
        <time>2015-06-22T07:17:06Z</time>
      </trkpt>
      <trkpt lat="42.20317" lon="9.04375">
        <ele>2105.42</ele>
        <time>2015-06-22T07:17:21Z</time>
      </trkpt>
      <trkpt lat="42.2032" lon="9.04367">
        <ele>2106.39</ele>
        <time>2015-06-22T07:17:36Z</time>
      </trkpt>
      <trkpt lat="42.20325" lon="9.04359">
        <ele>2106.39</ele>
        <time>2015-06-22T07:17:47Z</time>
      </trkpt>
      <trkpt lat="42.20332" lon="9.04354">
        <ele>2108.31</ele>
        <time>2015-06-22T07:18:01Z</time>
      </trkpt>
      <trkpt lat="42.20341" lon="9.04348">
        <ele>2110.71</ele>
        <time>2015-06-22T07:18:16Z</time>
      </trkpt>
      <trkpt lat="42.20351" lon="9.04343">
        <ele>2112.15</ele>
        <time>2015-06-22T07:18:31Z</time>
      </trkpt>
      <trkpt lat="42.20357" lon="9.04339">
        <ele>2112.15</ele>
        <time>2015-06-22T07:18:45Z</time>
      </trkpt>
      <trkpt lat="42.20361" lon="9.04331">
        <ele>2111.67</ele>
        <time>2015-06-22T07:18:58Z</time>
      </trkpt>
      <trkpt lat="42.20359" lon="9.04321">
        <ele>2111.67</ele>
        <time>2015-06-22T07:19:12Z</time>
      </trkpt>
      <trkpt lat="42.20366" lon="9.04314">
        <ele>2115.52</ele>
        <time>2015-06-22T07:19:27Z</time>
      </trkpt>
      <trkpt lat="42.2037" lon="9.04314">
        <ele>2117.44</ele>
        <time>2015-06-22T07:19:42Z</time>
      </trkpt>
      <trkpt lat="42.20375" lon="9.04312">
        <ele>2119.36</ele>
        <time>2015-06-22T07:19:57Z</time>
      </trkpt>
      <trkpt lat="42.20383" lon="9.04309">
        <ele>2121.29</ele>
        <time>2015-06-22T07:20:12Z</time>
      </trkpt>
      <trkpt lat="42.2039" lon="9.04308">
        <ele>2124.17</ele>
        <time>2015-06-22T07:20:28Z</time>
      </trkpt>
      <trkpt lat="42.20398" lon="9.04296">
        <ele>2126.09</ele>
        <time>2015-06-22T07:20:45Z</time>
      </trkpt>
      <trkpt lat="42.204" lon="9.04289">
        <ele>2126.09</ele>
        <time>2015-06-22T07:20:59Z</time>
      </trkpt>
      <trkpt lat="42.20401" lon="9.04284">
        <ele>2127.53</ele>
        <time>2015-06-22T07:21:10Z</time>
      </trkpt>
      <trkpt lat="42.20405" lon="9.04278">
        <ele>2129.46</ele>
        <time>2015-06-22T07:21:25Z</time>
      </trkpt>
      <trkpt lat="42.2041" lon="9.04271">
        <ele>2131.38</ele>
        <time>2015-06-22T07:21:41Z</time>
      </trkpt>
      <trkpt lat="42.20416" lon="9.0426">
        <ele>2133.78</ele>
        <time>2015-06-22T07:21:56Z</time>
      </trkpt>
      <trkpt lat="42.20421" lon="9.04253">
        <ele>2133.78</ele>
        <time>2015-06-22T07:22:10Z</time>
      </trkpt>
      <trkpt lat="42.20425" lon="9.04246">
        <ele>2135.71</ele>
        <time>2015-06-22T07:22:23Z</time>
      </trkpt>
      <trkpt lat="42.20429" lon="9.04237">
        <ele>2138.11</ele>
        <time>2015-06-22T07:22:39Z</time>
      </trkpt>
      <trkpt lat="42.20434" lon="9.04223">
        <ele>2140.51</ele>
        <time>2015-06-22T07:22:55Z</time>
      </trkpt>
      <trkpt lat="42.20439" lon="9.04216">
        <ele>2141.95</ele>
        <time>2015-06-22T07:23:08Z</time>
      </trkpt>
      <trkpt lat="42.20441" lon="9.04209">
        <ele>2143.4</ele>
        <time>2015-06-22T07:23:20Z</time>
      </trkpt>
      <trkpt lat="42.20443" lon="9.042">
        <ele>2142.44</ele>
        <time>2015-06-22T07:23:33Z</time>
      </trkpt>
      <trkpt lat="42.20445" lon="9.04193">
        <ele>2143.88</ele>
        <time>2015-06-22T07:23:47Z</time>
      </trkpt>
      <trkpt lat="42.20445" lon="9.0419">
        <ele>2142.44</ele>
        <time>2015-06-22T07:23:52Z</time>
      </trkpt>
      <trkpt lat="42.20445" lon="9.04183">
        <ele>2141.95</ele>
        <time>2015-06-22T07:23:57Z</time>
      </trkpt>
      <trkpt lat="42.20451" lon="9.0417">
        <ele>2143.88</ele>
        <time>2015-06-22T07:24:13Z</time>
      </trkpt>
      <trkpt lat="42.20455" lon="9.04159">
        <ele>2144.84</ele>
        <time>2015-06-22T07:24:28Z</time>
      </trkpt>
      <trkpt lat="42.20457" lon="9.04147">
        <ele>2145.32</ele>
        <time>2015-06-22T07:24:44Z</time>
      </trkpt>
      <trkpt lat="42.20461" lon="9.04134">
        <ele>2147.72</ele>
        <time>2015-06-22T07:25:00Z</time>
      </trkpt>
      <trkpt lat="42.20466" lon="9.04123">
        <ele>2150.13</ele>
        <time>2015-06-22T07:25:15Z</time>
      </trkpt>
      <trkpt lat="42.20471" lon="9.04109">
        <ele>2152.05</ele>
        <time>2015-06-22T07:25:31Z</time>
      </trkpt>
      <trkpt lat="42.20474" lon="9.04097">
        <ele>2153.01</ele>
        <time>2015-06-22T07:25:47Z</time>
      </trkpt>
      <trkpt lat="42.20475" lon="9.04094">
        <ele>2153.01</ele>
        <time>2015-06-22T07:26:03Z</time>
      </trkpt>
      <trkpt lat="42.20479" lon="9.04087">
        <ele>2152.53</ele>
        <time>2015-06-22T07:26:18Z</time>
      </trkpt>
      <trkpt lat="42.20491" lon="9.04083">
        <ele>2153.49</ele>
        <time>2015-06-22T07:26:32Z</time>
      </trkpt>
      <trkpt lat="42.20494" lon="9.04081">
        <ele>2154.45</ele>
        <time>2015-06-22T07:26:45Z</time>
      </trkpt>
      <trkpt lat="42.20501" lon="9.04073">
        <ele>2155.41</ele>
        <time>2015-06-22T07:26:59Z</time>
      </trkpt>
      <trkpt lat="42.20504" lon="9.04064">
        <ele>2155.41</ele>
        <time>2015-06-22T07:27:13Z</time>
      </trkpt>
      <trkpt lat="42.20505" lon="9.04063">
        <ele>2156.86</ele>
        <time>2015-06-22T07:27:16Z</time>
      </trkpt>
      <trkpt lat="42.20506" lon="9.04059">
        <ele>2157.34</ele>
        <time>2015-06-22T07:27:30Z</time>
      </trkpt>
      <trkpt lat="42.20508" lon="9.04051">
        <ele>2155.89</ele>
        <time>2015-06-22T07:27:45Z</time>
      </trkpt>
      <trkpt lat="42.20513" lon="9.04048">
        <ele>2159.74</ele>
        <time>2015-06-22T07:27:54Z</time>
      </trkpt>
      <trkpt lat="42.20518" lon="9.04051">
        <ele>2159.74</ele>
        <time>2015-06-22T07:28:08Z</time>
      </trkpt>
      <trkpt lat="42.20524" lon="9.0404">
        <ele>2161.18</ele>
        <time>2015-06-22T07:28:23Z</time>
      </trkpt>
      <trkpt lat="42.2053" lon="9.04037">
        <ele>2163.58</ele>
        <time>2015-06-22T07:28:37Z</time>
      </trkpt>
      <trkpt lat="42.20537" lon="9.0403">
        <ele>2165.03</ele>
        <time>2015-06-22T07:28:53Z</time>
      </trkpt>
      <trkpt lat="42.20542" lon="9.04021">
        <ele>2165.99</ele>
        <time>2015-06-22T07:29:06Z</time>
      </trkpt>
      <trkpt lat="42.20543" lon="9.04011">
        <ele>2164.06</ele>
        <time>2015-06-22T07:29:21Z</time>
      </trkpt>
      <trkpt lat="42.20545" lon="9.04009">
        <ele>2165.99</ele>
        <time>2015-06-22T07:29:24Z</time>
      </trkpt>
      <trkpt lat="42.20553" lon="9.04001">
        <ele>2168.87</ele>
        <time>2015-06-22T07:29:38Z</time>
      </trkpt>
      <trkpt lat="42.20556" lon="9.03993">
        <ele>2170.31</ele>
        <time>2015-06-22T07:29:54Z</time>
      </trkpt>
      <trkpt lat="42.20557" lon="9.03987">
        <ele>2169.83</ele>
        <time>2015-06-22T07:30:07Z</time>
      </trkpt>
      <trkpt lat="42.2056" lon="9.03981">
        <ele>2171.76</ele>
        <time>2015-06-22T07:30:20Z</time>
      </trkpt>
      <trkpt lat="42.20561" lon="9.03976">
        <ele>2172.24</ele>
        <time>2015-06-22T07:30:30Z</time>
      </trkpt>
      <trkpt lat="42.20566" lon="9.03965">
        <ele>2172.24</ele>
        <time>2015-06-22T07:30:47Z</time>
      </trkpt>
      <trkpt lat="42.20566" lon="9.03961">
        <ele>2171.76</ele>
        <time>2015-06-22T07:30:51Z</time>
      </trkpt>
      <trkpt lat="42.20566" lon="9.03954">
        <ele>2172.72</ele>
        <time>2015-06-22T07:30:57Z</time>
      </trkpt>
      <trkpt lat="42.20567" lon="9.03953">
        <ele>2174.16</ele>
        <time>2015-06-22T07:30:59Z</time>
      </trkpt>
      <trkpt lat="42.20573" lon="9.03948">
        <ele>2172.24</ele>
        <time>2015-06-22T07:31:12Z</time>
      </trkpt>
      <trkpt lat="42.20574" lon="9.03947">
        <ele>2172.24</ele>
        <time>2015-06-22T07:31:13Z</time>
      </trkpt>
      <trkpt lat="42.20579" lon="9.03941">
        <ele>2172.24</ele>
        <time>2015-06-22T07:31:23Z</time>
      </trkpt>
      <trkpt lat="42.20582" lon="9.03932">
        <ele>2169.83</ele>
        <time>2015-06-22T07:31:33Z</time>
      </trkpt>
      <trkpt lat="42.20583" lon="9.0393">
        <ele>2173.2</ele>
        <time>2015-06-22T07:31:38Z</time>
      </trkpt>
      <trkpt lat="42.20583" lon="9.0393">
        <ele>2169.83</ele>
        <time>2015-06-22T07:31:40Z</time>
      </trkpt>
      <trkpt lat="42.20584" lon="9.03929">
        <ele>2173.68</ele>
        <time>2015-06-22T07:31:42Z</time>
      </trkpt>
      <trkpt lat="42.20586" lon="9.03928">
        <ele>2175.12</ele>
        <time>2015-06-22T07:31:44Z</time>
      </trkpt>
      <trkpt lat="42.2059" lon="9.03927">
        <ele>2175.6</ele>
        <time>2015-06-22T07:31:52Z</time>
      </trkpt>
      <trkpt lat="42.20591" lon="9.03926">
        <ele>2174.16</ele>
        <time>2015-06-22T07:31:57Z</time>
      </trkpt>
      <trkpt lat="42.20591" lon="9.03925">
        <ele>2175.6</ele>
        <time>2015-06-22T07:32:00Z</time>
      </trkpt>
      <trkpt lat="42.20593" lon="9.03921">
        <ele>2178.97</ele>
        <time>2015-06-22T07:32:09Z</time>
      </trkpt>
      <trkpt lat="42.20594" lon="9.03921">
        <ele>2179.45</ele>
        <time>2015-06-22T07:32:10Z</time>
      </trkpt>
      <trkpt lat="42.20598" lon="9.03913">
        <ele>2174.16</ele>
        <time>2015-06-22T07:32:25Z</time>
      </trkpt>
      <trkpt lat="42.20598" lon="9.03912">
        <ele>2174.64</ele>
        <time>2015-06-22T07:32:26Z</time>
      </trkpt>
      <trkpt lat="42.20605" lon="9.03906">
        <ele>2178.97</ele>
        <time>2015-06-22T07:32:38Z</time>
      </trkpt>
      <trkpt lat="42.20616" lon="9.03897">
        <ele>2178.97</ele>
        <time>2015-06-22T07:32:55Z</time>
      </trkpt>
      <trkpt lat="42.2062" lon="9.03891">
        <ele>2181.85</ele>
        <time>2015-06-22T07:33:03Z</time>
      </trkpt>
      <trkpt lat="42.20621" lon="9.03891">
        <ele>2182.33</ele>
        <time>2015-06-22T07:33:04Z</time>
      </trkpt>
      <trkpt lat="42.20627" lon="9.03879">
        <ele>2182.33</ele>
        <time>2015-06-22T07:33:20Z</time>
      </trkpt>
      <trkpt lat="42.20634" lon="9.03871">
        <ele>2182.81</ele>
        <time>2015-06-22T07:33:35Z</time>
      </trkpt>
      <trkpt lat="42.20639" lon="9.03868">
        <ele>2184.25</ele>
        <time>2015-06-22T07:33:43Z</time>
      </trkpt>
      <trkpt lat="42.2064" lon="9.03857">
        <ele>2182.81</ele>
        <time>2015-06-22T07:33:58Z</time>
      </trkpt>
      <trkpt lat="42.20644" lon="9.03855">
        <ele>2184.73</ele>
        <time>2015-06-22T07:34:13Z</time>
      </trkpt>
      <trkpt lat="42.20645" lon="9.03852">
        <ele>2186.66</ele>
        <time>2015-06-22T07:34:31Z</time>
      </trkpt>
      <trkpt lat="42.20646" lon="9.03847">
        <ele>2188.1</ele>
        <time>2015-06-22T07:34:45Z</time>
      </trkpt>
      <trkpt lat="42.20649" lon="9.03842">
        <ele>2191.46</ele>
        <time>2015-06-22T07:34:58Z</time>
      </trkpt>
      <trkpt lat="42.20649" lon="9.03837">
        <ele>2191.94</ele>
        <time>2015-06-22T07:35:11Z</time>
      </trkpt>
      <trkpt lat="42.20653" lon="9.03835">
        <ele>2193.87</ele>
        <time>2015-06-22T07:35:18Z</time>
      </trkpt>
      <trkpt lat="42.20654" lon="9.03832">
        <ele>2194.35</ele>
        <time>2015-06-22T07:35:25Z</time>
      </trkpt>
      <trkpt lat="42.20657" lon="9.03822">
        <ele>2196.75</ele>
        <time>2015-06-22T07:35:39Z</time>
      </trkpt>
      <trkpt lat="42.20658" lon="9.0382">
        <ele>2196.75</ele>
        <time>2015-06-22T07:35:59Z</time>
      </trkpt>
      <trkpt lat="42.20658" lon="9.03816">
        <ele>2199.15</ele>
        <time>2015-06-22T07:36:13Z</time>
      </trkpt>
      <trkpt lat="42.20661" lon="9.03804">
        <ele>2201.56</ele>
        <time>2015-06-22T07:36:28Z</time>
      </trkpt>
      <trkpt lat="42.20664" lon="9.038">
        <ele>2202.52</ele>
        <time>2015-06-22T07:36:43Z</time>
      </trkpt>
      <trkpt lat="42.20665" lon="9.03795">
        <ele>2202.52</ele>
        <time>2015-06-22T07:36:56Z</time>
      </trkpt>
      <trkpt lat="42.20666" lon="9.03793">
        <ele>2203.48</ele>
        <time>2015-06-22T07:37:00Z</time>
      </trkpt>
      <trkpt lat="42.20668" lon="9.0379">
        <ele>2205.4</ele>
        <time>2015-06-22T07:37:12Z</time>
      </trkpt>
      <trkpt lat="42.20672" lon="9.03785">
        <ele>2206.36</ele>
        <time>2015-06-22T07:37:24Z</time>
      </trkpt>
      <trkpt lat="42.20672" lon="9.03785">
        <ele>2207.81</ele>
        <time>2015-06-22T07:37:29Z</time>
      </trkpt>
      <trkpt lat="42.20673" lon="9.03784">
        <ele>2205.4</ele>
        <time>2015-06-22T07:37:54Z</time>
      </trkpt>
      <trkpt lat="42.20672" lon="9.03786">
        <ele>2204.44</ele>
        <time>2015-06-22T07:38:18Z</time>
      </trkpt>
      <trkpt lat="42.20674" lon="9.03783">
        <ele>2205.88</ele>
        <time>2015-06-22T07:38:45Z</time>
      </trkpt>
      <trkpt lat="42.20676" lon="9.03779">
        <ele>2204.92</ele>
        <time>2015-06-22T07:38:51Z</time>
      </trkpt>
      <trkpt lat="42.20676" lon="9.03766">
        <ele>2206.36</ele>
        <time>2015-06-22T07:39:07Z</time>
      </trkpt>
      <trkpt lat="42.20675" lon="9.03764">
        <ele>2206.84</ele>
        <time>2015-06-22T07:39:09Z</time>
      </trkpt>
      <trkpt lat="42.20676" lon="9.03751">
        <ele>2208.29</ele>
        <time>2015-06-22T07:39:23Z</time>
      </trkpt>
      <trkpt lat="42.20683" lon="9.03748">
        <ele>2205.4</ele>
        <time>2015-06-22T07:39:34Z</time>
      </trkpt>
      <trkpt lat="42.20683" lon="9.03748">
        <ele>2205.88</ele>
        <time>2015-06-22T07:39:35Z</time>
      </trkpt>
      <trkpt lat="42.20689" lon="9.03741">
        <ele>2203.48</ele>
        <time>2015-06-22T07:39:48Z</time>
      </trkpt>
      <trkpt lat="42.20692" lon="9.03738">
        <ele>2203.96</ele>
        <time>2015-06-22T07:39:52Z</time>
      </trkpt>
      <trkpt lat="42.207" lon="9.03724">
        <ele>2202.04</ele>
        <time>2015-06-22T07:40:06Z</time>
      </trkpt>
      <trkpt lat="42.20703" lon="9.03713">
        <ele>2201.08</ele>
        <time>2015-06-22T07:40:20Z</time>
      </trkpt>
      <trkpt lat="42.20709" lon="9.03703">
        <ele>2199.15</ele>
        <time>2015-06-22T07:40:32Z</time>
      </trkpt>
      <trkpt lat="42.20717" lon="9.03691">
        <ele>2197.71</ele>
        <time>2015-06-22T07:40:43Z</time>
      </trkpt>
      <trkpt lat="42.20725" lon="9.03675">
        <ele>2196.75</ele>
        <time>2015-06-22T07:41:01Z</time>
      </trkpt>
      <trkpt lat="42.2073" lon="9.03662">
        <ele>2196.27</ele>
        <time>2015-06-22T07:41:15Z</time>
      </trkpt>
      <trkpt lat="42.20739" lon="9.03649">
        <ele>2194.35</ele>
        <time>2015-06-22T07:41:30Z</time>
      </trkpt>
      <trkpt lat="42.20744" lon="9.03639">
        <ele>2193.87</ele>
        <time>2015-06-22T07:41:41Z</time>
      </trkpt>
      <trkpt lat="42.2075" lon="9.03626">
        <ele>2195.31</ele>
        <time>2015-06-22T07:41:55Z</time>
      </trkpt>
      <trkpt lat="42.20741" lon="9.03627">
        <ele>2196.27</ele>
        <time>2015-06-22T07:42:09Z</time>
      </trkpt>
      <trkpt lat="42.20743" lon="9.03627">
        <ele>2195.79</ele>
        <time>2015-06-22T07:42:22Z</time>
      </trkpt>
      <trkpt lat="42.20742" lon="9.03629">
        <ele>2196.75</ele>
        <time>2015-06-22T07:42:35Z</time>
      </trkpt>
      <trkpt lat="42.20744" lon="9.03629">
        <ele>2195.79</ele>
        <time>2015-06-22T07:43:07Z</time>
      </trkpt>
      <trkpt lat="42.20743" lon="9.0363">
        <ele>2196.27</ele>
        <time>2015-06-22T07:43:38Z</time>
      </trkpt>
      <trkpt lat="42.20744" lon="9.03631">
        <ele>2196.75</ele>
        <time>2015-06-22T07:43:51Z</time>
      </trkpt>
      <trkpt lat="42.20744" lon="9.0363">
        <ele>2196.27</ele>
        <time>2015-06-22T07:44:14Z</time>
      </trkpt>
      <trkpt lat="42.20743" lon="9.03629">
        <ele>2196.27</ele>
        <time>2015-06-22T07:44:42Z</time>
      </trkpt>
      <trkpt lat="42.20738" lon="9.03629">
        <ele>2196.75</ele>
        <time>2015-06-22T07:44:59Z</time>
      </trkpt>
      <trkpt lat="42.2074" lon="9.03629">
        <ele>2197.71</ele>
        <time>2015-06-22T07:45:18Z</time>
      </trkpt>
      <trkpt lat="42.20738" lon="9.03629">
        <ele>2197.23</ele>
        <time>2015-06-22T07:45:36Z</time>
      </trkpt>
      <trkpt lat="42.20742" lon="9.03628">
        <ele>2198.19</ele>
        <time>2015-06-22T07:46:09Z</time>
      </trkpt>
      <trkpt lat="42.20742" lon="9.0363">
        <ele>2197.71</ele>
        <time>2015-06-22T07:46:34Z</time>
      </trkpt>
      <trkpt lat="42.20743" lon="9.03629">
        <ele>2197.23</ele>
        <time>2015-06-22T07:46:51Z</time>
      </trkpt>
      <trkpt lat="42.20743" lon="9.03627">
        <ele>2197.23</ele>
        <time>2015-06-22T07:47:16Z</time>
      </trkpt>
      <trkpt lat="42.20757" lon="9.03616">
        <ele>2197.23</ele>
        <time>2015-06-22T07:47:34Z</time>
      </trkpt>
      <trkpt lat="42.2076" lon="9.03612">
        <ele>2196.75</ele>
        <time>2015-06-22T07:47:39Z</time>
      </trkpt>
      <trkpt lat="42.20763" lon="9.03605">
        <ele>2195.79</ele>
        <time>2015-06-22T07:47:46Z</time>
      </trkpt>
      <trkpt lat="42.20763" lon="9.03602">
        <ele>2196.75</ele>
        <time>2015-06-22T07:47:49Z</time>
      </trkpt>
      <trkpt lat="42.20767" lon="9.03593">
        <ele>2194.83</ele>
        <time>2015-06-22T07:48:04Z</time>
      </trkpt>
      <trkpt lat="42.20771" lon="9.03591">
        <ele>2191.94</ele>
        <time>2015-06-22T07:48:15Z</time>
      </trkpt>
      <trkpt lat="42.20774" lon="9.0359">
        <ele>2190.98</ele>
        <time>2015-06-22T07:48:26Z</time>
      </trkpt>
      <trkpt lat="42.20779" lon="9.03585">
        <ele>2188.1</ele>
        <time>2015-06-22T07:48:39Z</time>
      </trkpt>
      <trkpt lat="42.20781" lon="9.03583">
        <ele>2187.14</ele>
        <time>2015-06-22T07:48:51Z</time>
      </trkpt>
      <trkpt lat="42.20782" lon="9.03579">
        <ele>2185.21</ele>
        <time>2015-06-22T07:49:05Z</time>
      </trkpt>
      <trkpt lat="42.20781" lon="9.03573">
        <ele>2182.81</ele>
        <time>2015-06-22T07:49:12Z</time>
      </trkpt>
      <trkpt lat="42.2078" lon="9.03566">
        <ele>2180.41</ele>
        <time>2015-06-22T07:49:24Z</time>
      </trkpt>
      <trkpt lat="42.2078" lon="9.03565">
        <ele>2180.41</ele>
        <time>2015-06-22T07:49:25Z</time>
      </trkpt>
      <trkpt lat="42.20785" lon="9.03555">
        <ele>2178</ele>
        <time>2015-06-22T07:49:39Z</time>
      </trkpt>
      <trkpt lat="42.20785" lon="9.03553">
        <ele>2177.52</ele>
        <time>2015-06-22T07:49:41Z</time>
      </trkpt>
      <trkpt lat="42.20786" lon="9.03537">
        <ele>2176.56</ele>
        <time>2015-06-22T07:49:53Z</time>
      </trkpt>
      <trkpt lat="42.20787" lon="9.03516">
        <ele>2173.68</ele>
        <time>2015-06-22T07:50:09Z</time>
      </trkpt>
      <trkpt lat="42.20787" lon="9.03508">
        <ele>2174.64</ele>
        <time>2015-06-22T07:50:15Z</time>
      </trkpt>
      <trkpt lat="42.20788" lon="9.03499">
        <ele>2172.72</ele>
        <time>2015-06-22T07:50:23Z</time>
      </trkpt>
      <trkpt lat="42.20789" lon="9.03489">
        <ele>2171.76</ele>
        <time>2015-06-22T07:50:37Z</time>
      </trkpt>
      <trkpt lat="42.20787" lon="9.03478">
        <ele>2173.68</ele>
        <time>2015-06-22T07:50:49Z</time>
      </trkpt>
      <trkpt lat="42.20787" lon="9.03476">
        <ele>2174.64</ele>
        <time>2015-06-22T07:50:51Z</time>
      </trkpt>
      <trkpt lat="42.20787" lon="9.03461">
        <ele>2172.24</ele>
        <time>2015-06-22T07:51:05Z</time>
      </trkpt>
      <trkpt lat="42.20783" lon="9.03453">
        <ele>2171.27</ele>
        <time>2015-06-22T07:51:21Z</time>
      </trkpt>
      <trkpt lat="42.20782" lon="9.03447">
        <ele>2171.76</ele>
        <time>2015-06-22T07:51:37Z</time>
      </trkpt>
      <trkpt lat="42.20782" lon="9.03444">
        <ele>2171.27</ele>
        <time>2015-06-22T07:51:50Z</time>
      </trkpt>
      <trkpt lat="42.20782" lon="9.03442">
        <ele>2171.76</ele>
        <time>2015-06-22T07:52:07Z</time>
      </trkpt>
      <trkpt lat="42.20782" lon="9.03438">
        <ele>2172.24</ele>
        <time>2015-06-22T07:52:21Z</time>
      </trkpt>
      <trkpt lat="42.20785" lon="9.03428">
        <ele>2171.27</ele>
        <time>2015-06-22T07:52:35Z</time>
      </trkpt>
      <trkpt lat="42.2079" lon="9.03417">
        <ele>2170.79</ele>
        <time>2015-06-22T07:52:48Z</time>
      </trkpt>
      <trkpt lat="42.20792" lon="9.03411">
        <ele>2169.83</ele>
        <time>2015-06-22T07:52:55Z</time>
      </trkpt>
      <trkpt lat="42.20793" lon="9.03397">
        <ele>2168.87</ele>
        <time>2015-06-22T07:53:10Z</time>
      </trkpt>
      <trkpt lat="42.20793" lon="9.03392">
        <ele>2168.39</ele>
        <time>2015-06-22T07:53:18Z</time>
      </trkpt>
      <trkpt lat="42.20798" lon="9.0338">
        <ele>2169.35</ele>
        <time>2015-06-22T07:53:33Z</time>
      </trkpt>
      <trkpt lat="42.208" lon="9.03375">
        <ele>2168.39</ele>
        <time>2015-06-22T07:53:44Z</time>
      </trkpt>
      <trkpt lat="42.20797" lon="9.03378">
        <ele>2169.35</ele>
        <time>2015-06-22T07:54:03Z</time>
      </trkpt>
      <trkpt lat="42.20796" lon="9.03375">
        <ele>2169.83</ele>
        <time>2015-06-22T07:54:07Z</time>
      </trkpt>
      <trkpt lat="42.208" lon="9.03362">
        <ele>2168.39</ele>
        <time>2015-06-22T07:54:21Z</time>
      </trkpt>
      <trkpt lat="42.20803" lon="9.03356">
        <ele>2166.95</ele>
        <time>2015-06-22T07:54:35Z</time>
      </trkpt>
      <trkpt lat="42.20805" lon="9.03346">
        <ele>2166.95</ele>
        <time>2015-06-22T07:54:50Z</time>
      </trkpt>
      <trkpt lat="42.20807" lon="9.03336">
        <ele>2166.95</ele>
        <time>2015-06-22T07:55:03Z</time>
      </trkpt>
      <trkpt lat="42.20807" lon="9.03327">
        <ele>2167.91</ele>
        <time>2015-06-22T07:55:16Z</time>
      </trkpt>
      <trkpt lat="42.20805" lon="9.03321">
        <ele>2169.83</ele>
        <time>2015-06-22T07:55:26Z</time>
      </trkpt>
      <trkpt lat="42.20803" lon="9.03306">
        <ele>2171.27</ele>
        <time>2015-06-22T07:55:42Z</time>
      </trkpt>
      <trkpt lat="42.208" lon="9.03298">
        <ele>2172.24</ele>
        <time>2015-06-22T07:55:57Z</time>
      </trkpt>
      <trkpt lat="42.20798" lon="9.03288">
        <ele>2173.68</ele>
        <time>2015-06-22T07:56:11Z</time>
      </trkpt>
      <trkpt lat="42.20796" lon="9.03276">
        <ele>2176.08</ele>
        <time>2015-06-22T07:56:25Z</time>
      </trkpt>
      <trkpt lat="42.20803" lon="9.03263">
        <ele>2174.16</ele>
        <time>2015-06-22T07:56:40Z</time>
      </trkpt>
      <trkpt lat="42.20808" lon="9.03252">
        <ele>2173.2</ele>
        <time>2015-06-22T07:56:52Z</time>
      </trkpt>
      <trkpt lat="42.20809" lon="9.03249">
        <ele>2173.2</ele>
        <time>2015-06-22T07:56:55Z</time>
      </trkpt>
      <trkpt lat="42.2081" lon="9.0324">
        <ele>2172.72</ele>
        <time>2015-06-22T07:57:03Z</time>
      </trkpt>
      <trkpt lat="42.2081" lon="9.03238">
        <ele>2172.24</ele>
        <time>2015-06-22T07:57:05Z</time>
      </trkpt>
      <trkpt lat="42.20809" lon="9.03226">
        <ele>2173.2</ele>
        <time>2015-06-22T07:57:16Z</time>
      </trkpt>
      <trkpt lat="42.20811" lon="9.0322">
        <ele>2173.68</ele>
        <time>2015-06-22T07:57:21Z</time>
      </trkpt>
      <trkpt lat="42.20814" lon="9.03202">
        <ele>2173.2</ele>
        <time>2015-06-22T07:57:36Z</time>
      </trkpt>
      <trkpt lat="42.20814" lon="9.03187">
        <ele>2173.68</ele>
        <time>2015-06-22T07:57:48Z</time>
      </trkpt>
      <trkpt lat="42.20816" lon="9.03177">
        <ele>2171.76</ele>
        <time>2015-06-22T07:58:00Z</time>
      </trkpt>
      <trkpt lat="42.20815" lon="9.0317">
        <ele>2170.31</ele>
        <time>2015-06-22T07:58:06Z</time>
      </trkpt>
      <trkpt lat="42.20817" lon="9.03155">
        <ele>2168.87</ele>
        <time>2015-06-22T07:58:21Z</time>
      </trkpt>
      <trkpt lat="42.2082" lon="9.03144">
        <ele>2166.95</ele>
        <time>2015-06-22T07:58:35Z</time>
      </trkpt>
      <trkpt lat="42.20822" lon="9.03134">
        <ele>2164.55</ele>
        <time>2015-06-22T07:58:48Z</time>
      </trkpt>
      <trkpt lat="42.20821" lon="9.03123">
        <ele>2162.14</ele>
        <time>2015-06-22T07:59:02Z</time>
      </trkpt>
      <trkpt lat="42.20824" lon="9.0311">
        <ele>2160.22</ele>
        <time>2015-06-22T07:59:14Z</time>
      </trkpt>
      <trkpt lat="42.20823" lon="9.0309">
        <ele>2159.74</ele>
        <time>2015-06-22T07:59:30Z</time>
      </trkpt>
      <trkpt lat="42.20821" lon="9.03081">
        <ele>2159.74</ele>
        <time>2015-06-22T07:59:44Z</time>
      </trkpt>
      <trkpt lat="42.20825" lon="9.03077">
        <ele>2158.78</ele>
        <time>2015-06-22T08:00:03Z</time>
      </trkpt>
      <trkpt lat="42.20822" lon="9.03071">
        <ele>2157.82</ele>
        <time>2015-06-22T08:00:09Z</time>
      </trkpt>
      <trkpt lat="42.20822" lon="9.03066">
        <ele>2157.82</ele>
        <time>2015-06-22T08:00:13Z</time>
      </trkpt>
      <trkpt lat="42.20834" lon="9.03055">
        <ele>2156.86</ele>
        <time>2015-06-22T08:00:27Z</time>
      </trkpt>
      <trkpt lat="42.20832" lon="9.0305">
        <ele>2156.37</ele>
        <time>2015-06-22T08:00:32Z</time>
      </trkpt>
      <trkpt lat="42.20829" lon="9.03033">
        <ele>2156.86</ele>
        <time>2015-06-22T08:00:46Z</time>
      </trkpt>
      <trkpt lat="42.20832" lon="9.0302">
        <ele>2156.86</ele>
        <time>2015-06-22T08:00:59Z</time>
      </trkpt>
      <trkpt lat="42.20834" lon="9.03009">
        <ele>2156.37</ele>
        <time>2015-06-22T08:01:15Z</time>
      </trkpt>
      <trkpt lat="42.20837" lon="9.0301">
        <ele>2155.89</ele>
        <time>2015-06-22T08:01:32Z</time>
      </trkpt>
      <trkpt lat="42.20839" lon="9.03009">
        <ele>2156.86</ele>
        <time>2015-06-22T08:01:54Z</time>
      </trkpt>
      <trkpt lat="42.20841" lon="9.03009">
        <ele>2155.89</ele>
        <time>2015-06-22T08:02:12Z</time>
      </trkpt>
      <trkpt lat="42.20844" lon="9.03009">
        <ele>2156.37</ele>
        <time>2015-06-22T08:02:37Z</time>
      </trkpt>
      <trkpt lat="42.2085" lon="9.03007">
        <ele>2155.89</ele>
        <time>2015-06-22T08:02:59Z</time>
      </trkpt>
      <trkpt lat="42.20847" lon="9.03007">
        <ele>2156.86</ele>
        <time>2015-06-22T08:03:15Z</time>
      </trkpt>
      <trkpt lat="42.20845" lon="9.0301">
        <ele>2156.86</ele>
        <time>2015-06-22T08:03:36Z</time>
      </trkpt>
      <trkpt lat="42.20847" lon="9.03007">
        <ele>2156.37</ele>
        <time>2015-06-22T08:03:53Z</time>
      </trkpt>
      <trkpt lat="42.20849" lon="9.03005">
        <ele>2154.93</ele>
        <time>2015-06-22T08:03:59Z</time>
      </trkpt>
      <trkpt lat="42.20853" lon="9.02996">
        <ele>2152.05</ele>
        <time>2015-06-22T08:04:13Z</time>
      </trkpt>
      <trkpt lat="42.20864" lon="9.02989">
        <ele>2151.57</ele>
        <time>2015-06-22T08:04:28Z</time>
      </trkpt>
      <trkpt lat="42.20868" lon="9.02981">
        <ele>2150.61</ele>
        <time>2015-06-22T08:04:39Z</time>
      </trkpt>
      <trkpt lat="42.20868" lon="9.0298">
        <ele>2149.65</ele>
        <time>2015-06-22T08:04:40Z</time>
      </trkpt>
      <trkpt lat="42.20873" lon="9.02974">
        <ele>2148.68</ele>
        <time>2015-06-22T08:04:55Z</time>
      </trkpt>
      <trkpt lat="42.20876" lon="9.02963">
        <ele>2145.8</ele>
        <time>2015-06-22T08:05:07Z</time>
      </trkpt>
      <trkpt lat="42.20878" lon="9.02962">
        <ele>2145.32</ele>
        <time>2015-06-22T08:05:09Z</time>
      </trkpt>
      <trkpt lat="42.20883" lon="9.02959">
        <ele>2142.92</ele>
        <time>2015-06-22T08:05:21Z</time>
      </trkpt>
      <trkpt lat="42.20885" lon="9.02956">
        <ele>2140.99</ele>
        <time>2015-06-22T08:05:27Z</time>
      </trkpt>
      <trkpt lat="42.20886" lon="9.02949">
        <ele>2138.59</ele>
        <time>2015-06-22T08:05:37Z</time>
      </trkpt>
      <trkpt lat="42.20889" lon="9.0295">
        <ele>2137.15</ele>
        <time>2015-06-22T08:05:42Z</time>
      </trkpt>
      <trkpt lat="42.20894" lon="9.02947">
        <ele>2133.78</ele>
        <time>2015-06-22T08:05:53Z</time>
      </trkpt>
      <trkpt lat="42.20894" lon="9.02947">
        <ele>2133.78</ele>
        <time>2015-06-22T08:05:54Z</time>
      </trkpt>
      <trkpt lat="42.209" lon="9.02946">
        <ele>2132.34</ele>
        <time>2015-06-22T08:06:07Z</time>
      </trkpt>
      <trkpt lat="42.20904" lon="9.02942">
        <ele>2130.9</ele>
        <time>2015-06-22T08:06:22Z</time>
      </trkpt>
      <trkpt lat="42.20906" lon="9.02938">
        <ele>2127.53</ele>
        <time>2015-06-22T08:06:34Z</time>
      </trkpt>
      <trkpt lat="42.20909" lon="9.02933">
        <ele>2124.65</ele>
        <time>2015-06-22T08:06:47Z</time>
      </trkpt>
      <trkpt lat="42.20912" lon="9.0293">
        <ele>2122.73</ele>
        <time>2015-06-22T08:07:01Z</time>
      </trkpt>
      <trkpt lat="42.20908" lon="9.02925">
        <ele>2119.84</ele>
        <time>2015-06-22T08:07:15Z</time>
      </trkpt>
      <trkpt lat="42.20911" lon="9.02919">
        <ele>2116.96</ele>
        <time>2015-06-22T08:07:30Z</time>
      </trkpt>
      <trkpt lat="42.20912" lon="9.02914">
        <ele>2115.52</ele>
        <time>2015-06-22T08:07:40Z</time>
      </trkpt>
      <trkpt lat="42.2091" lon="9.02913">
        <ele>2113.6</ele>
        <time>2015-06-22T08:07:54Z</time>
      </trkpt>
      <trkpt lat="42.20906" lon="9.02911">
        <ele>2110.23</ele>
        <time>2015-06-22T08:08:05Z</time>
      </trkpt>
      <trkpt lat="42.20906" lon="9.02904">
        <ele>2108.31</ele>
        <time>2015-06-22T08:08:19Z</time>
      </trkpt>
      <trkpt lat="42.20907" lon="9.02899">
        <ele>2105.42</ele>
        <time>2015-06-22T08:08:33Z</time>
      </trkpt>
      <trkpt lat="42.20902" lon="9.02894">
        <ele>2102.54</ele>
        <time>2015-06-22T08:08:49Z</time>
      </trkpt>
      <trkpt lat="42.20903" lon="9.02889">
        <ele>2100.14</ele>
        <time>2015-06-22T08:09:00Z</time>
      </trkpt>
      <trkpt lat="42.20906" lon="9.02884">
        <ele>2097.25</ele>
        <time>2015-06-22T08:09:13Z</time>
      </trkpt>
      <trkpt lat="42.20906" lon="9.02878">
        <ele>2093.89</ele>
        <time>2015-06-22T08:09:28Z</time>
      </trkpt>
      <trkpt lat="42.20911" lon="9.02877">
        <ele>2091.97</ele>
        <time>2015-06-22T08:09:40Z</time>
      </trkpt>
      <trkpt lat="42.20913" lon="9.02875">
        <ele>2089.56</ele>
        <time>2015-06-22T08:09:54Z</time>
      </trkpt>
      <trkpt lat="42.20912" lon="9.02868">
        <ele>2086.68</ele>
        <time>2015-06-22T08:10:07Z</time>
      </trkpt>
      <trkpt lat="42.20918" lon="9.02867">
        <ele>2084.28</ele>
        <time>2015-06-22T08:10:20Z</time>
      </trkpt>
      <trkpt lat="42.20917" lon="9.02864">
        <ele>2081.87</ele>
        <time>2015-06-22T08:10:33Z</time>
      </trkpt>
      <trkpt lat="42.20918" lon="9.02862">
        <ele>2081.39</ele>
        <time>2015-06-22T08:10:46Z</time>
      </trkpt>
      <trkpt lat="42.20918" lon="9.02861">
        <ele>2079.95</ele>
        <time>2015-06-22T08:11:17Z</time>
      </trkpt>
      <trkpt lat="42.20918" lon="9.02861">
        <ele>2078.99</ele>
        <time>2015-06-22T08:11:20Z</time>
      </trkpt>
      <trkpt lat="42.20918" lon="9.02861">
        <ele>2079.95</ele>
        <time>2015-06-22T08:11:24Z</time>
      </trkpt>
      <trkpt lat="42.20918" lon="9.0286">
        <ele>2080.43</ele>
        <time>2015-06-22T08:11:49Z</time>
      </trkpt>
      <trkpt lat="42.20918" lon="9.02862">
        <ele>2080.91</ele>
        <time>2015-06-22T08:12:17Z</time>
      </trkpt>
      <trkpt lat="42.20918" lon="9.02861">
        <ele>2080.43</ele>
        <time>2015-06-22T08:12:45Z</time>
      </trkpt>
      <trkpt lat="42.2092" lon="9.0286">
        <ele>2080.43</ele>
        <time>2015-06-22T08:13:12Z</time>
      </trkpt>
      <trkpt lat="42.20918" lon="9.02861">
        <ele>2080.91</ele>
        <time>2015-06-22T08:13:41Z</time>
      </trkpt>
      <trkpt lat="42.20921" lon="9.02863">
        <ele>2080.91</ele>
        <time>2015-06-22T08:14:06Z</time>
      </trkpt>
      <trkpt lat="42.20919" lon="9.02863">
        <ele>2080.91</ele>
        <time>2015-06-22T08:14:26Z</time>
      </trkpt>
      <trkpt lat="42.20919" lon="9.02863">
        <ele>2080.43</ele>
        <time>2015-06-22T08:15:00Z</time>
      </trkpt>
      <trkpt lat="42.20918" lon="9.02861">
        <ele>2081.39</ele>
        <time>2015-06-22T08:15:31Z</time>
      </trkpt>
      <trkpt lat="42.2092" lon="9.02858">
        <ele>2080.91</ele>
        <time>2015-06-22T08:15:46Z</time>
      </trkpt>
      <trkpt lat="42.20922" lon="9.02859">
        <ele>2079.47</ele>
        <time>2015-06-22T08:16:01Z</time>
      </trkpt>
      <trkpt lat="42.20925" lon="9.02857">
        <ele>2078.03</ele>
        <time>2015-06-22T08:16:13Z</time>
      </trkpt>
      <trkpt lat="42.20923" lon="9.02854">
        <ele>2076.59</ele>
        <time>2015-06-22T08:16:26Z</time>
      </trkpt>
      <trkpt lat="42.20923" lon="9.02852">
        <ele>2073.7</ele>
        <time>2015-06-22T08:16:38Z</time>
      </trkpt>
      <trkpt lat="42.20924" lon="9.02847">
        <ele>2072.74</ele>
        <time>2015-06-22T08:16:53Z</time>
      </trkpt>
      <trkpt lat="42.20922" lon="9.02844">
        <ele>2071.3</ele>
        <time>2015-06-22T08:17:07Z</time>
      </trkpt>
      <trkpt lat="42.20922" lon="9.02839">
        <ele>2068.41</ele>
        <time>2015-06-22T08:17:20Z</time>
      </trkpt>
      <trkpt lat="42.20919" lon="9.02838">
        <ele>2067.93</ele>
        <time>2015-06-22T08:17:33Z</time>
      </trkpt>
      <trkpt lat="42.20915" lon="9.02833">
        <ele>2066.97</ele>
        <time>2015-06-22T08:17:44Z</time>
      </trkpt>
      <trkpt lat="42.20911" lon="9.02829">
        <ele>2065.05</ele>
        <time>2015-06-22T08:17:50Z</time>
      </trkpt>
      <trkpt lat="42.2091" lon="9.02828">
        <ele>2064.57</ele>
        <time>2015-06-22T08:17:51Z</time>
      </trkpt>
      <trkpt lat="42.20902" lon="9.02821">
        <ele>2063.13</ele>
        <time>2015-06-22T08:18:05Z</time>
      </trkpt>
      <trkpt lat="42.20899" lon="9.02821">
        <ele>2062.65</ele>
        <time>2015-06-22T08:18:17Z</time>
      </trkpt>
      <trkpt lat="42.20896" lon="9.0282">
        <ele>2062.17</ele>
        <time>2015-06-22T08:18:35Z</time>
      </trkpt>
      <trkpt lat="42.20894" lon="9.02819">
        <ele>2062.65</ele>
        <time>2015-06-22T08:18:52Z</time>
      </trkpt>
      <trkpt lat="42.20893" lon="9.02816">
        <ele>2061.68</ele>
        <time>2015-06-22T08:19:08Z</time>
      </trkpt>
      <trkpt lat="42.2089" lon="9.02816">
        <ele>2058.8</ele>
        <time>2015-06-22T08:19:22Z</time>
      </trkpt>
      <trkpt lat="42.20888" lon="9.02813">
        <ele>2057.84</ele>
        <time>2015-06-22T08:19:37Z</time>
      </trkpt>
      <trkpt lat="42.20889" lon="9.02811">
        <ele>2055.92</ele>
        <time>2015-06-22T08:19:48Z</time>
      </trkpt>
      <trkpt lat="42.20887" lon="9.02808">
        <ele>2054.96</ele>
        <time>2015-06-22T08:19:55Z</time>
      </trkpt>
      <trkpt lat="42.20879" lon="9.02808">
        <ele>2055.44</ele>
        <time>2015-06-22T08:20:08Z</time>
      </trkpt>
      <trkpt lat="42.20878" lon="9.02805">
        <ele>2055.92</ele>
        <time>2015-06-22T08:20:12Z</time>
      </trkpt>
      <trkpt lat="42.20869" lon="9.02798">
        <ele>2053.51</ele>
        <time>2015-06-22T08:20:27Z</time>
      </trkpt>
      <trkpt lat="42.20863" lon="9.02795">
        <ele>2053.99</ele>
        <time>2015-06-22T08:20:39Z</time>
      </trkpt>
      <trkpt lat="42.20858" lon="9.02796">
        <ele>2056.88</ele>
        <time>2015-06-22T08:20:52Z</time>
      </trkpt>
      <trkpt lat="42.20853" lon="9.02799">
        <ele>2058.8</ele>
        <time>2015-06-22T08:21:05Z</time>
      </trkpt>
      <trkpt lat="42.2085" lon="9.02805">
        <ele>2061.68</ele>
        <time>2015-06-22T08:21:21Z</time>
      </trkpt>
      <trkpt lat="42.20846" lon="9.02801">
        <ele>2061.68</ele>
        <time>2015-06-22T08:21:35Z</time>
      </trkpt>
      <trkpt lat="42.20843" lon="9.02799">
        <ele>2063.13</ele>
        <time>2015-06-22T08:21:50Z</time>
      </trkpt>
      <trkpt lat="42.20838" lon="9.02797">
        <ele>2063.61</ele>
        <time>2015-06-22T08:22:03Z</time>
      </trkpt>
      <trkpt lat="42.20836" lon="9.02792">
        <ele>2063.13</ele>
        <time>2015-06-22T08:22:14Z</time>
      </trkpt>
      <trkpt lat="42.20832" lon="9.02787">
        <ele>2062.17</ele>
        <time>2015-06-22T08:22:27Z</time>
      </trkpt>
      <trkpt lat="42.20827" lon="9.02788">
        <ele>2063.61</ele>
        <time>2015-06-22T08:22:40Z</time>
      </trkpt>
      <trkpt lat="42.20824" lon="9.02787">
        <ele>2065.05</ele>
        <time>2015-06-22T08:22:56Z</time>
      </trkpt>
      <trkpt lat="42.20822" lon="9.02785">
        <ele>2064.57</ele>
        <time>2015-06-22T08:23:11Z</time>
      </trkpt>
      <trkpt lat="42.20818" lon="9.02782">
        <ele>2065.05</ele>
        <time>2015-06-22T08:23:26Z</time>
      </trkpt>
      <trkpt lat="42.20814" lon="9.02781">
        <ele>2065.05</ele>
        <time>2015-06-22T08:23:43Z</time>
      </trkpt>
      <trkpt lat="42.20811" lon="9.02781">
        <ele>2065.05</ele>
        <time>2015-06-22T08:23:55Z</time>
      </trkpt>
      <trkpt lat="42.20807" lon="9.02779">
        <ele>2065.05</ele>
        <time>2015-06-22T08:24:12Z</time>
      </trkpt>
      <trkpt lat="42.20806" lon="9.02779">
        <ele>2064.57</ele>
        <time>2015-06-22T08:24:30Z</time>
      </trkpt>
      <trkpt lat="42.20805" lon="9.02775">
        <ele>2064.57</ele>
        <time>2015-06-22T08:24:45Z</time>
      </trkpt>
      <trkpt lat="42.20801" lon="9.02774">
        <ele>2064.57</ele>
        <time>2015-06-22T08:25:03Z</time>
      </trkpt>
      <trkpt lat="42.20799" lon="9.02772">
        <ele>2064.09</ele>
        <time>2015-06-22T08:25:21Z</time>
      </trkpt>
      <trkpt lat="42.20797" lon="9.02769">
        <ele>2063.13</ele>
        <time>2015-06-22T08:25:33Z</time>
      </trkpt>
      <trkpt lat="42.20789" lon="9.02765">
        <ele>2062.65</ele>
        <time>2015-06-22T08:25:47Z</time>
      </trkpt>
      <trkpt lat="42.20785" lon="9.02763">
        <ele>2062.65</ele>
        <time>2015-06-22T08:26:00Z</time>
      </trkpt>
      <trkpt lat="42.2078" lon="9.02763">
        <ele>2064.09</ele>
        <time>2015-06-22T08:26:11Z</time>
      </trkpt>
      <trkpt lat="42.20773" lon="9.02761">
        <ele>2064.57</ele>
        <time>2015-06-22T08:26:26Z</time>
      </trkpt>
      <trkpt lat="42.20766" lon="9.02763">
        <ele>2066.01</ele>
        <time>2015-06-22T08:26:42Z</time>
      </trkpt>
      <trkpt lat="42.20763" lon="9.02763">
        <ele>2066.97</ele>
        <time>2015-06-22T08:27:02Z</time>
      </trkpt>
      <trkpt lat="42.20763" lon="9.0276">
        <ele>2068.41</ele>
        <time>2015-06-22T08:27:19Z</time>
      </trkpt>
      <trkpt lat="42.20763" lon="9.02754">
        <ele>2069.86</ele>
        <time>2015-06-22T08:27:32Z</time>
      </trkpt>
      <trkpt lat="42.20753" lon="9.0275">
        <ele>2070.34</ele>
        <time>2015-06-22T08:27:49Z</time>
      </trkpt>
      <trkpt lat="42.2075" lon="9.0275">
        <ele>2069.86</ele>
        <time>2015-06-22T08:28:02Z</time>
      </trkpt>
      <trkpt lat="42.20746" lon="9.02748">
        <ele>2069.38</ele>
        <time>2015-06-22T08:28:18Z</time>
      </trkpt>
      <trkpt lat="42.20744" lon="9.02744">
        <ele>2068.89</ele>
        <time>2015-06-22T08:28:32Z</time>
      </trkpt>
      <trkpt lat="42.20742" lon="9.02744">
        <ele>2069.38</ele>
        <time>2015-06-22T08:28:51Z</time>
      </trkpt>
      <trkpt lat="42.2074" lon="9.02743">
        <ele>2069.38</ele>
        <time>2015-06-22T08:29:11Z</time>
      </trkpt>
      <trkpt lat="42.20737" lon="9.0274">
        <ele>2069.86</ele>
        <time>2015-06-22T08:29:37Z</time>
      </trkpt>
      <trkpt lat="42.20738" lon="9.0274">
        <ele>2068.89</ele>
        <time>2015-06-22T08:30:00Z</time>
      </trkpt>
      <trkpt lat="42.20736" lon="9.02733">
        <ele>2065.53</ele>
        <time>2015-06-22T08:30:13Z</time>
      </trkpt>
      <trkpt lat="42.20734" lon="9.02728">
        <ele>2064.57</ele>
        <time>2015-06-22T08:30:27Z</time>
      </trkpt>
      <trkpt lat="42.20734" lon="9.02723">
        <ele>2063.13</ele>
        <time>2015-06-22T08:30:42Z</time>
      </trkpt>
      <trkpt lat="42.20731" lon="9.02716">
        <ele>2064.09</ele>
        <time>2015-06-22T08:30:55Z</time>
      </trkpt>
      <trkpt lat="42.20729" lon="9.02712">
        <ele>2066.49</ele>
        <time>2015-06-22T08:31:11Z</time>
      </trkpt>
      <trkpt lat="42.20726" lon="9.02703">
        <ele>2067.93</ele>
        <time>2015-06-22T08:31:25Z</time>
      </trkpt>
      <trkpt lat="42.20723" lon="9.027">
        <ele>2068.41</ele>
        <time>2015-06-22T08:31:36Z</time>
      </trkpt>
      <trkpt lat="42.2072" lon="9.02692">
        <ele>2066.97</ele>
        <time>2015-06-22T08:31:51Z</time>
      </trkpt>
      <trkpt lat="42.20718" lon="9.02685">
        <ele>2066.49</ele>
        <time>2015-06-22T08:32:04Z</time>
      </trkpt>
      <trkpt lat="42.20713" lon="9.02681">
        <ele>2066.97</ele>
        <time>2015-06-22T08:32:18Z</time>
      </trkpt>
      <trkpt lat="42.20711" lon="9.02678">
        <ele>2066.97</ele>
        <time>2015-06-22T08:32:30Z</time>
      </trkpt>
      <trkpt lat="42.20712" lon="9.02674">
        <ele>2065.05</ele>
        <time>2015-06-22T08:32:43Z</time>
      </trkpt>
      <trkpt lat="42.2071" lon="9.02671">
        <ele>2064.09</ele>
        <time>2015-06-22T08:33:00Z</time>
      </trkpt>
      <trkpt lat="42.20709" lon="9.02668">
        <ele>2063.13</ele>
        <time>2015-06-22T08:33:14Z</time>
      </trkpt>
      <trkpt lat="42.20707" lon="9.02666">
        <ele>2062.65</ele>
        <time>2015-06-22T08:33:28Z</time>
      </trkpt>
      <trkpt lat="42.20705" lon="9.02664">
        <ele>2061.68</ele>
        <time>2015-06-22T08:33:43Z</time>
      </trkpt>
      <trkpt lat="42.20704" lon="9.02657">
        <ele>2059.76</ele>
        <time>2015-06-22T08:33:56Z</time>
      </trkpt>
      <trkpt lat="42.20693" lon="9.02652">
        <ele>2061.2</ele>
        <time>2015-06-22T08:34:11Z</time>
      </trkpt>
      <trkpt lat="42.20688" lon="9.02649">
        <ele>2061.68</ele>
        <time>2015-06-22T08:34:24Z</time>
      </trkpt>
      <trkpt lat="42.20685" lon="9.02641">
        <ele>2059.28</ele>
        <time>2015-06-22T08:34:39Z</time>
      </trkpt>
      <trkpt lat="42.20686" lon="9.02633">
        <ele>2057.36</ele>
        <time>2015-06-22T08:34:54Z</time>
      </trkpt>
      <trkpt lat="42.20686" lon="9.02628">
        <ele>2055.44</ele>
        <time>2015-06-22T08:35:07Z</time>
      </trkpt>
      <trkpt lat="42.2069" lon="9.02623">
        <ele>2053.03</ele>
        <time>2015-06-22T08:35:21Z</time>
      </trkpt>
      <trkpt lat="42.20687" lon="9.02613">
        <ele>2052.55</ele>
        <time>2015-06-22T08:35:36Z</time>
      </trkpt>
      <trkpt lat="42.20685" lon="9.02606">
        <ele>2053.03</ele>
        <time>2015-06-22T08:35:51Z</time>
      </trkpt>
      <trkpt lat="42.20685" lon="9.026">
        <ele>2051.11</ele>
        <time>2015-06-22T08:36:05Z</time>
      </trkpt>
      <trkpt lat="42.20677" lon="9.02591">
        <ele>2051.11</ele>
        <time>2015-06-22T08:36:18Z</time>
      </trkpt>
      <trkpt lat="42.20671" lon="9.02584">
        <ele>2050.15</ele>
        <time>2015-06-22T08:36:32Z</time>
      </trkpt>
      <trkpt lat="42.20666" lon="9.02579">
        <ele>2051.11</ele>
        <time>2015-06-22T08:36:48Z</time>
      </trkpt>
      <trkpt lat="42.20663" lon="9.02575">
        <ele>2051.11</ele>
        <time>2015-06-22T08:37:04Z</time>
      </trkpt>
      <trkpt lat="42.20658" lon="9.02564">
        <ele>2052.07</ele>
        <time>2015-06-22T08:37:16Z</time>
      </trkpt>
      <trkpt lat="42.20651" lon="9.02558">
        <ele>2053.99</ele>
        <time>2015-06-22T08:37:30Z</time>
      </trkpt>
      <trkpt lat="42.20647" lon="9.02558">
        <ele>2054.96</ele>
        <time>2015-06-22T08:37:35Z</time>
      </trkpt>
      <trkpt lat="42.20636" lon="9.02558">
        <ele>2053.99</ele>
        <time>2015-06-22T08:37:49Z</time>
      </trkpt>
      <trkpt lat="42.20635" lon="9.02558">
        <ele>2053.99</ele>
        <time>2015-06-22T08:37:50Z</time>
      </trkpt>
      <trkpt lat="42.2063" lon="9.0256">
        <ele>2053.03</ele>
        <time>2015-06-22T08:37:57Z</time>
      </trkpt>
      <trkpt lat="42.20627" lon="9.0256">
        <ele>2052.55</ele>
        <time>2015-06-22T08:38:01Z</time>
      </trkpt>
      <trkpt lat="42.20616" lon="9.02563">
        <ele>2053.99</ele>
        <time>2015-06-22T08:38:17Z</time>
      </trkpt>
      <trkpt lat="42.20611" lon="9.02562">
        <ele>2054.96</ele>
        <time>2015-06-22T08:38:25Z</time>
      </trkpt>
      <trkpt lat="42.20598" lon="9.02563">
        <ele>2054.96</ele>
        <time>2015-06-22T08:38:43Z</time>
      </trkpt>
      <trkpt lat="42.20597" lon="9.02563">
        <ele>2055.44</ele>
        <time>2015-06-22T08:38:45Z</time>
      </trkpt>
      <trkpt lat="42.20593" lon="9.02561">
        <ele>2055.44</ele>
        <time>2015-06-22T08:38:50Z</time>
      </trkpt>
      <trkpt lat="42.20584" lon="9.02559">
        <ele>2057.36</ele>
        <time>2015-06-22T08:39:04Z</time>
      </trkpt>
      <trkpt lat="42.20577" lon="9.02556">
        <ele>2055.92</ele>
        <time>2015-06-22T08:39:18Z</time>
      </trkpt>
      <trkpt lat="42.2057" lon="9.02549">
        <ele>2053.99</ele>
        <time>2015-06-22T08:39:35Z</time>
      </trkpt>
      <trkpt lat="42.20562" lon="9.02543">
        <ele>2054.47</ele>
        <time>2015-06-22T08:39:50Z</time>
      </trkpt>
      <trkpt lat="42.20552" lon="9.02539">
        <ele>2054.96</ele>
        <time>2015-06-22T08:40:05Z</time>
      </trkpt>
      <trkpt lat="42.20543" lon="9.02532">
        <ele>2053.99</ele>
        <time>2015-06-22T08:40:19Z</time>
      </trkpt>
      <trkpt lat="42.20542" lon="9.0253">
        <ele>2053.51</ele>
        <time>2015-06-22T08:40:21Z</time>
      </trkpt>
      <trkpt lat="42.20532" lon="9.02522">
        <ele>2053.03</ele>
        <time>2015-06-22T08:40:35Z</time>
      </trkpt>
      <trkpt lat="42.20525" lon="9.02517">
        <ele>2051.59</ele>
        <time>2015-06-22T08:40:48Z</time>
      </trkpt>
      <trkpt lat="42.20525" lon="9.02516">
        <ele>2052.07</ele>
        <time>2015-06-22T08:40:51Z</time>
      </trkpt>
      <trkpt lat="42.20517" lon="9.02509">
        <ele>2055.44</ele>
        <time>2015-06-22T08:41:07Z</time>
      </trkpt>
      <trkpt lat="42.20509" lon="9.02502">
        <ele>2057.36</ele>
        <time>2015-06-22T08:41:23Z</time>
      </trkpt>
      <trkpt lat="42.20506" lon="9.02499">
        <ele>2057.36</ele>
        <time>2015-06-22T08:41:29Z</time>
      </trkpt>
      <trkpt lat="42.205" lon="9.02489">
        <ele>2056.88</ele>
        <time>2015-06-22T08:41:39Z</time>
      </trkpt>
      <trkpt lat="42.20491" lon="9.02481">
        <ele>2057.84</ele>
        <time>2015-06-22T08:41:52Z</time>
      </trkpt>
      <trkpt lat="42.20481" lon="9.02472">
        <ele>2059.76</ele>
        <time>2015-06-22T08:42:10Z</time>
      </trkpt>
      <trkpt lat="42.20471" lon="9.02468">
        <ele>2061.2</ele>
        <time>2015-06-22T08:42:25Z</time>
      </trkpt>
      <trkpt lat="42.20464" lon="9.02467">
        <ele>2060.72</ele>
        <time>2015-06-22T08:42:37Z</time>
      </trkpt>
      <trkpt lat="42.20456" lon="9.02463">
        <ele>2060.24</ele>
        <time>2015-06-22T08:42:50Z</time>
      </trkpt>
      <trkpt lat="42.20452" lon="9.02452">
        <ele>2058.32</ele>
        <time>2015-06-22T08:43:03Z</time>
      </trkpt>
      <trkpt lat="42.20444" lon="9.0244">
        <ele>2057.84</ele>
        <time>2015-06-22T08:43:17Z</time>
      </trkpt>
      <trkpt lat="42.2044" lon="9.0243">
        <ele>2055.44</ele>
        <time>2015-06-22T08:43:31Z</time>
      </trkpt>
      <trkpt lat="42.20438" lon="9.02428">
        <ele>2054.96</ele>
        <time>2015-06-22T08:43:34Z</time>
      </trkpt>
      <trkpt lat="42.20428" lon="9.02416">
        <ele>2053.99</ele>
        <time>2015-06-22T08:43:51Z</time>
      </trkpt>
      <trkpt lat="42.20427" lon="9.02414">
        <ele>2053.99</ele>
        <time>2015-06-22T08:43:53Z</time>
      </trkpt>
      <trkpt lat="42.20417" lon="9.024">
        <ele>2054.96</ele>
        <time>2015-06-22T08:44:09Z</time>
      </trkpt>
      <trkpt lat="42.20411" lon="9.0239">
        <ele>2054.47</ele>
        <time>2015-06-22T08:44:23Z</time>
      </trkpt>
      <trkpt lat="42.20407" lon="9.02382">
        <ele>2053.03</ele>
        <time>2015-06-22T08:44:36Z</time>
      </trkpt>
      <trkpt lat="42.20399" lon="9.02377">
        <ele>2051.59</ele>
        <time>2015-06-22T08:44:49Z</time>
      </trkpt>
      <trkpt lat="42.20394" lon="9.02372">
        <ele>2049.67</ele>
        <time>2015-06-22T08:45:01Z</time>
      </trkpt>
      <trkpt lat="42.20385" lon="9.02366">
        <ele>2047.75</ele>
        <time>2015-06-22T08:45:15Z</time>
      </trkpt>
      <trkpt lat="42.20379" lon="9.02363">
        <ele>2047.75</ele>
        <time>2015-06-22T08:45:29Z</time>
      </trkpt>
      <trkpt lat="42.20378" lon="9.0236">
        <ele>2049.19</ele>
        <time>2015-06-22T08:45:45Z</time>
      </trkpt>
      <trkpt lat="42.20373" lon="9.02358">
        <ele>2050.63</ele>
        <time>2015-06-22T08:46:01Z</time>
      </trkpt>
      <trkpt lat="42.20368" lon="9.02356">
        <ele>2051.11</ele>
        <time>2015-06-22T08:46:12Z</time>
      </trkpt>
      <trkpt lat="42.20363" lon="9.02353">
        <ele>2053.03</ele>
        <time>2015-06-22T08:46:28Z</time>
      </trkpt>
      <trkpt lat="42.20359" lon="9.0235">
        <ele>2055.92</ele>
        <time>2015-06-22T08:46:44Z</time>
      </trkpt>
      <trkpt lat="42.2036" lon="9.02341">
        <ele>2055.92</ele>
        <time>2015-06-22T08:47:00Z</time>
      </trkpt>
      <trkpt lat="42.2036" lon="9.02331">
        <ele>2053.51</ele>
        <time>2015-06-22T08:47:14Z</time>
      </trkpt>
      <trkpt lat="42.20359" lon="9.02326">
        <ele>2052.55</ele>
        <time>2015-06-22T08:47:28Z</time>
      </trkpt>
      <trkpt lat="42.20356" lon="9.0232">
        <ele>2051.11</ele>
        <time>2015-06-22T08:47:41Z</time>
      </trkpt>
      <trkpt lat="42.20351" lon="9.02315">
        <ele>2050.63</ele>
        <time>2015-06-22T08:47:52Z</time>
      </trkpt>
      <trkpt lat="42.20343" lon="9.02306">
        <ele>2051.59</ele>
        <time>2015-06-22T08:48:07Z</time>
      </trkpt>
      <trkpt lat="42.20339" lon="9.02298">
        <ele>2050.15</ele>
        <time>2015-06-22T08:48:21Z</time>
      </trkpt>
      <trkpt lat="42.20335" lon="9.02298">
        <ele>2050.15</ele>
        <time>2015-06-22T08:48:33Z</time>
      </trkpt>
      <trkpt lat="42.20335" lon="9.02297">
        <ele>2050.15</ele>
        <time>2015-06-22T08:48:49Z</time>
      </trkpt>
      <trkpt lat="42.20335" lon="9.02297">
        <ele>2049.67</ele>
        <time>2015-06-22T08:49:08Z</time>
      </trkpt>
      <trkpt lat="42.20336" lon="9.02297">
        <ele>2049.67</ele>
        <time>2015-06-22T08:49:30Z</time>
      </trkpt>
      <trkpt lat="42.20336" lon="9.02296">
        <ele>2050.15</ele>
        <time>2015-06-22T08:49:57Z</time>
      </trkpt>
      <trkpt lat="42.20335" lon="9.02297">
        <ele>2050.15</ele>
        <time>2015-06-22T08:50:15Z</time>
      </trkpt>
      <trkpt lat="42.20335" lon="9.02297">
        <ele>2050.63</ele>
        <time>2015-06-22T08:50:18Z</time>
      </trkpt>
      <trkpt lat="42.20336" lon="9.02298">
        <ele>2050.63</ele>
        <time>2015-06-22T08:50:28Z</time>
      </trkpt>
      <trkpt lat="42.20336" lon="9.02298">
        <ele>2050.15</ele>
        <time>2015-06-22T08:50:43Z</time>
      </trkpt>
      <trkpt lat="42.20335" lon="9.02298">
        <ele>2050.15</ele>
        <time>2015-06-22T08:50:59Z</time>
      </trkpt>
      <trkpt lat="42.20335" lon="9.02295">
        <ele>2050.15</ele>
        <time>2015-06-22T08:51:32Z</time>
      </trkpt>
      <trkpt lat="42.20337" lon="9.02297">
        <ele>2050.15</ele>
        <time>2015-06-22T08:51:59Z</time>
      </trkpt>
      <trkpt lat="42.20335" lon="9.02296">
        <ele>2050.15</ele>
        <time>2015-06-22T08:52:25Z</time>
      </trkpt>
      <trkpt lat="42.20335" lon="9.02297">
        <ele>2049.67</ele>
        <time>2015-06-22T08:52:47Z</time>
      </trkpt>
      <trkpt lat="42.20334" lon="9.023">
        <ele>2049.67</ele>
        <time>2015-06-22T08:53:01Z</time>
      </trkpt>
      <trkpt lat="42.20334" lon="9.02297">
        <ele>2049.67</ele>
        <time>2015-06-22T08:53:19Z</time>
      </trkpt>
      <trkpt lat="42.20334" lon="9.02295">
        <ele>2048.71</ele>
        <time>2015-06-22T08:53:57Z</time>
      </trkpt>
      <trkpt lat="42.20334" lon="9.02295">
        <ele>2048.71</ele>
        <time>2015-06-22T08:54:11Z</time>
      </trkpt>
      <trkpt lat="42.20335" lon="9.023">
        <ele>2049.67</ele>
        <time>2015-06-22T08:54:25Z</time>
      </trkpt>
      <trkpt lat="42.20333" lon="9.02301">
        <ele>2049.67</ele>
        <time>2015-06-22T08:54:48Z</time>
      </trkpt>
      <trkpt lat="42.20331" lon="9.02303">
        <ele>2049.19</ele>
        <time>2015-06-22T08:54:59Z</time>
      </trkpt>
      <trkpt lat="42.20332" lon="9.02302">
        <ele>2049.19</ele>
        <time>2015-06-22T08:55:23Z</time>
      </trkpt>
      <trkpt lat="42.2033" lon="9.02303">
        <ele>2049.19</ele>
        <time>2015-06-22T08:55:55Z</time>
      </trkpt>
      <trkpt lat="42.20331" lon="9.023">
        <ele>2048.71</ele>
        <time>2015-06-22T08:56:25Z</time>
      </trkpt>
      <trkpt lat="42.20331" lon="9.02301">
        <ele>2048.71</ele>
        <time>2015-06-22T08:56:53Z</time>
      </trkpt>
      <trkpt lat="42.20333" lon="9.02299">
        <ele>2048.23</ele>
        <time>2015-06-22T08:57:16Z</time>
      </trkpt>
      <trkpt lat="42.20335" lon="9.02297">
        <ele>2048.71</ele>
        <time>2015-06-22T08:57:34Z</time>
      </trkpt>
      <trkpt lat="42.20335" lon="9.02299">
        <ele>2048.71</ele>
        <time>2015-06-22T08:57:51Z</time>
      </trkpt>
      <trkpt lat="42.20337" lon="9.02298">
        <ele>2049.19</ele>
        <time>2015-06-22T08:58:09Z</time>
      </trkpt>
      <trkpt lat="42.20342" lon="9.02296">
        <ele>2048.71</ele>
        <time>2015-06-22T08:58:14Z</time>
      </trkpt>
      <trkpt lat="42.20348" lon="9.02297">
        <ele>2047.26</ele>
        <time>2015-06-22T08:58:23Z</time>
      </trkpt>
      <trkpt lat="42.20346" lon="9.02287">
        <ele>2044.86</ele>
        <time>2015-06-22T08:58:37Z</time>
      </trkpt>
      <trkpt lat="42.2035" lon="9.02281">
        <ele>2043.9</ele>
        <time>2015-06-22T08:58:47Z</time>
      </trkpt>
      <trkpt lat="42.20352" lon="9.02266">
        <ele>2040.54</ele>
        <time>2015-06-22T08:59:00Z</time>
      </trkpt>
      <trkpt lat="42.20351" lon="9.02253">
        <ele>2037.17</ele>
        <time>2015-06-22T08:59:13Z</time>
      </trkpt>
      <trkpt lat="42.20349" lon="9.02236">
        <ele>2034.29</ele>
        <time>2015-06-22T08:59:31Z</time>
      </trkpt>
      <trkpt lat="42.20353" lon="9.02224">
        <ele>2032.36</ele>
        <time>2015-06-22T08:59:45Z</time>
      </trkpt>
      <trkpt lat="42.20358" lon="9.02213">
        <ele>2030.92</ele>
        <time>2015-06-22T09:00:01Z</time>
      </trkpt>
      <trkpt lat="42.2036" lon="9.02208">
        <ele>2029.96</ele>
        <time>2015-06-22T09:00:17Z</time>
      </trkpt>
      <trkpt lat="42.20359" lon="9.02204">
        <ele>2029.96</ele>
        <time>2015-06-22T09:00:33Z</time>
      </trkpt>
      <trkpt lat="42.20361" lon="9.022">
        <ele>2029</ele>
        <time>2015-06-22T09:00:48Z</time>
      </trkpt>
      <trkpt lat="42.20365" lon="9.02198">
        <ele>2028.04</ele>
        <time>2015-06-22T09:01:02Z</time>
      </trkpt>
      <trkpt lat="42.20369" lon="9.022">
        <ele>2026.12</ele>
        <time>2015-06-22T09:01:13Z</time>
      </trkpt>
      <trkpt lat="42.2037" lon="9.02189">
        <ele>2024.67</ele>
        <time>2015-06-22T09:01:28Z</time>
      </trkpt>
      <trkpt lat="42.20372" lon="9.02179">
        <ele>2024.67</ele>
        <time>2015-06-22T09:01:43Z</time>
      </trkpt>
      <trkpt lat="42.20374" lon="9.02173">
        <ele>2025.15</ele>
        <time>2015-06-22T09:01:56Z</time>
      </trkpt>
      <trkpt lat="42.20376" lon="9.02162">
        <ele>2025.64</ele>
        <time>2015-06-22T09:02:10Z</time>
      </trkpt>
      <trkpt lat="42.20376" lon="9.0215">
        <ele>2026.6</ele>
        <time>2015-06-22T09:02:23Z</time>
      </trkpt>
      <trkpt lat="42.20379" lon="9.02138">
        <ele>2026.12</ele>
        <time>2015-06-22T09:02:37Z</time>
      </trkpt>
      <trkpt lat="42.20383" lon="9.02135">
        <ele>2025.15</ele>
        <time>2015-06-22T09:02:45Z</time>
      </trkpt>
      <trkpt lat="42.20388" lon="9.02123">
        <ele>2027.08</ele>
        <time>2015-06-22T09:03:00Z</time>
      </trkpt>
      <trkpt lat="42.20387" lon="9.02116">
        <ele>2029.96</ele>
        <time>2015-06-22T09:03:15Z</time>
      </trkpt>
      <trkpt lat="42.20386" lon="9.02108">
        <ele>2030.92</ele>
        <time>2015-06-22T09:03:26Z</time>
      </trkpt>
      <trkpt lat="42.20384" lon="9.02105">
        <ele>2031.88</ele>
        <time>2015-06-22T09:03:45Z</time>
      </trkpt>
      <trkpt lat="42.20384" lon="9.02101">
        <ele>2032.36</ele>
        <time>2015-06-22T09:04:00Z</time>
      </trkpt>
      <trkpt lat="42.20384" lon="9.02101">
        <ele>2030.92</ele>
        <time>2015-06-22T09:04:22Z</time>
      </trkpt>
      <trkpt lat="42.20385" lon="9.02099">
        <ele>2031.4</ele>
        <time>2015-06-22T09:04:37Z</time>
      </trkpt>
      <trkpt lat="42.20389" lon="9.02085">
        <ele>2029.96</ele>
        <time>2015-06-22T09:04:52Z</time>
      </trkpt>
      <trkpt lat="42.20391" lon="9.02074">
        <ele>2029.48</ele>
        <time>2015-06-22T09:05:02Z</time>
      </trkpt>
      <trkpt lat="42.20392" lon="9.02064">
        <ele>2029.48</ele>
        <time>2015-06-22T09:05:11Z</time>
      </trkpt>
      <trkpt lat="42.20399" lon="9.02052">
        <ele>2029.48</ele>
        <time>2015-06-22T09:05:28Z</time>
      </trkpt>
      <trkpt lat="42.204" lon="9.0205">
        <ele>2029.48</ele>
        <time>2015-06-22T09:05:36Z</time>
      </trkpt>
      <trkpt lat="42.20401" lon="9.0204">
        <ele>2028.52</ele>
        <time>2015-06-22T09:05:48Z</time>
      </trkpt>
      <trkpt lat="42.20406" lon="9.02035">
        <ele>2030.92</ele>
        <time>2015-06-22T09:06:04Z</time>
      </trkpt>
      <trkpt lat="42.20407" lon="9.02029">
        <ele>2031.88</ele>
        <time>2015-06-22T09:06:18Z</time>
      </trkpt>
      <trkpt lat="42.2041" lon="9.02019">
        <ele>2031.88</ele>
        <time>2015-06-22T09:06:32Z</time>
      </trkpt>
      <trkpt lat="42.20413" lon="9.02009">
        <ele>2031.88</ele>
        <time>2015-06-22T09:06:45Z</time>
      </trkpt>
      <trkpt lat="42.20417" lon="9.02003">
        <ele>2034.29</ele>
        <time>2015-06-22T09:06:58Z</time>
      </trkpt>
      <trkpt lat="42.20419" lon="9.01997">
        <ele>2034.77</ele>
        <time>2015-06-22T09:07:09Z</time>
      </trkpt>
      <trkpt lat="42.20423" lon="9.01983">
        <ele>2035.25</ele>
        <time>2015-06-22T09:07:25Z</time>
      </trkpt>
      <trkpt lat="42.20427" lon="9.01972">
        <ele>2036.21</ele>
        <time>2015-06-22T09:07:39Z</time>
      </trkpt>
      <trkpt lat="42.20432" lon="9.01965">
        <ele>2038.61</ele>
        <time>2015-06-22T09:07:52Z</time>
      </trkpt>
      <trkpt lat="42.20438" lon="9.01954">
        <ele>2041.02</ele>
        <time>2015-06-22T09:08:07Z</time>
      </trkpt>
      <trkpt lat="42.2044" lon="9.01941">
        <ele>2041.98</ele>
        <time>2015-06-22T09:08:23Z</time>
      </trkpt>
      <trkpt lat="42.20446" lon="9.01934">
        <ele>2044.38</ele>
        <time>2015-06-22T09:08:35Z</time>
      </trkpt>
      <trkpt lat="42.20448" lon="9.01922">
        <ele>2043.42</ele>
        <time>2015-06-22T09:08:45Z</time>
      </trkpt>
      <trkpt lat="42.20451" lon="9.01903">
        <ele>2043.42</ele>
        <time>2015-06-22T09:08:59Z</time>
      </trkpt>
      <trkpt lat="42.20452" lon="9.01899">
        <ele>2042.94</ele>
        <time>2015-06-22T09:09:03Z</time>
      </trkpt>
      <trkpt lat="42.20457" lon="9.01881">
        <ele>2042.46</ele>
        <time>2015-06-22T09:09:20Z</time>
      </trkpt>
      <trkpt lat="42.2046" lon="9.01865">
        <ele>2042.46</ele>
        <time>2015-06-22T09:09:34Z</time>
      </trkpt>
      <trkpt lat="42.20462" lon="9.0186">
        <ele>2043.42</ele>
        <time>2015-06-22T09:09:46Z</time>
      </trkpt>
      <trkpt lat="42.20468" lon="9.01848">
        <ele>2042.94</ele>
        <time>2015-06-22T09:10:02Z</time>
      </trkpt>
      <trkpt lat="42.20474" lon="9.01833">
        <ele>2043.42</ele>
        <time>2015-06-22T09:10:16Z</time>
      </trkpt>
      <trkpt lat="42.20476" lon="9.01827">
        <ele>2043.42</ele>
        <time>2015-06-22T09:10:21Z</time>
      </trkpt>
      <trkpt lat="42.20485" lon="9.01825">
        <ele>2042.94</ele>
        <time>2015-06-22T09:10:30Z</time>
      </trkpt>
      <trkpt lat="42.2049" lon="9.01814">
        <ele>2041.98</ele>
        <time>2015-06-22T09:10:39Z</time>
      </trkpt>
      <trkpt lat="42.20491" lon="9.01809">
        <ele>2041.5</ele>
        <time>2015-06-22T09:10:43Z</time>
      </trkpt>
      <trkpt lat="42.20501" lon="9.0179">
        <ele>2039.57</ele>
        <time>2015-06-22T09:11:00Z</time>
      </trkpt>
      <trkpt lat="42.20508" lon="9.01782">
        <ele>2041.02</ele>
        <time>2015-06-22T09:11:10Z</time>
      </trkpt>
      <trkpt lat="42.20512" lon="9.01774">
        <ele>2040.05</ele>
        <time>2015-06-22T09:11:22Z</time>
      </trkpt>
      <trkpt lat="42.20514" lon="9.0177">
        <ele>2039.09</ele>
        <time>2015-06-22T09:11:30Z</time>
      </trkpt>
      <trkpt lat="42.20518" lon="9.01762">
        <ele>2037.65</ele>
        <time>2015-06-22T09:11:38Z</time>
      </trkpt>
      <trkpt lat="42.20522" lon="9.0176">
        <ele>2038.13</ele>
        <time>2015-06-22T09:11:43Z</time>
      </trkpt>
      <trkpt lat="42.20527" lon="9.01751">
        <ele>2038.61</ele>
        <time>2015-06-22T09:12:00Z</time>
      </trkpt>
      <trkpt lat="42.20533" lon="9.01745">
        <ele>2038.61</ele>
        <time>2015-06-22T09:12:13Z</time>
      </trkpt>
      <trkpt lat="42.20536" lon="9.01742">
        <ele>2039.09</ele>
        <time>2015-06-22T09:12:19Z</time>
      </trkpt>
      <trkpt lat="42.20542" lon="9.01737">
        <ele>2039.57</ele>
        <time>2015-06-22T09:12:29Z</time>
      </trkpt>
      <trkpt lat="42.20547" lon="9.01725">
        <ele>2038.13</ele>
        <time>2015-06-22T09:12:42Z</time>
      </trkpt>
      <trkpt lat="42.20547" lon="9.01724">
        <ele>2037.65</ele>
        <time>2015-06-22T09:12:43Z</time>
      </trkpt>
      <trkpt lat="42.20558" lon="9.01707">
        <ele>2037.17</ele>
        <time>2015-06-22T09:12:59Z</time>
      </trkpt>
      <trkpt lat="42.20564" lon="9.01691">
        <ele>2037.17</ele>
        <time>2015-06-22T09:13:13Z</time>
      </trkpt>
      <trkpt lat="42.20566" lon="9.01685">
        <ele>2037.65</ele>
        <time>2015-06-22T09:13:18Z</time>
      </trkpt>
      <trkpt lat="42.20575" lon="9.01674">
        <ele>2036.69</ele>
        <time>2015-06-22T09:13:33Z</time>
      </trkpt>
      <trkpt lat="42.20577" lon="9.01671">
        <ele>2035.73</ele>
        <time>2015-06-22T09:13:39Z</time>
      </trkpt>
      <trkpt lat="42.20581" lon="9.01667">
        <ele>2035.73</ele>
        <time>2015-06-22T09:13:48Z</time>
      </trkpt>
      <trkpt lat="42.20591" lon="9.01659">
        <ele>2037.17</ele>
        <time>2015-06-22T09:14:01Z</time>
      </trkpt>
      <trkpt lat="42.20594" lon="9.01649">
        <ele>2037.65</ele>
        <time>2015-06-22T09:14:15Z</time>
      </trkpt>
      <trkpt lat="42.20599" lon="9.01643">
        <ele>2040.05</ele>
        <time>2015-06-22T09:14:29Z</time>
      </trkpt>
      <trkpt lat="42.20602" lon="9.01642">
        <ele>2040.54</ele>
        <time>2015-06-22T09:14:41Z</time>
      </trkpt>
      <trkpt lat="42.20603" lon="9.01636">
        <ele>2040.05</ele>
        <time>2015-06-22T09:14:48Z</time>
      </trkpt>
      <trkpt lat="42.20605" lon="9.01634">
        <ele>2040.54</ele>
        <time>2015-06-22T09:14:50Z</time>
      </trkpt>
      <trkpt lat="42.20612" lon="9.0162">
        <ele>2040.54</ele>
        <time>2015-06-22T09:15:04Z</time>
      </trkpt>
      <trkpt lat="42.20612" lon="9.01611">
        <ele>2041.5</ele>
        <time>2015-06-22T09:15:19Z</time>
      </trkpt>
      <trkpt lat="42.20612" lon="9.01599">
        <ele>2043.9</ele>
        <time>2015-06-22T09:15:35Z</time>
      </trkpt>
      <trkpt lat="42.20613" lon="9.01594">
        <ele>2044.86</ele>
        <time>2015-06-22T09:15:48Z</time>
      </trkpt>
      <trkpt lat="42.20615" lon="9.01596">
        <ele>2044.38</ele>
        <time>2015-06-22T09:16:15Z</time>
      </trkpt>
      <trkpt lat="42.20612" lon="9.01594">
        <ele>2044.86</ele>
        <time>2015-06-22T09:16:45Z</time>
      </trkpt>
      <trkpt lat="42.20618" lon="9.01592">
        <ele>2043.42</ele>
        <time>2015-06-22T09:17:09Z</time>
      </trkpt>
      <trkpt lat="42.20625" lon="9.01586">
        <ele>2043.42</ele>
        <time>2015-06-22T09:17:17Z</time>
      </trkpt>
      <trkpt lat="42.2063" lon="9.01577">
        <ele>2041.98</ele>
        <time>2015-06-22T09:17:28Z</time>
      </trkpt>
      <trkpt lat="42.20631" lon="9.01575">
        <ele>2041.5</ele>
        <time>2015-06-22T09:17:30Z</time>
      </trkpt>
      <trkpt lat="42.20635" lon="9.01565">
        <ele>2042.46</ele>
        <time>2015-06-22T09:17:41Z</time>
      </trkpt>
      <trkpt lat="42.20639" lon="9.01549">
        <ele>2042.94</ele>
        <time>2015-06-22T09:17:55Z</time>
      </trkpt>
      <trkpt lat="42.20638" lon="9.01534">
        <ele>2043.42</ele>
        <time>2015-06-22T09:18:11Z</time>
      </trkpt>
      <trkpt lat="42.20639" lon="9.0153">
        <ele>2042.94</ele>
        <time>2015-06-22T09:18:16Z</time>
      </trkpt>
      <trkpt lat="42.20649" lon="9.01522">
        <ele>2042.94</ele>
        <time>2015-06-22T09:18:30Z</time>
      </trkpt>
      <trkpt lat="42.20656" lon="9.01517">
        <ele>2041.98</ele>
        <time>2015-06-22T09:18:45Z</time>
      </trkpt>
      <trkpt lat="42.20662" lon="9.0151">
        <ele>2042.94</ele>
        <time>2015-06-22T09:18:58Z</time>
      </trkpt>
      <trkpt lat="42.20668" lon="9.01506">
        <ele>2045.82</ele>
        <time>2015-06-22T09:19:13Z</time>
      </trkpt>
      <trkpt lat="42.20675" lon="9.01498">
        <ele>2046.3</ele>
        <time>2015-06-22T09:19:29Z</time>
      </trkpt>
      <trkpt lat="42.20678" lon="9.01495">
        <ele>2047.26</ele>
        <time>2015-06-22T09:19:35Z</time>
      </trkpt>
      <trkpt lat="42.20684" lon="9.01487">
        <ele>2048.23</ele>
        <time>2015-06-22T09:19:50Z</time>
      </trkpt>
      <trkpt lat="42.20689" lon="9.01477">
        <ele>2048.71</ele>
        <time>2015-06-22T09:20:05Z</time>
      </trkpt>
      <trkpt lat="42.20692" lon="9.01469">
        <ele>2048.23</ele>
        <time>2015-06-22T09:20:20Z</time>
      </trkpt>
      <trkpt lat="42.20694" lon="9.01467">
        <ele>2048.23</ele>
        <time>2015-06-22T09:20:28Z</time>
      </trkpt>
      <trkpt lat="42.207" lon="9.01457">
        <ele>2049.67</ele>
        <time>2015-06-22T09:20:41Z</time>
      </trkpt>
      <trkpt lat="42.20705" lon="9.01448">
        <ele>2050.15</ele>
        <time>2015-06-22T09:20:55Z</time>
      </trkpt>
      <trkpt lat="42.20706" lon="9.01446">
        <ele>2050.15</ele>
        <time>2015-06-22T09:20:57Z</time>
      </trkpt>
      <trkpt lat="42.2071" lon="9.01438">
        <ele>2050.63</ele>
        <time>2015-06-22T09:21:11Z</time>
      </trkpt>
      <trkpt lat="42.20711" lon="9.0143">
        <ele>2049.19</ele>
        <time>2015-06-22T09:21:23Z</time>
      </trkpt>
      <trkpt lat="42.20714" lon="9.01428">
        <ele>2049.19</ele>
        <time>2015-06-22T09:21:38Z</time>
      </trkpt>
      <trkpt lat="42.20716" lon="9.01425">
        <ele>2048.71</ele>
        <time>2015-06-22T09:21:53Z</time>
      </trkpt>
      <trkpt lat="42.20718" lon="9.01422">
        <ele>2050.15</ele>
        <time>2015-06-22T09:22:15Z</time>
      </trkpt>
      <trkpt lat="42.20718" lon="9.01419">
        <ele>2050.63</ele>
        <time>2015-06-22T09:22:29Z</time>
      </trkpt>
      <trkpt lat="42.2072" lon="9.01414">
        <ele>2048.71</ele>
        <time>2015-06-22T09:22:43Z</time>
      </trkpt>
      <trkpt lat="42.20724" lon="9.01412">
        <ele>2050.15</ele>
        <time>2015-06-22T09:23:00Z</time>
      </trkpt>
      <trkpt lat="42.20729" lon="9.0141">
        <ele>2052.07</ele>
        <time>2015-06-22T09:23:12Z</time>
      </trkpt>
      <trkpt lat="42.2073" lon="9.01409">
        <ele>2052.55</ele>
        <time>2015-06-22T09:23:14Z</time>
      </trkpt>
      <trkpt lat="42.20732" lon="9.01407">
        <ele>2053.03</ele>
        <time>2015-06-22T09:23:18Z</time>
      </trkpt>
      <trkpt lat="42.20739" lon="9.01397">
        <ele>2053.99</ele>
        <time>2015-06-22T09:23:31Z</time>
      </trkpt>
      <trkpt lat="42.2074" lon="9.0139">
        <ele>2053.99</ele>
        <time>2015-06-22T09:23:42Z</time>
      </trkpt>
      <trkpt lat="42.20743" lon="9.01383">
        <ele>2054.96</ele>
        <time>2015-06-22T09:23:55Z</time>
      </trkpt>
      <trkpt lat="42.20751" lon="9.01375">
        <ele>2056.88</ele>
        <time>2015-06-22T09:24:09Z</time>
      </trkpt>
      <trkpt lat="42.20753" lon="9.01368">
        <ele>2054.47</ele>
        <time>2015-06-22T09:24:24Z</time>
      </trkpt>
      <trkpt lat="42.2076" lon="9.01353">
        <ele>2053.99</ele>
        <time>2015-06-22T09:24:37Z</time>
      </trkpt>
      <trkpt lat="42.2076" lon="9.01353">
        <ele>2053.99</ele>
        <time>2015-06-22T09:24:38Z</time>
      </trkpt>
      <trkpt lat="42.20762" lon="9.01345">
        <ele>2053.51</ele>
        <time>2015-06-22T09:24:48Z</time>
      </trkpt>
      <trkpt lat="42.20762" lon="9.01343">
        <ele>2053.03</ele>
        <time>2015-06-22T09:24:50Z</time>
      </trkpt>
      <trkpt lat="42.20767" lon="9.0133">
        <ele>2052.55</ele>
        <time>2015-06-22T09:25:04Z</time>
      </trkpt>
      <trkpt lat="42.20774" lon="9.01315">
        <ele>2052.07</ele>
        <time>2015-06-22T09:25:18Z</time>
      </trkpt>
      <trkpt lat="42.20777" lon="9.013">
        <ele>2050.15</ele>
        <time>2015-06-22T09:25:33Z</time>
      </trkpt>
      <trkpt lat="42.20782" lon="9.01282">
        <ele>2051.11</ele>
        <time>2015-06-22T09:25:50Z</time>
      </trkpt>
      <trkpt lat="42.20783" lon="9.01278">
        <ele>2050.63</ele>
        <time>2015-06-22T09:25:55Z</time>
      </trkpt>
      <trkpt lat="42.2078" lon="9.01264">
        <ele>2050.15</ele>
        <time>2015-06-22T09:26:10Z</time>
      </trkpt>
      <trkpt lat="42.20784" lon="9.0126">
        <ele>2052.55</ele>
        <time>2015-06-22T09:26:25Z</time>
      </trkpt>
      <trkpt lat="42.20789" lon="9.01264">
        <ele>2054.47</ele>
        <time>2015-06-22T09:26:37Z</time>
      </trkpt>
      <trkpt lat="42.20789" lon="9.01263">
        <ele>2056.88</ele>
        <time>2015-06-22T09:26:50Z</time>
      </trkpt>
      <trkpt lat="42.2079" lon="9.01254">
        <ele>2058.8</ele>
        <time>2015-06-22T09:27:06Z</time>
      </trkpt>
      <trkpt lat="42.20791" lon="9.0125">
        <ele>2060.24</ele>
        <time>2015-06-22T09:27:19Z</time>
      </trkpt>
      <trkpt lat="42.20792" lon="9.01248">
        <ele>2062.17</ele>
        <time>2015-06-22T09:27:35Z</time>
      </trkpt>
      <trkpt lat="42.20792" lon="9.01249">
        <ele>2062.17</ele>
        <time>2015-06-22T09:27:55Z</time>
      </trkpt>
      <trkpt lat="42.20789" lon="9.01244">
        <ele>2061.2</ele>
        <time>2015-06-22T09:28:10Z</time>
      </trkpt>
      <trkpt lat="42.20789" lon="9.0123">
        <ele>2062.65</ele>
        <time>2015-06-22T09:28:25Z</time>
      </trkpt>
      <trkpt lat="42.20789" lon="9.01226">
        <ele>2064.57</ele>
        <time>2015-06-22T09:28:37Z</time>
      </trkpt>
      <trkpt lat="42.20786" lon="9.0122">
        <ele>2066.01</ele>
        <time>2015-06-22T09:28:51Z</time>
      </trkpt>
      <trkpt lat="42.20787" lon="9.01217">
        <ele>2066.01</ele>
        <time>2015-06-22T09:29:09Z</time>
      </trkpt>
      <trkpt lat="42.20785" lon="9.01211">
        <ele>2066.97</ele>
        <time>2015-06-22T09:29:24Z</time>
      </trkpt>
      <trkpt lat="42.20788" lon="9.01208">
        <ele>2069.86</ele>
        <time>2015-06-22T09:29:38Z</time>
      </trkpt>
      <trkpt lat="42.20788" lon="9.01204">
        <ele>2070.82</ele>
        <time>2015-06-22T09:29:54Z</time>
      </trkpt>
      <trkpt lat="42.20787" lon="9.01201">
        <ele>2071.78</ele>
        <time>2015-06-22T09:30:12Z</time>
      </trkpt>
      <trkpt lat="42.20791" lon="9.01197">
        <ele>2072.74</ele>
        <time>2015-06-22T09:30:30Z</time>
      </trkpt>
      <trkpt lat="42.20789" lon="9.01192">
        <ele>2073.7</ele>
        <time>2015-06-22T09:30:43Z</time>
      </trkpt>
      <trkpt lat="42.20787" lon="9.01181">
        <ele>2076.1</ele>
        <time>2015-06-22T09:30:58Z</time>
      </trkpt>
      <trkpt lat="42.20786" lon="9.01171">
        <ele>2076.59</ele>
        <time>2015-06-22T09:31:12Z</time>
      </trkpt>
      <trkpt lat="42.20791" lon="9.01159">
        <ele>2077.55</ele>
        <time>2015-06-22T09:31:26Z</time>
      </trkpt>
      <trkpt lat="42.20795" lon="9.01153">
        <ele>2078.51</ele>
        <time>2015-06-22T09:31:40Z</time>
      </trkpt>
      <trkpt lat="42.20795" lon="9.01141">
        <ele>2077.55</ele>
        <time>2015-06-22T09:31:57Z</time>
      </trkpt>
      <trkpt lat="42.20798" lon="9.01132">
        <ele>2079.47</ele>
        <time>2015-06-22T09:32:15Z</time>
      </trkpt>
      <trkpt lat="42.20801" lon="9.01126">
        <ele>2081.87</ele>
        <time>2015-06-22T09:32:31Z</time>
      </trkpt>
      <trkpt lat="42.20807" lon="9.01129">
        <ele>2083.79</ele>
        <time>2015-06-22T09:32:49Z</time>
      </trkpt>
      <trkpt lat="42.20809" lon="9.01124">
        <ele>2087.16</ele>
        <time>2015-06-22T09:33:08Z</time>
      </trkpt>
      <trkpt lat="42.20812" lon="9.01124">
        <ele>2088.6</ele>
        <time>2015-06-22T09:33:21Z</time>
      </trkpt>
      <trkpt lat="42.20811" lon="9.01119">
        <ele>2089.08</ele>
        <time>2015-06-22T09:33:36Z</time>
      </trkpt>
      <trkpt lat="42.20813" lon="9.01118">
        <ele>2090.52</ele>
        <time>2015-06-22T09:33:51Z</time>
      </trkpt>
      <trkpt lat="42.20816" lon="9.01115">
        <ele>2091.97</ele>
        <time>2015-06-22T09:34:04Z</time>
      </trkpt>
      <trkpt lat="42.20816" lon="9.01112">
        <ele>2092.93</ele>
        <time>2015-06-22T09:34:16Z</time>
      </trkpt>
      <trkpt lat="42.20818" lon="9.0111">
        <ele>2093.89</ele>
        <time>2015-06-22T09:34:30Z</time>
      </trkpt>
      <trkpt lat="42.20818" lon="9.01107">
        <ele>2095.81</ele>
        <time>2015-06-22T09:34:42Z</time>
      </trkpt>
      <trkpt lat="42.20819" lon="9.01102">
        <ele>2097.25</ele>
        <time>2015-06-22T09:34:57Z</time>
      </trkpt>
      <trkpt lat="42.20818" lon="9.01096">
        <ele>2098.7</ele>
        <time>2015-06-22T09:35:12Z</time>
      </trkpt>
      <trkpt lat="42.20815" lon="9.01091">
        <ele>2099.18</ele>
        <time>2015-06-22T09:35:30Z</time>
      </trkpt>
      <trkpt lat="42.20814" lon="9.01081">
        <ele>2099.18</ele>
        <time>2015-06-22T09:35:43Z</time>
      </trkpt>
      <trkpt lat="42.20815" lon="9.0107">
        <ele>2101.58</ele>
        <time>2015-06-22T09:35:58Z</time>
      </trkpt>
      <trkpt lat="42.20812" lon="9.01068">
        <ele>2101.58</ele>
        <time>2015-06-22T09:36:13Z</time>
      </trkpt>
      <trkpt lat="42.20815" lon="9.01064">
        <ele>2102.54</ele>
        <time>2015-06-22T09:36:26Z</time>
      </trkpt>
      <trkpt lat="42.20817" lon="9.01059">
        <ele>2104.46</ele>
        <time>2015-06-22T09:36:43Z</time>
      </trkpt>
      <trkpt lat="42.2082" lon="9.01056">
        <ele>2106.87</ele>
        <time>2015-06-22T09:36:58Z</time>
      </trkpt>
      <trkpt lat="42.2082" lon="9.01052">
        <ele>2109.27</ele>
        <time>2015-06-22T09:37:11Z</time>
      </trkpt>
      <trkpt lat="42.20821" lon="9.01048">
        <ele>2110.23</ele>
        <time>2015-06-22T09:37:25Z</time>
      </trkpt>
      <trkpt lat="42.2082" lon="9.01045">
        <ele>2112.15</ele>
        <time>2015-06-22T09:37:39Z</time>
      </trkpt>
      <trkpt lat="42.2082" lon="9.01041">
        <ele>2113.12</ele>
        <time>2015-06-22T09:37:55Z</time>
      </trkpt>
      <trkpt lat="42.20822" lon="9.01035">
        <ele>2115.04</ele>
        <time>2015-06-22T09:38:09Z</time>
      </trkpt>
      <trkpt lat="42.20827" lon="9.01037">
        <ele>2117.92</ele>
        <time>2015-06-22T09:38:23Z</time>
      </trkpt>
      <trkpt lat="42.20827" lon="9.01031">
        <ele>2118.88</ele>
        <time>2015-06-22T09:38:37Z</time>
      </trkpt>
      <trkpt lat="42.20828" lon="9.01022">
        <ele>2121.29</ele>
        <time>2015-06-22T09:38:47Z</time>
      </trkpt>
      <trkpt lat="42.20833" lon="9.01014">
        <ele>2122.25</ele>
        <time>2015-06-22T09:39:02Z</time>
      </trkpt>
      <trkpt lat="42.20833" lon="9.01004">
        <ele>2123.69</ele>
        <time>2015-06-22T09:39:18Z</time>
      </trkpt>
      <trkpt lat="42.20838" lon="9.00995">
        <ele>2126.57</ele>
        <time>2015-06-22T09:39:39Z</time>
      </trkpt>
      <trkpt lat="42.20842" lon="9.00992">
        <ele>2127.53</ele>
        <time>2015-06-22T09:39:54Z</time>
      </trkpt>
      <trkpt lat="42.20843" lon="9.00989">
        <ele>2128.5</ele>
        <time>2015-06-22T09:39:58Z</time>
      </trkpt>
      <trkpt lat="42.20844" lon="9.00992">
        <ele>2128.02</ele>
        <time>2015-06-22T09:40:12Z</time>
      </trkpt>
      <trkpt lat="42.20844" lon="9.00992">
        <ele>2128.02</ele>
        <time>2015-06-22T09:40:37Z</time>
      </trkpt>
      <trkpt lat="42.20842" lon="9.00995">
        <ele>2127.53</ele>
        <time>2015-06-22T09:40:59Z</time>
      </trkpt>
      <trkpt lat="42.20842" lon="9.00998">
        <ele>2128.02</ele>
        <time>2015-06-22T09:41:22Z</time>
      </trkpt>
      <trkpt lat="42.20842" lon="9.00998">
        <ele>2127.53</ele>
        <time>2015-06-22T09:41:50Z</time>
      </trkpt>
      <trkpt lat="42.20842" lon="9.00993">
        <ele>2127.53</ele>
        <time>2015-06-22T09:42:06Z</time>
      </trkpt>
      <trkpt lat="42.20842" lon="9.0099">
        <ele>2127.05</ele>
        <time>2015-06-22T09:42:26Z</time>
      </trkpt>
      <trkpt lat="42.20842" lon="9.00993">
        <ele>2128.02</ele>
        <time>2015-06-22T09:42:56Z</time>
      </trkpt>
      <trkpt lat="42.20843" lon="9.00993">
        <ele>2128.02</ele>
        <time>2015-06-22T09:43:17Z</time>
      </trkpt>
      <trkpt lat="42.20844" lon="9.00994">
        <ele>2127.53</ele>
        <time>2015-06-22T09:43:43Z</time>
      </trkpt>
      <trkpt lat="42.20842" lon="9.0099">
        <ele>2127.53</ele>
        <time>2015-06-22T09:44:12Z</time>
      </trkpt>
      <trkpt lat="42.20845" lon="9.00984">
        <ele>2128.98</ele>
        <time>2015-06-22T09:44:29Z</time>
      </trkpt>
      <trkpt lat="42.20849" lon="9.00977">
        <ele>2131.38</ele>
        <time>2015-06-22T09:44:46Z</time>
      </trkpt>
      <trkpt lat="42.20849" lon="9.00972">
        <ele>2132.34</ele>
        <time>2015-06-22T09:45:00Z</time>
      </trkpt>
      <trkpt lat="42.20851" lon="9.00966">
        <ele>2134.26</ele>
        <time>2015-06-22T09:45:18Z</time>
      </trkpt>
      <trkpt lat="42.20854" lon="9.00964">
        <ele>2134.26</ele>
        <time>2015-06-22T09:45:29Z</time>
      </trkpt>
      <trkpt lat="42.20857" lon="9.0096">
        <ele>2136.19</ele>
        <time>2015-06-22T09:45:44Z</time>
      </trkpt>
      <trkpt lat="42.2086" lon="9.00958">
        <ele>2138.59</ele>
        <time>2015-06-22T09:45:57Z</time>
      </trkpt>
      <trkpt lat="42.20863" lon="9.00953">
        <ele>2140.51</ele>
        <time>2015-06-22T09:46:12Z</time>
      </trkpt>
      <trkpt lat="42.20867" lon="9.0095">
        <ele>2142.44</ele>
        <time>2015-06-22T09:46:27Z</time>
      </trkpt>
      <trkpt lat="42.20874" lon="9.00944">
        <ele>2144.84</ele>
        <time>2015-06-22T09:46:41Z</time>
      </trkpt>
      <trkpt lat="42.20875" lon="9.00932">
        <ele>2143.88</ele>
        <time>2015-06-22T09:46:55Z</time>
      </trkpt>
      <trkpt lat="42.20881" lon="9.00921">
        <ele>2141.95</ele>
        <time>2015-06-22T09:47:10Z</time>
      </trkpt>
      <trkpt lat="42.20889" lon="9.00912">
        <ele>2140.99</ele>
        <time>2015-06-22T09:47:26Z</time>
      </trkpt>
      <trkpt lat="42.2089" lon="9.0091">
        <ele>2141.95</ele>
        <time>2015-06-22T09:47:30Z</time>
      </trkpt>
      <trkpt lat="42.20899" lon="9.00901">
        <ele>2142.92</ele>
        <time>2015-06-22T09:47:48Z</time>
      </trkpt>
      <trkpt lat="42.20902" lon="9.00894">
        <ele>2144.36</ele>
        <time>2015-06-22T09:48:04Z</time>
      </trkpt>
      <trkpt lat="42.20906" lon="9.00893">
        <ele>2145.32</ele>
        <time>2015-06-22T09:48:19Z</time>
      </trkpt>
      <trkpt lat="42.2091" lon="9.00892">
        <ele>2147.72</ele>
        <time>2015-06-22T09:48:34Z</time>
      </trkpt>
      <trkpt lat="42.20911" lon="9.00893">
        <ele>2147.72</ele>
        <time>2015-06-22T09:48:54Z</time>
      </trkpt>
      <trkpt lat="42.20917" lon="9.00894">
        <ele>2150.61</ele>
        <time>2015-06-22T09:49:10Z</time>
      </trkpt>
      <trkpt lat="42.20918" lon="9.00888">
        <ele>2152.05</ele>
        <time>2015-06-22T09:49:27Z</time>
      </trkpt>
      <trkpt lat="42.20917" lon="9.00885">
        <ele>2153.49</ele>
        <time>2015-06-22T09:49:40Z</time>
      </trkpt>
      <trkpt lat="42.20915" lon="9.00881">
        <ele>2154.93</ele>
        <time>2015-06-22T09:49:54Z</time>
      </trkpt>
      <trkpt lat="42.20919" lon="9.00871">
        <ele>2157.34</ele>
        <time>2015-06-22T09:50:09Z</time>
      </trkpt>
      <trkpt lat="42.20922" lon="9.00867">
        <ele>2158.3</ele>
        <time>2015-06-22T09:50:22Z</time>
      </trkpt>
      <trkpt lat="42.20924" lon="9.00861">
        <ele>2158.78</ele>
        <time>2015-06-22T09:50:36Z</time>
      </trkpt>
      <trkpt lat="42.20923" lon="9.00859">
        <ele>2160.22</ele>
        <time>2015-06-22T09:50:50Z</time>
      </trkpt>
      <trkpt lat="42.20925" lon="9.00858">
        <ele>2160.22</ele>
        <time>2015-06-22T09:51:07Z</time>
      </trkpt>
      <trkpt lat="42.20922" lon="9.00853">
        <ele>2163.58</ele>
        <time>2015-06-22T09:51:24Z</time>
      </trkpt>
      <trkpt lat="42.20925" lon="9.00846">
        <ele>2165.03</ele>
        <time>2015-06-22T09:51:39Z</time>
      </trkpt>
      <trkpt lat="42.20925" lon="9.0084">
        <ele>2166.95</ele>
        <time>2015-06-22T09:51:56Z</time>
      </trkpt>
      <trkpt lat="42.20921" lon="9.00843">
        <ele>2168.87</ele>
        <time>2015-06-22T09:52:09Z</time>
      </trkpt>
      <trkpt lat="42.20921" lon="9.00831">
        <ele>2170.31</ele>
        <time>2015-06-22T09:52:25Z</time>
      </trkpt>
      <trkpt lat="42.20923" lon="9.00822">
        <ele>2172.24</ele>
        <time>2015-06-22T09:52:39Z</time>
      </trkpt>
      <trkpt lat="42.20924" lon="9.00822">
        <ele>2173.68</ele>
        <time>2015-06-22T09:52:52Z</time>
      </trkpt>
      <trkpt lat="42.20925" lon="9.00814">
        <ele>2174.16</ele>
        <time>2015-06-22T09:53:06Z</time>
      </trkpt>
      <trkpt lat="42.20928" lon="9.00806">
        <ele>2176.08</ele>
        <time>2015-06-22T09:53:22Z</time>
      </trkpt>
      <trkpt lat="42.20928" lon="9.00803">
        <ele>2178</ele>
        <time>2015-06-22T09:53:47Z</time>
      </trkpt>
      <trkpt lat="42.20928" lon="9.00796">
        <ele>2179.93</ele>
        <time>2015-06-22T09:54:06Z</time>
      </trkpt>
      <trkpt lat="42.2093" lon="9.00791">
        <ele>2181.37</ele>
        <time>2015-06-22T09:54:24Z</time>
      </trkpt>
      <trkpt lat="42.20934" lon="9.00782">
        <ele>2184.25</ele>
        <time>2015-06-22T09:54:39Z</time>
      </trkpt>
      <trkpt lat="42.20941" lon="9.00778">
        <ele>2184.73</ele>
        <time>2015-06-22T09:54:54Z</time>
      </trkpt>
      <trkpt lat="42.20942" lon="9.00778">
        <ele>2185.21</ele>
        <time>2015-06-22T09:55:07Z</time>
      </trkpt>
      <trkpt lat="42.20942" lon="9.00778">
        <ele>2185.21</ele>
        <time>2015-06-22T09:55:32Z</time>
      </trkpt>
      <trkpt lat="42.20948" lon="9.00768">
        <ele>2184.73</ele>
        <time>2015-06-22T09:55:48Z</time>
      </trkpt>
      <trkpt lat="42.20957" lon="9.0076">
        <ele>2184.25</ele>
        <time>2015-06-22T09:56:05Z</time>
      </trkpt>
      <trkpt lat="42.20963" lon="9.00756">
        <ele>2185.21</ele>
        <time>2015-06-22T09:56:22Z</time>
      </trkpt>
      <trkpt lat="42.20967" lon="9.00754">
        <ele>2186.66</ele>
        <time>2015-06-22T09:56:37Z</time>
      </trkpt>
      <trkpt lat="42.20969" lon="9.00752">
        <ele>2188.58</ele>
        <time>2015-06-22T09:56:51Z</time>
      </trkpt>
      <trkpt lat="42.20972" lon="9.00749">
        <ele>2190.5</ele>
        <time>2015-06-22T09:57:09Z</time>
      </trkpt>
      <trkpt lat="42.20975" lon="9.00741">
        <ele>2192.9</ele>
        <time>2015-06-22T09:57:24Z</time>
      </trkpt>
      <trkpt lat="42.2098" lon="9.00725">
        <ele>2194.35</ele>
        <time>2015-06-22T09:57:42Z</time>
      </trkpt>
      <trkpt lat="42.20984" lon="9.00718">
        <ele>2197.23</ele>
        <time>2015-06-22T09:57:57Z</time>
      </trkpt>
      <trkpt lat="42.20993" lon="9.00719">
        <ele>2197.23</ele>
        <time>2015-06-22T09:58:13Z</time>
      </trkpt>
      <trkpt lat="42.2099" lon="9.00721">
        <ele>2197.23</ele>
        <time>2015-06-22T09:58:37Z</time>
      </trkpt>
      <trkpt lat="42.21" lon="9.00711">
        <ele>2197.23</ele>
        <time>2015-06-22T09:58:52Z</time>
      </trkpt>
      <trkpt lat="42.21" lon="9.00704">
        <ele>2200.59</ele>
        <time>2015-06-22T09:59:06Z</time>
      </trkpt>
      <trkpt lat="42.21005" lon="9.00702">
        <ele>2202.04</ele>
        <time>2015-06-22T09:59:13Z</time>
      </trkpt>
      <trkpt lat="42.21014" lon="9.00699">
        <ele>2203.48</ele>
        <time>2015-06-22T09:59:27Z</time>
      </trkpt>
      <trkpt lat="42.2102" lon="9.00694">
        <ele>2204.92</ele>
        <time>2015-06-22T09:59:38Z</time>
      </trkpt>
      <trkpt lat="42.21021" lon="9.00693">
        <ele>2204.92</ele>
        <time>2015-06-22T09:59:39Z</time>
      </trkpt>
      <trkpt lat="42.21032" lon="9.00687">
        <ele>2205.88</ele>
        <time>2015-06-22T09:59:53Z</time>
      </trkpt>
      <trkpt lat="42.21042" lon="9.00691">
        <ele>2207.32</ele>
        <time>2015-06-22T10:00:11Z</time>
      </trkpt>
      <trkpt lat="42.21048" lon="9.00686">
        <ele>2208.29</ele>
        <time>2015-06-22T10:00:27Z</time>
      </trkpt>
      <trkpt lat="42.21058" lon="9.00686">
        <ele>2207.81</ele>
        <time>2015-06-22T10:00:41Z</time>
      </trkpt>
      <trkpt lat="42.21064" lon="9.00684">
        <ele>2207.81</ele>
        <time>2015-06-22T10:00:58Z</time>
      </trkpt>
      <trkpt lat="42.21067" lon="9.00684">
        <ele>2207.81</ele>
        <time>2015-06-22T10:01:11Z</time>
      </trkpt>
      <trkpt lat="42.21071" lon="9.00681">
        <ele>2208.77</ele>
        <time>2015-06-22T10:01:25Z</time>
      </trkpt>
      <trkpt lat="42.21075" lon="9.0068">
        <ele>2208.29</ele>
        <time>2015-06-22T10:01:39Z</time>
      </trkpt>
      <trkpt lat="42.21078" lon="9.00681">
        <ele>2208.77</ele>
        <time>2015-06-22T10:01:57Z</time>
      </trkpt>
      <trkpt lat="42.2108" lon="9.00683">
        <ele>2207.81</ele>
        <time>2015-06-22T10:02:10Z</time>
      </trkpt>
      <trkpt lat="42.21081" lon="9.00682">
        <ele>2207.81</ele>
        <time>2015-06-22T10:02:32Z</time>
      </trkpt>
      <trkpt lat="42.21084" lon="9.0068">
        <ele>2207.81</ele>
        <time>2015-06-22T10:02:50Z</time>
      </trkpt>
      <trkpt lat="42.21089" lon="9.00678">
        <ele>2209.73</ele>
        <time>2015-06-22T10:03:08Z</time>
      </trkpt>
      <trkpt lat="42.21092" lon="9.00674">
        <ele>2209.73</ele>
        <time>2015-06-22T10:03:27Z</time>
      </trkpt>
      <trkpt lat="42.21096" lon="9.00669">
        <ele>2210.69</ele>
        <time>2015-06-22T10:03:40Z</time>
      </trkpt>
      <trkpt lat="42.21094" lon="9.00668">
        <ele>2212.13</ele>
        <time>2015-06-22T10:03:46Z</time>
      </trkpt>
      <trkpt lat="42.21098" lon="9.00662">
        <ele>2215.01</ele>
        <time>2015-06-22T10:04:03Z</time>
      </trkpt>
      <trkpt lat="42.21103" lon="9.00656">
        <ele>2215.01</ele>
        <time>2015-06-22T10:04:19Z</time>
      </trkpt>
      <trkpt lat="42.21105" lon="9.00654">
        <ele>2215.98</ele>
        <time>2015-06-22T10:04:36Z</time>
      </trkpt>
      <trkpt lat="42.21106" lon="9.00655">
        <ele>2215.5</ele>
        <time>2015-06-22T10:04:58Z</time>
      </trkpt>
      <trkpt lat="42.21108" lon="9.00653">
        <ele>2215.98</ele>
        <time>2015-06-22T10:05:15Z</time>
      </trkpt>
      <trkpt lat="42.21113" lon="9.00644">
        <ele>2218.86</ele>
        <time>2015-06-22T10:05:32Z</time>
      </trkpt>
      <trkpt lat="42.21119" lon="9.00641">
        <ele>2218.38</ele>
        <time>2015-06-22T10:05:47Z</time>
      </trkpt>
      <trkpt lat="42.21125" lon="9.00637">
        <ele>2219.82</ele>
        <time>2015-06-22T10:06:01Z</time>
      </trkpt>
      <trkpt lat="42.2113" lon="9.00633">
        <ele>2220.3</ele>
        <time>2015-06-22T10:06:14Z</time>
      </trkpt>
      <trkpt lat="42.21133" lon="9.0063">
        <ele>2219.82</ele>
        <time>2015-06-22T10:06:27Z</time>
      </trkpt>
      <trkpt lat="42.21137" lon="9.00629">
        <ele>2218.86</ele>
        <time>2015-06-22T10:06:39Z</time>
      </trkpt>
      <trkpt lat="42.21145" lon="9.00624">
        <ele>2219.34</ele>
        <time>2015-06-22T10:06:57Z</time>
      </trkpt>
      <trkpt lat="42.21148" lon="9.00616">
        <ele>2221.74</ele>
        <time>2015-06-22T10:07:14Z</time>
      </trkpt>
      <trkpt lat="42.2115" lon="9.00609">
        <ele>2223.67</ele>
        <time>2015-06-22T10:07:29Z</time>
      </trkpt>
      <trkpt lat="42.21153" lon="9.00604">
        <ele>2225.59</ele>
        <time>2015-06-22T10:07:47Z</time>
      </trkpt>
      <trkpt lat="42.21158" lon="9.00601">
        <ele>2227.51</ele>
        <time>2015-06-22T10:08:06Z</time>
      </trkpt>
      <trkpt lat="42.21162" lon="9.00596">
        <ele>2229.43</ele>
        <time>2015-06-22T10:08:23Z</time>
      </trkpt>
      <trkpt lat="42.2116" lon="9.00594">
        <ele>2230.4</ele>
        <time>2015-06-22T10:08:41Z</time>
      </trkpt>
      <trkpt lat="42.21162" lon="9.00597">
        <ele>2229.92</ele>
        <time>2015-06-22T10:09:04Z</time>
      </trkpt>
      <trkpt lat="42.21163" lon="9.00596">
        <ele>2229.92</ele>
        <time>2015-06-22T10:09:26Z</time>
      </trkpt>
      <trkpt lat="42.21163" lon="9.00596">
        <ele>2228.47</ele>
        <time>2015-06-22T10:09:30Z</time>
      </trkpt>
      <trkpt lat="42.21164" lon="9.00596">
        <ele>2230.88</ele>
        <time>2015-06-22T10:09:32Z</time>
      </trkpt>
      <trkpt lat="42.2116" lon="9.00597">
        <ele>2229.92</ele>
        <time>2015-06-22T10:10:03Z</time>
      </trkpt>
      <trkpt lat="42.2116" lon="9.00598">
        <ele>2230.4</ele>
        <time>2015-06-22T10:10:30Z</time>
      </trkpt>
      <trkpt lat="42.21159" lon="9.00599">
        <ele>2229.92</ele>
        <time>2015-06-22T10:10:53Z</time>
      </trkpt>
      <trkpt lat="42.21159" lon="9.00597">
        <ele>2230.4</ele>
        <time>2015-06-22T10:11:24Z</time>
      </trkpt>
      <trkpt lat="42.21159" lon="9.00597">
        <ele>2230.4</ele>
        <time>2015-06-22T10:11:42Z</time>
      </trkpt>
      <trkpt lat="42.21161" lon="9.00598">
        <ele>2231.84</ele>
        <time>2015-06-22T10:12:07Z</time>
      </trkpt>
      <trkpt lat="42.21159" lon="9.006">
        <ele>2230.4</ele>
        <time>2015-06-22T10:12:23Z</time>
      </trkpt>
      <trkpt lat="42.21159" lon="9.00597">
        <ele>2230.4</ele>
        <time>2015-06-22T10:12:54Z</time>
      </trkpt>
      <trkpt lat="42.21159" lon="9.00598">
        <ele>2229.43</ele>
        <time>2015-06-22T10:13:21Z</time>
      </trkpt>
      <trkpt lat="42.21159" lon="9.00597">
        <ele>2229.92</ele>
        <time>2015-06-22T10:13:44Z</time>
      </trkpt>
      <trkpt lat="42.21158" lon="9.00598">
        <ele>2229.92</ele>
        <time>2015-06-22T10:14:13Z</time>
      </trkpt>
      <trkpt lat="42.21158" lon="9.00597">
        <ele>2229.43</ele>
        <time>2015-06-22T10:14:44Z</time>
      </trkpt>
      <trkpt lat="42.21158" lon="9.00596">
        <ele>2229.43</ele>
        <time>2015-06-22T10:15:18Z</time>
      </trkpt>
      <trkpt lat="42.21158" lon="9.00597">
        <ele>2229.92</ele>
        <time>2015-06-22T10:15:53Z</time>
      </trkpt>
      <trkpt lat="42.21158" lon="9.00596">
        <ele>2230.4</ele>
        <time>2015-06-22T10:16:26Z</time>
      </trkpt>
      <trkpt lat="42.21159" lon="9.006">
        <ele>2229.92</ele>
        <time>2015-06-22T10:16:59Z</time>
      </trkpt>
      <trkpt lat="42.2116" lon="9.00598">
        <ele>2229.92</ele>
        <time>2015-06-22T10:17:36Z</time>
      </trkpt>
      <trkpt lat="42.21159" lon="9.00597">
        <ele>2229.43</ele>
        <time>2015-06-22T10:18:10Z</time>
      </trkpt>
      <trkpt lat="42.2116" lon="9.00597">
        <ele>2230.4</ele>
        <time>2015-06-22T10:18:41Z</time>
      </trkpt>
      <trkpt lat="42.21161" lon="9.00599">
        <ele>2230.4</ele>
        <time>2015-06-22T10:19:09Z</time>
      </trkpt>
      <trkpt lat="42.21159" lon="9.00597">
        <ele>2230.4</ele>
        <time>2015-06-22T10:19:44Z</time>
      </trkpt>
      <trkpt lat="42.21159" lon="9.00598">
        <ele>2229.92</ele>
        <time>2015-06-22T10:20:13Z</time>
      </trkpt>
      <trkpt lat="42.21159" lon="9.00598">
        <ele>2229.92</ele>
        <time>2015-06-22T10:20:46Z</time>
      </trkpt>
      <trkpt lat="42.21159" lon="9.00596">
        <ele>2229.92</ele>
        <time>2015-06-22T10:21:09Z</time>
      </trkpt>
      <trkpt lat="42.21157" lon="9.00601">
        <ele>2230.4</ele>
        <time>2015-06-22T10:21:36Z</time>
      </trkpt>
      <trkpt lat="42.21158" lon="9.00597">
        <ele>2230.4</ele>
        <time>2015-06-22T10:22:02Z</time>
      </trkpt>
      <trkpt lat="42.21158" lon="9.00599">
        <ele>2229.92</ele>
        <time>2015-06-22T10:22:31Z</time>
      </trkpt>
      <trkpt lat="42.21158" lon="9.00599">
        <ele>2230.4</ele>
        <time>2015-06-22T10:23:00Z</time>
      </trkpt>
      <trkpt lat="42.2116" lon="9.00599">
        <ele>2230.4</ele>
        <time>2015-06-22T10:23:34Z</time>
      </trkpt>
      <trkpt lat="42.21163" lon="9.00598">
        <ele>2230.88</ele>
        <time>2015-06-22T10:23:58Z</time>
      </trkpt>
      <trkpt lat="42.21164" lon="9.00593">
        <ele>2228.95</ele>
        <time>2015-06-22T10:24:14Z</time>
      </trkpt>
      <trkpt lat="42.21163" lon="9.0059">
        <ele>2227.51</ele>
        <time>2015-06-22T10:24:22Z</time>
      </trkpt>
      <trkpt lat="42.21163" lon="9.00583">
        <ele>2226.07</ele>
        <time>2015-06-22T10:24:34Z</time>
      </trkpt>
      <trkpt lat="42.21165" lon="9.0058">
        <ele>2224.63</ele>
        <time>2015-06-22T10:24:51Z</time>
      </trkpt>
      <trkpt lat="42.21168" lon="9.00575">
        <ele>2222.71</ele>
        <time>2015-06-22T10:25:03Z</time>
      </trkpt>
      <trkpt lat="42.21168" lon="9.00572">
        <ele>2221.26</ele>
        <time>2015-06-22T10:25:14Z</time>
      </trkpt>
      <trkpt lat="42.21168" lon="9.0057">
        <ele>2220.78</ele>
        <time>2015-06-22T10:25:31Z</time>
      </trkpt>
      <trkpt lat="42.21171" lon="9.00567">
        <ele>2218.86</ele>
        <time>2015-06-22T10:25:46Z</time>
      </trkpt>
      <trkpt lat="42.2117" lon="9.00563">
        <ele>2217.42</ele>
        <time>2015-06-22T10:26:03Z</time>
      </trkpt>
      <trkpt lat="42.21173" lon="9.00559">
        <ele>2215.01</ele>
        <time>2015-06-22T10:26:16Z</time>
      </trkpt>
      <trkpt lat="42.21168" lon="9.00553">
        <ele>2212.61</ele>
        <time>2015-06-22T10:26:31Z</time>
      </trkpt>
      <trkpt lat="42.21168" lon="9.00547">
        <ele>2210.21</ele>
        <time>2015-06-22T10:26:45Z</time>
      </trkpt>
      <trkpt lat="42.21168" lon="9.00543">
        <ele>2209.73</ele>
        <time>2015-06-22T10:27:01Z</time>
      </trkpt>
      <trkpt lat="42.21167" lon="9.00538">
        <ele>2208.77</ele>
        <time>2015-06-22T10:27:15Z</time>
      </trkpt>
      <trkpt lat="42.21167" lon="9.00533">
        <ele>2207.32</ele>
        <time>2015-06-22T10:27:28Z</time>
      </trkpt>
      <trkpt lat="42.21164" lon="9.00529">
        <ele>2205.4</ele>
        <time>2015-06-22T10:27:43Z</time>
      </trkpt>
      <trkpt lat="42.21169" lon="9.00525">
        <ele>2203.96</ele>
        <time>2015-06-22T10:27:55Z</time>
      </trkpt>
      <trkpt lat="42.21169" lon="9.00521">
        <ele>2203.48</ele>
        <time>2015-06-22T10:28:09Z</time>
      </trkpt>
      <trkpt lat="42.21167" lon="9.00521">
        <ele>2202.04</ele>
        <time>2015-06-22T10:28:20Z</time>
      </trkpt>
      <trkpt lat="42.21166" lon="9.00517">
        <ele>2201.08</ele>
        <time>2015-06-22T10:28:37Z</time>
      </trkpt>
      <trkpt lat="42.21169" lon="9.00513">
        <ele>2199.63</ele>
        <time>2015-06-22T10:28:50Z</time>
      </trkpt>
      <trkpt lat="42.21172" lon="9.00511">
        <ele>2198.19</ele>
        <time>2015-06-22T10:29:08Z</time>
      </trkpt>
      <trkpt lat="42.2117" lon="9.00505">
        <ele>2196.27</ele>
        <time>2015-06-22T10:29:20Z</time>
      </trkpt>
      <trkpt lat="42.2117" lon="9.00503">
        <ele>2195.31</ele>
        <time>2015-06-22T10:29:32Z</time>
      </trkpt>
      <trkpt lat="42.21171" lon="9.00497">
        <ele>2193.39</ele>
        <time>2015-06-22T10:29:49Z</time>
      </trkpt>
      <trkpt lat="42.21173" lon="9.00493">
        <ele>2191.46</ele>
        <time>2015-06-22T10:30:05Z</time>
      </trkpt>
      <trkpt lat="42.21174" lon="9.00492">
        <ele>2190.02</ele>
        <time>2015-06-22T10:30:19Z</time>
      </trkpt>
      <trkpt lat="42.21176" lon="9.0049">
        <ele>2189.54</ele>
        <time>2015-06-22T10:30:33Z</time>
      </trkpt>
      <trkpt lat="42.21175" lon="9.00483">
        <ele>2188.58</ele>
        <time>2015-06-22T10:30:49Z</time>
      </trkpt>
      <trkpt lat="42.21177" lon="9.00479">
        <ele>2187.62</ele>
        <time>2015-06-22T10:31:09Z</time>
      </trkpt>
      <trkpt lat="42.21181" lon="9.00476">
        <ele>2185.21</ele>
        <time>2015-06-22T10:31:23Z</time>
      </trkpt>
      <trkpt lat="42.21183" lon="9.0047">
        <ele>2182.81</ele>
        <time>2015-06-22T10:31:36Z</time>
      </trkpt>
      <trkpt lat="42.21184" lon="9.00465">
        <ele>2181.37</ele>
        <time>2015-06-22T10:31:52Z</time>
      </trkpt>
      <trkpt lat="42.21185" lon="9.0046">
        <ele>2178.97</ele>
        <time>2015-06-22T10:32:07Z</time>
      </trkpt>
      <trkpt lat="42.21187" lon="9.00454">
        <ele>2177.52</ele>
        <time>2015-06-22T10:32:20Z</time>
      </trkpt>
      <trkpt lat="42.2119" lon="9.00453">
        <ele>2176.08</ele>
        <time>2015-06-22T10:32:32Z</time>
      </trkpt>
      <trkpt lat="42.21191" lon="9.00445">
        <ele>2174.16</ele>
        <time>2015-06-22T10:32:49Z</time>
      </trkpt>
      <trkpt lat="42.21191" lon="9.00439">
        <ele>2172.72</ele>
        <time>2015-06-22T10:33:01Z</time>
      </trkpt>
      <trkpt lat="42.21193" lon="9.00437">
        <ele>2170.79</ele>
        <time>2015-06-22T10:33:14Z</time>
      </trkpt>
      <trkpt lat="42.21191" lon="9.00436">
        <ele>2171.76</ele>
        <time>2015-06-22T10:33:16Z</time>
      </trkpt>
      <trkpt lat="42.2119" lon="9.00433">
        <ele>2169.35</ele>
        <time>2015-06-22T10:33:32Z</time>
      </trkpt>
      <trkpt lat="42.2119" lon="9.00433">
        <ele>2168.87</ele>
        <time>2015-06-22T10:33:33Z</time>
      </trkpt>
      <trkpt lat="42.21192" lon="9.0043">
        <ele>2168.39</ele>
        <time>2015-06-22T10:33:46Z</time>
      </trkpt>
      <trkpt lat="42.21195" lon="9.00426">
        <ele>2165.99</ele>
        <time>2015-06-22T10:33:56Z</time>
      </trkpt>
      <trkpt lat="42.21195" lon="9.00425">
        <ele>2165.51</ele>
        <time>2015-06-22T10:34:10Z</time>
      </trkpt>
      <trkpt lat="42.21198" lon="9.00418">
        <ele>2164.06</ele>
        <time>2015-06-22T10:34:26Z</time>
      </trkpt>
      <trkpt lat="42.21197" lon="9.00413">
        <ele>2162.62</ele>
        <time>2015-06-22T10:34:38Z</time>
      </trkpt>
      <trkpt lat="42.21191" lon="9.00413">
        <ele>2161.66</ele>
        <time>2015-06-22T10:34:47Z</time>
      </trkpt>
      <trkpt lat="42.21186" lon="9.00414">
        <ele>2160.22</ele>
        <time>2015-06-22T10:35:00Z</time>
      </trkpt>
      <trkpt lat="42.21185" lon="9.0041">
        <ele>2158.78</ele>
        <time>2015-06-22T10:35:14Z</time>
      </trkpt>
      <trkpt lat="42.21183" lon="9.00412">
        <ele>2158.3</ele>
        <time>2015-06-22T10:35:31Z</time>
      </trkpt>
      <trkpt lat="42.21179" lon="9.00411">
        <ele>2156.86</ele>
        <time>2015-06-22T10:35:53Z</time>
      </trkpt>
      <trkpt lat="42.21184" lon="9.00402">
        <ele>2155.41</ele>
        <time>2015-06-22T10:36:09Z</time>
      </trkpt>
      <trkpt lat="42.21184" lon="9.00402">
        <ele>2154.45</ele>
        <time>2015-06-22T10:36:23Z</time>
      </trkpt>
      <trkpt lat="42.21182" lon="9.00403">
        <ele>2152.53</ele>
        <time>2015-06-22T10:36:40Z</time>
      </trkpt>
      <trkpt lat="42.2118" lon="9.00399">
        <ele>2151.57</ele>
        <time>2015-06-22T10:36:55Z</time>
      </trkpt>
      <trkpt lat="42.21181" lon="9.004">
        <ele>2151.09</ele>
        <time>2015-06-22T10:37:13Z</time>
      </trkpt>
      <trkpt lat="42.21179" lon="9.00397">
        <ele>2150.13</ele>
        <time>2015-06-22T10:37:27Z</time>
      </trkpt>
      <trkpt lat="42.21178" lon="9.00397">
        <ele>2149.65</ele>
        <time>2015-06-22T10:37:49Z</time>
      </trkpt>
      <trkpt lat="42.21176" lon="9.00393">
        <ele>2148.2</ele>
        <time>2015-06-22T10:38:08Z</time>
      </trkpt>
      <trkpt lat="42.21174" lon="9.00389">
        <ele>2146.76</ele>
        <time>2015-06-22T10:38:19Z</time>
      </trkpt>
      <trkpt lat="42.21169" lon="9.00388">
        <ele>2145.8</ele>
        <time>2015-06-22T10:38:36Z</time>
      </trkpt>
      <trkpt lat="42.2117" lon="9.00381">
        <ele>2144.36</ele>
        <time>2015-06-22T10:38:48Z</time>
      </trkpt>
      <trkpt lat="42.21165" lon="9.00378">
        <ele>2141.95</ele>
        <time>2015-06-22T10:39:04Z</time>
      </trkpt>
      <trkpt lat="42.21163" lon="9.00376">
        <ele>2140.99</ele>
        <time>2015-06-22T10:39:22Z</time>
      </trkpt>
      <trkpt lat="42.21165" lon="9.00373">
        <ele>2139.07</ele>
        <time>2015-06-22T10:39:35Z</time>
      </trkpt>
      <trkpt lat="42.21171" lon="9.00367">
        <ele>2137.15</ele>
        <time>2015-06-22T10:39:46Z</time>
      </trkpt>
      <trkpt lat="42.21176" lon="9.00361">
        <ele>2136.19</ele>
        <time>2015-06-22T10:40:00Z</time>
      </trkpt>
      <trkpt lat="42.21179" lon="9.00357">
        <ele>2134.74</ele>
        <time>2015-06-22T10:40:17Z</time>
      </trkpt>
      <trkpt lat="42.21182" lon="9.00355">
        <ele>2132.82</ele>
        <time>2015-06-22T10:40:31Z</time>
      </trkpt>
      <trkpt lat="42.21177" lon="9.00355">
        <ele>2131.38</ele>
        <time>2015-06-22T10:40:49Z</time>
      </trkpt>
      <trkpt lat="42.21175" lon="9.0035">
        <ele>2129.94</ele>
        <time>2015-06-22T10:41:04Z</time>
      </trkpt>
      <trkpt lat="42.21172" lon="9.00346">
        <ele>2127.53</ele>
        <time>2015-06-22T10:41:19Z</time>
      </trkpt>
      <trkpt lat="42.21179" lon="9.00338">
        <ele>2125.61</ele>
        <time>2015-06-22T10:41:34Z</time>
      </trkpt>
      <trkpt lat="42.2118" lon="9.00335">
        <ele>2124.65</ele>
        <time>2015-06-22T10:41:48Z</time>
      </trkpt>
      <trkpt lat="42.21182" lon="9.00332">
        <ele>2123.69</ele>
        <time>2015-06-22T10:42:05Z</time>
      </trkpt>
      <trkpt lat="42.21184" lon="9.00326">
        <ele>2121.77</ele>
        <time>2015-06-22T10:42:18Z</time>
      </trkpt>
      <trkpt lat="42.21183" lon="9.00321">
        <ele>2120.32</ele>
        <time>2015-06-22T10:42:32Z</time>
      </trkpt>
      <trkpt lat="42.21181" lon="9.0032">
        <ele>2119.84</ele>
        <time>2015-06-22T10:42:55Z</time>
      </trkpt>
      <trkpt lat="42.2118" lon="9.00319">
        <ele>2118.4</ele>
        <time>2015-06-22T10:43:12Z</time>
      </trkpt>
      <trkpt lat="42.21182" lon="9.00313">
        <ele>2116.96</ele>
        <time>2015-06-22T10:43:28Z</time>
      </trkpt>
      <trkpt lat="42.21181" lon="9.00309">
        <ele>2115.52</ele>
        <time>2015-06-22T10:43:46Z</time>
      </trkpt>
      <trkpt lat="42.21184" lon="9.00305">
        <ele>2113.6</ele>
        <time>2015-06-22T10:44:09Z</time>
      </trkpt>
      <trkpt lat="42.21185" lon="9.00304">
        <ele>2112.63</ele>
        <time>2015-06-22T10:44:13Z</time>
      </trkpt>
      <trkpt lat="42.21184" lon="9.00301">
        <ele>2111.67</ele>
        <time>2015-06-22T10:44:30Z</time>
      </trkpt>
      <trkpt lat="42.21185" lon="9.00295">
        <ele>2110.23</ele>
        <time>2015-06-22T10:44:47Z</time>
      </trkpt>
      <trkpt lat="42.21189" lon="9.00291">
        <ele>2108.79</ele>
        <time>2015-06-22T10:45:00Z</time>
      </trkpt>
      <trkpt lat="42.21191" lon="9.00288">
        <ele>2107.83</ele>
        <time>2015-06-22T10:45:12Z</time>
      </trkpt>
      <trkpt lat="42.2119" lon="9.00287">
        <ele>2106.87</ele>
        <time>2015-06-22T10:45:30Z</time>
      </trkpt>
      <trkpt lat="42.21189" lon="9.00286">
        <ele>2105.42</ele>
        <time>2015-06-22T10:45:49Z</time>
      </trkpt>
      <trkpt lat="42.21182" lon="9.00282">
        <ele>2103.98</ele>
        <time>2015-06-22T10:46:08Z</time>
      </trkpt>
      <trkpt lat="42.21182" lon="9.00275">
        <ele>2103.02</ele>
        <time>2015-06-22T10:46:22Z</time>
      </trkpt>
      <trkpt lat="42.21186" lon="9.00269">
        <ele>2101.1</ele>
        <time>2015-06-22T10:46:36Z</time>
      </trkpt>
      <trkpt lat="42.21181" lon="9.00266">
        <ele>2100.14</ele>
        <time>2015-06-22T10:46:55Z</time>
      </trkpt>
      <trkpt lat="42.21184" lon="9.00257">
        <ele>2099.18</ele>
        <time>2015-06-22T10:47:10Z</time>
      </trkpt>
      <trkpt lat="42.21183" lon="9.00254">
        <ele>2098.7</ele>
        <time>2015-06-22T10:47:29Z</time>
      </trkpt>
      <trkpt lat="42.21184" lon="9.00249">
        <ele>2097.25</ele>
        <time>2015-06-22T10:47:44Z</time>
      </trkpt>
      <trkpt lat="42.21186" lon="9.00241">
        <ele>2095.33</ele>
        <time>2015-06-22T10:47:56Z</time>
      </trkpt>
      <trkpt lat="42.21187" lon="9.00232">
        <ele>2092.93</ele>
        <time>2015-06-22T10:48:10Z</time>
      </trkpt>
      <trkpt lat="42.21187" lon="9.00225">
        <ele>2090.52</ele>
        <time>2015-06-22T10:48:23Z</time>
      </trkpt>
      <trkpt lat="42.21188" lon="9.00222">
        <ele>2089.56</ele>
        <time>2015-06-22T10:48:30Z</time>
      </trkpt>
      <trkpt lat="42.21192" lon="9.00218">
        <ele>2088.6</ele>
        <time>2015-06-22T10:48:36Z</time>
      </trkpt>
      <trkpt lat="42.21197" lon="9.0021">
        <ele>2085.24</ele>
        <time>2015-06-22T10:48:48Z</time>
      </trkpt>
      <trkpt lat="42.21199" lon="9.00206">
        <ele>2082.35</ele>
        <time>2015-06-22T10:49:00Z</time>
      </trkpt>
      <trkpt lat="42.21203" lon="9.00202">
        <ele>2081.39</ele>
        <time>2015-06-22T10:49:08Z</time>
      </trkpt>
      <trkpt lat="42.21215" lon="9.00204">
        <ele>2079.47</ele>
        <time>2015-06-22T10:49:22Z</time>
      </trkpt>
      <trkpt lat="42.21221" lon="9.00199">
        <ele>2078.99</ele>
        <time>2015-06-22T10:49:32Z</time>
      </trkpt>
      <trkpt lat="42.21224" lon="9.00188">
        <ele>2077.55</ele>
        <time>2015-06-22T10:49:47Z</time>
      </trkpt>
      <trkpt lat="42.21226" lon="9.00188">
        <ele>2077.55</ele>
        <time>2015-06-22T10:50:07Z</time>
      </trkpt>
      <trkpt lat="42.21223" lon="9.00186">
        <ele>2077.55</ele>
        <time>2015-06-22T10:50:16Z</time>
      </trkpt>
      <trkpt lat="42.21221" lon="9.00183">
        <ele>2077.07</ele>
        <time>2015-06-22T10:50:19Z</time>
      </trkpt>
      <trkpt lat="42.21225" lon="9.00172">
        <ele>2075.14</ele>
        <time>2015-06-22T10:50:30Z</time>
      </trkpt>
      <trkpt lat="42.21226" lon="9.00164">
        <ele>2072.74</ele>
        <time>2015-06-22T10:50:44Z</time>
      </trkpt>
      <trkpt lat="42.21226" lon="9.00153">
        <ele>2070.82</ele>
        <time>2015-06-22T10:50:58Z</time>
      </trkpt>
      <trkpt lat="42.21228" lon="9.00148">
        <ele>2068.41</ele>
        <time>2015-06-22T10:51:04Z</time>
      </trkpt>
      <trkpt lat="42.21229" lon="9.00144">
        <ele>2068.89</ele>
        <time>2015-06-22T10:51:07Z</time>
      </trkpt>
      <trkpt lat="42.21229" lon="9.00137">
        <ele>2067.93</ele>
        <time>2015-06-22T10:51:14Z</time>
      </trkpt>
      <trkpt lat="42.21232" lon="9.00127">
        <ele>2066.49</ele>
        <time>2015-06-22T10:51:28Z</time>
      </trkpt>
      <trkpt lat="42.21231" lon="9.0012">
        <ele>2064.09</ele>
        <time>2015-06-22T10:51:40Z</time>
      </trkpt>
      <trkpt lat="42.21234" lon="9.00113">
        <ele>2062.65</ele>
        <time>2015-06-22T10:51:55Z</time>
      </trkpt>
      <trkpt lat="42.21232" lon="9.00108">
        <ele>2060.24</ele>
        <time>2015-06-22T10:52:07Z</time>
      </trkpt>
      <trkpt lat="42.21228" lon="9.00105">
        <ele>2058.8</ele>
        <time>2015-06-22T10:52:21Z</time>
      </trkpt>
      <trkpt lat="42.21227" lon="9.00099">
        <ele>2057.36</ele>
        <time>2015-06-22T10:52:33Z</time>
      </trkpt>
      <trkpt lat="42.2123" lon="9.001">
        <ele>2057.36</ele>
        <time>2015-06-22T10:52:55Z</time>
      </trkpt>
      <trkpt lat="42.21229" lon="9.001">
        <ele>2056.88</ele>
        <time>2015-06-22T10:53:20Z</time>
      </trkpt>
      <trkpt lat="42.21233" lon="9.00104">
        <ele>2057.36</ele>
        <time>2015-06-22T10:53:42Z</time>
      </trkpt>
      <trkpt lat="42.2123" lon="9.00108">
        <ele>2056.88</ele>
        <time>2015-06-22T10:54:09Z</time>
      </trkpt>
      <trkpt lat="42.21232" lon="9.001">
        <ele>2056.4</ele>
        <time>2015-06-22T10:54:30Z</time>
      </trkpt>
      <trkpt lat="42.21234" lon="9.00092">
        <ele>2055.92</ele>
        <time>2015-06-22T10:54:44Z</time>
      </trkpt>
      <trkpt lat="42.21232" lon="9.00088">
        <ele>2054.96</ele>
        <time>2015-06-22T10:54:55Z</time>
      </trkpt>
      <trkpt lat="42.21235" lon="9.0007">
        <ele>2053.99</ele>
        <time>2015-06-22T10:55:10Z</time>
      </trkpt>
      <trkpt lat="42.21237" lon="9.00058">
        <ele>2052.55</ele>
        <time>2015-06-22T10:55:24Z</time>
      </trkpt>
      <trkpt lat="42.21238" lon="9.00052">
        <ele>2050.63</ele>
        <time>2015-06-22T10:55:36Z</time>
      </trkpt>
      <trkpt lat="42.21239" lon="9.00046">
        <ele>2048.71</ele>
        <time>2015-06-22T10:55:49Z</time>
      </trkpt>
      <trkpt lat="42.21238" lon="9.00044">
        <ele>2046.78</ele>
        <time>2015-06-22T10:56:04Z</time>
      </trkpt>
      <trkpt lat="42.21234" lon="9.0004">
        <ele>2044.38</ele>
        <time>2015-06-22T10:56:18Z</time>
      </trkpt>
      <trkpt lat="42.21235" lon="9.00034">
        <ele>2042.94</ele>
        <time>2015-06-22T10:56:29Z</time>
      </trkpt>
      <trkpt lat="42.21235" lon="9.00029">
        <ele>2041.02</ele>
        <time>2015-06-22T10:56:43Z</time>
      </trkpt>
      <trkpt lat="42.21237" lon="9.00026">
        <ele>2039.09</ele>
        <time>2015-06-22T10:56:52Z</time>
      </trkpt>
      <trkpt lat="42.21236" lon="9.00019">
        <ele>2037.65</ele>
        <time>2015-06-22T10:57:05Z</time>
      </trkpt>
      <trkpt lat="42.21235" lon="9.00016">
        <ele>2037.17</ele>
        <time>2015-06-22T10:57:09Z</time>
      </trkpt>
      <trkpt lat="42.21234" lon="9.00002">
        <ele>2035.73</ele>
        <time>2015-06-22T10:57:20Z</time>
      </trkpt>
      <trkpt lat="42.21235" lon="9">
        <ele>2035.25</ele>
        <time>2015-06-22T10:57:22Z</time>
      </trkpt>
      <trkpt lat="42.21239" lon="8.99985">
        <ele>2034.29</ele>
        <time>2015-06-22T10:57:37Z</time>
      </trkpt>
      <trkpt lat="42.21236" lon="8.99978">
        <ele>2031.88</ele>
        <time>2015-06-22T10:57:54Z</time>
      </trkpt>
      <trkpt lat="42.21232" lon="8.99978">
        <ele>2029</ele>
        <time>2015-06-22T10:58:08Z</time>
      </trkpt>
      <trkpt lat="42.2123" lon="8.99972">
        <ele>2027.56</ele>
        <time>2015-06-22T10:58:21Z</time>
      </trkpt>
      <trkpt lat="42.21228" lon="8.99973">
        <ele>2025.15</ele>
        <time>2015-06-22T10:58:38Z</time>
      </trkpt>
      <trkpt lat="42.21223" lon="8.99969">
        <ele>2022.75</ele>
        <time>2015-06-22T10:58:53Z</time>
      </trkpt>
      <trkpt lat="42.21219" lon="8.99965">
        <ele>2020.35</ele>
        <time>2015-06-22T10:59:06Z</time>
      </trkpt>
      <trkpt lat="42.21217" lon="8.99964">
        <ele>2018.91</ele>
        <time>2015-06-22T10:59:10Z</time>
      </trkpt>
      <trkpt lat="42.21217" lon="8.99958">
        <ele>2016.98</ele>
        <time>2015-06-22T10:59:23Z</time>
      </trkpt>
      <trkpt lat="42.21216" lon="8.99953">
        <ele>2016.02</ele>
        <time>2015-06-22T10:59:33Z</time>
      </trkpt>
      <trkpt lat="42.21213" lon="8.99946">
        <ele>2013.14</ele>
        <time>2015-06-22T10:59:46Z</time>
      </trkpt>
      <trkpt lat="42.21208" lon="8.99943">
        <ele>2010.25</ele>
        <time>2015-06-22T11:00:02Z</time>
      </trkpt>
      <trkpt lat="42.21204" lon="8.99932">
        <ele>2007.85</ele>
        <time>2015-06-22T11:00:15Z</time>
      </trkpt>
      <trkpt lat="42.21201" lon="8.99927">
        <ele>2006.41</ele>
        <time>2015-06-22T11:00:28Z</time>
      </trkpt>
      <trkpt lat="42.21199" lon="8.99923">
        <ele>2004.49</ele>
        <time>2015-06-22T11:00:39Z</time>
      </trkpt>
      <trkpt lat="42.21193" lon="8.99918">
        <ele>2001.6</ele>
        <time>2015-06-22T11:00:52Z</time>
      </trkpt>
      <trkpt lat="42.21185" lon="8.9992">
        <ele>1998.72</ele>
        <time>2015-06-22T11:01:04Z</time>
      </trkpt>
      <trkpt lat="42.21181" lon="8.99919">
        <ele>1996.8</ele>
        <time>2015-06-22T11:01:16Z</time>
      </trkpt>
      <trkpt lat="42.21178" lon="8.99908">
        <ele>1994.39</ele>
        <time>2015-06-22T11:01:29Z</time>
      </trkpt>
      <trkpt lat="42.21172" lon="8.99898">
        <ele>1991.51</ele>
        <time>2015-06-22T11:01:43Z</time>
      </trkpt>
      <trkpt lat="42.21165" lon="8.99907">
        <ele>1989.1</ele>
        <time>2015-06-22T11:01:59Z</time>
      </trkpt>
      <trkpt lat="42.21159" lon="8.99898">
        <ele>1987.66</ele>
        <time>2015-06-22T11:02:13Z</time>
      </trkpt>
      <trkpt lat="42.21152" lon="8.99897">
        <ele>1988.14</ele>
        <time>2015-06-22T11:02:26Z</time>
      </trkpt>
      <trkpt lat="42.21145" lon="8.99893">
        <ele>1987.66</ele>
        <time>2015-06-22T11:02:36Z</time>
      </trkpt>
      <trkpt lat="42.21134" lon="8.99887">
        <ele>1987.18</ele>
        <time>2015-06-22T11:02:51Z</time>
      </trkpt>
      <trkpt lat="42.21131" lon="8.99881">
        <ele>1985.74</ele>
        <time>2015-06-22T11:03:05Z</time>
      </trkpt>
      <trkpt lat="42.2113" lon="8.99873">
        <ele>1984.78</ele>
        <time>2015-06-22T11:03:18Z</time>
      </trkpt>
      <trkpt lat="42.21129" lon="8.99867">
        <ele>1983.82</ele>
        <time>2015-06-22T11:03:32Z</time>
      </trkpt>
      <trkpt lat="42.21132" lon="8.99868">
        <ele>1984.3</ele>
        <time>2015-06-22T11:03:47Z</time>
      </trkpt>
      <trkpt lat="42.21136" lon="8.99872">
        <ele>1984.3</ele>
        <time>2015-06-22T11:04:02Z</time>
      </trkpt>
      <trkpt lat="42.21139" lon="8.99879">
        <ele>1983.82</ele>
        <time>2015-06-22T11:04:17Z</time>
      </trkpt>
      <trkpt lat="42.21137" lon="8.99877">
        <ele>1983.82</ele>
        <time>2015-06-22T11:04:29Z</time>
      </trkpt>
      <trkpt lat="42.21136" lon="8.99877">
        <ele>1984.3</ele>
        <time>2015-06-22T11:04:45Z</time>
      </trkpt>
      <trkpt lat="42.21137" lon="8.99879">
        <ele>1981.41</ele>
        <time>2015-06-22T12:13:49Z</time>
      </trkpt>
      <trkpt lat="42.21142" lon="8.9988">
        <ele>1981.41</ele>
        <time>2015-06-22T12:13:50Z</time>
      </trkpt>
      <trkpt lat="42.21144" lon="8.99873">
        <ele>1979.97</ele>
        <time>2015-06-22T12:14:05Z</time>
      </trkpt>
      <trkpt lat="42.21149" lon="8.99867">
        <ele>1977.09</ele>
        <time>2015-06-22T12:14:18Z</time>
      </trkpt>
      <trkpt lat="42.21151" lon="8.99857">
        <ele>1975.17</ele>
        <time>2015-06-22T12:14:31Z</time>
      </trkpt>
      <trkpt lat="42.2115" lon="8.9985">
        <ele>1974.69</ele>
        <time>2015-06-22T12:14:39Z</time>
      </trkpt>
      <trkpt lat="42.2115" lon="8.99833">
        <ele>1973.72</ele>
        <time>2015-06-22T12:14:53Z</time>
      </trkpt>
      <trkpt lat="42.21148" lon="8.99831">
        <ele>1973.24</ele>
        <time>2015-06-22T12:14:58Z</time>
      </trkpt>
      <trkpt lat="42.21146" lon="8.99822">
        <ele>1971.32</ele>
        <time>2015-06-22T12:15:07Z</time>
      </trkpt>
      <trkpt lat="42.21147" lon="8.99817">
        <ele>1970.84</ele>
        <time>2015-06-22T12:15:11Z</time>
      </trkpt>
      <trkpt lat="42.21148" lon="8.99813">
        <ele>1970.84</ele>
        <time>2015-06-22T12:15:14Z</time>
      </trkpt>
      <trkpt lat="42.21147" lon="8.99806">
        <ele>1969.4</ele>
        <time>2015-06-22T12:15:20Z</time>
      </trkpt>
      <trkpt lat="42.21141" lon="8.99796">
        <ele>1969.4</ele>
        <time>2015-06-22T12:15:33Z</time>
      </trkpt>
      <trkpt lat="42.21141" lon="8.99794">
        <ele>1968.92</ele>
        <time>2015-06-22T12:15:34Z</time>
      </trkpt>
      <trkpt lat="42.21141" lon="8.99787">
        <ele>1968.44</ele>
        <time>2015-06-22T12:15:40Z</time>
      </trkpt>
      <trkpt lat="42.21143" lon="8.99781">
        <ele>1968.44</ele>
        <time>2015-06-22T12:15:45Z</time>
      </trkpt>
      <trkpt lat="42.21145" lon="8.99766">
        <ele>1966.99</ele>
        <time>2015-06-22T12:15:56Z</time>
      </trkpt>
      <trkpt lat="42.21146" lon="8.99761">
        <ele>1967.48</ele>
        <time>2015-06-22T12:15:59Z</time>
      </trkpt>
      <trkpt lat="42.21146" lon="8.99755">
        <ele>1967.48</ele>
        <time>2015-06-22T12:16:03Z</time>
      </trkpt>
      <trkpt lat="42.21147" lon="8.99734">
        <ele>1966.99</ele>
        <time>2015-06-22T12:16:16Z</time>
      </trkpt>
      <trkpt lat="42.21152" lon="8.99721">
        <ele>1966.51</ele>
        <time>2015-06-22T12:16:25Z</time>
      </trkpt>
      <trkpt lat="42.21152" lon="8.99709">
        <ele>1966.03</ele>
        <time>2015-06-22T12:16:33Z</time>
      </trkpt>
      <trkpt lat="42.21154" lon="8.99702">
        <ele>1966.03</ele>
        <time>2015-06-22T12:16:40Z</time>
      </trkpt>
      <trkpt lat="42.2116" lon="8.99689">
        <ele>1966.03</ele>
        <time>2015-06-22T12:16:54Z</time>
      </trkpt>
      <trkpt lat="42.21159" lon="8.99689">
        <ele>1966.03</ele>
        <time>2015-06-22T12:16:55Z</time>
      </trkpt>
      <trkpt lat="42.21164" lon="8.99676">
        <ele>1966.03</ele>
        <time>2015-06-22T12:17:09Z</time>
      </trkpt>
      <trkpt lat="42.21169" lon="8.99666">
        <ele>1966.51</ele>
        <time>2015-06-22T12:17:23Z</time>
      </trkpt>
      <trkpt lat="42.21171" lon="8.9966">
        <ele>1967.96</ele>
        <time>2015-06-22T12:17:38Z</time>
      </trkpt>
      <trkpt lat="42.21173" lon="8.99652">
        <ele>1970.36</ele>
        <time>2015-06-22T12:17:50Z</time>
      </trkpt>
      <trkpt lat="42.21175" lon="8.99644">
        <ele>1970.84</ele>
        <time>2015-06-22T12:18:03Z</time>
      </trkpt>
      <trkpt lat="42.21175" lon="8.99636">
        <ele>1971.8</ele>
        <time>2015-06-22T12:18:17Z</time>
      </trkpt>
      <trkpt lat="42.21174" lon="8.99632">
        <ele>1971.32</ele>
        <time>2015-06-22T12:18:21Z</time>
      </trkpt>
      <trkpt lat="42.21173" lon="8.9962">
        <ele>1973.24</ele>
        <time>2015-06-22T12:18:36Z</time>
      </trkpt>
      <trkpt lat="42.2117" lon="8.99609">
        <ele>1973.24</ele>
        <time>2015-06-22T12:18:48Z</time>
      </trkpt>
      <trkpt lat="42.21164" lon="8.99592">
        <ele>1972.76</ele>
        <time>2015-06-22T12:19:04Z</time>
      </trkpt>
      <trkpt lat="42.21163" lon="8.99585">
        <ele>1972.76</ele>
        <time>2015-06-22T12:19:13Z</time>
      </trkpt>
      <trkpt lat="42.2116" lon="8.99577">
        <ele>1973.24</ele>
        <time>2015-06-22T12:19:20Z</time>
      </trkpt>
      <trkpt lat="42.2116" lon="8.99563">
        <ele>1973.72</ele>
        <time>2015-06-22T12:19:32Z</time>
      </trkpt>
      <trkpt lat="42.2116" lon="8.99547">
        <ele>1972.28</ele>
        <time>2015-06-22T12:19:48Z</time>
      </trkpt>
      <trkpt lat="42.21152" lon="8.99541">
        <ele>1970.36</ele>
        <time>2015-06-22T12:20:00Z</time>
      </trkpt>
      <trkpt lat="42.2115" lon="8.99537">
        <ele>1969.4</ele>
        <time>2015-06-22T12:20:04Z</time>
      </trkpt>
      <trkpt lat="42.21147" lon="8.99523">
        <ele>1968.44</ele>
        <time>2015-06-22T12:20:18Z</time>
      </trkpt>
      <trkpt lat="42.21146" lon="8.9952">
        <ele>1967.96</ele>
        <time>2015-06-22T12:20:20Z</time>
      </trkpt>
      <trkpt lat="42.21145" lon="8.99513">
        <ele>1967.48</ele>
        <time>2015-06-22T12:20:27Z</time>
      </trkpt>
      <trkpt lat="42.21144" lon="8.99505">
        <ele>1966.03</ele>
        <time>2015-06-22T12:20:34Z</time>
      </trkpt>
      <trkpt lat="42.21142" lon="8.99492">
        <ele>1963.15</ele>
        <time>2015-06-22T12:20:48Z</time>
      </trkpt>
      <trkpt lat="42.2114" lon="8.99484">
        <ele>1961.71</ele>
        <time>2015-06-22T12:21:02Z</time>
      </trkpt>
      <trkpt lat="42.21139" lon="8.99477">
        <ele>1959.78</ele>
        <time>2015-06-22T12:21:12Z</time>
      </trkpt>
      <trkpt lat="42.21139" lon="8.99477">
        <ele>1959.3</ele>
        <time>2015-06-22T12:21:31Z</time>
      </trkpt>
      <trkpt lat="42.21137" lon="8.99471">
        <ele>1958.34</ele>
        <time>2015-06-22T12:21:41Z</time>
      </trkpt>
      <trkpt lat="42.21137" lon="8.99468">
        <ele>1957.38</ele>
        <time>2015-06-22T12:21:45Z</time>
      </trkpt>
      <trkpt lat="42.21137" lon="8.99461">
        <ele>1956.9</ele>
        <time>2015-06-22T12:22:01Z</time>
      </trkpt>
      <trkpt lat="42.21134" lon="8.99465">
        <ele>1954.98</ele>
        <time>2015-06-22T12:22:09Z</time>
      </trkpt>
      <trkpt lat="42.21128" lon="8.99455">
        <ele>1952.57</ele>
        <time>2015-06-22T12:22:21Z</time>
      </trkpt>
      <trkpt lat="42.21124" lon="8.99449">
        <ele>1951.61</ele>
        <time>2015-06-22T12:22:29Z</time>
      </trkpt>
      <trkpt lat="42.21121" lon="8.99432">
        <ele>1948.73</ele>
        <time>2015-06-22T12:22:43Z</time>
      </trkpt>
      <trkpt lat="42.21124" lon="8.99422">
        <ele>1949.21</ele>
        <time>2015-06-22T12:22:55Z</time>
      </trkpt>
      <trkpt lat="42.21127" lon="8.99411">
        <ele>1948.25</ele>
        <time>2015-06-22T12:23:07Z</time>
      </trkpt>
      <trkpt lat="42.21126" lon="8.99406">
        <ele>1946.81</ele>
        <time>2015-06-22T12:23:17Z</time>
      </trkpt>
      <trkpt lat="42.21125" lon="8.994">
        <ele>1944.88</ele>
        <time>2015-06-22T12:23:30Z</time>
      </trkpt>
      <trkpt lat="42.21121" lon="8.99395">
        <ele>1942.96</ele>
        <time>2015-06-22T12:23:43Z</time>
      </trkpt>
      <trkpt lat="42.2112" lon="8.99396">
        <ele>1942.96</ele>
        <time>2015-06-22T12:23:44Z</time>
      </trkpt>
      <trkpt lat="42.21117" lon="8.99395">
        <ele>1941.52</ele>
        <time>2015-06-22T12:23:51Z</time>
      </trkpt>
      <trkpt lat="42.2112" lon="8.99382">
        <ele>1941.04</ele>
        <time>2015-06-22T12:24:05Z</time>
      </trkpt>
      <trkpt lat="42.2112" lon="8.99375">
        <ele>1939.12</ele>
        <time>2015-06-22T12:24:15Z</time>
      </trkpt>
      <trkpt lat="42.21117" lon="8.9937">
        <ele>1937.67</ele>
        <time>2015-06-22T12:24:30Z</time>
      </trkpt>
      <trkpt lat="42.21116" lon="8.99368">
        <ele>1937.67</ele>
        <time>2015-06-22T12:24:34Z</time>
      </trkpt>
      <trkpt lat="42.21114" lon="8.99361">
        <ele>1935.27</ele>
        <time>2015-06-22T12:24:45Z</time>
      </trkpt>
      <trkpt lat="42.21112" lon="8.99355">
        <ele>1934.31</ele>
        <time>2015-06-22T12:24:57Z</time>
      </trkpt>
      <trkpt lat="42.2111" lon="8.99347">
        <ele>1931.91</ele>
        <time>2015-06-22T12:25:10Z</time>
      </trkpt>
      <trkpt lat="42.21105" lon="8.99345">
        <ele>1929.5</ele>
        <time>2015-06-22T12:25:24Z</time>
      </trkpt>
      <trkpt lat="42.21103" lon="8.99335">
        <ele>1927.58</ele>
        <time>2015-06-22T12:25:37Z</time>
      </trkpt>
      <trkpt lat="42.21098" lon="8.99337">
        <ele>1925.18</ele>
        <time>2015-06-22T12:25:52Z</time>
      </trkpt>
      <trkpt lat="42.21097" lon="8.99329">
        <ele>1923.74</ele>
        <time>2015-06-22T12:26:02Z</time>
      </trkpt>
      <trkpt lat="42.21098" lon="8.99321">
        <ele>1922.29</ele>
        <time>2015-06-22T12:26:14Z</time>
      </trkpt>
      <trkpt lat="42.21093" lon="8.99312">
        <ele>1919.41</ele>
        <time>2015-06-22T12:26:27Z</time>
      </trkpt>
      <trkpt lat="42.21093" lon="8.99311">
        <ele>1919.41</ele>
        <time>2015-06-22T12:26:28Z</time>
      </trkpt>
      <trkpt lat="42.21094" lon="8.99297">
        <ele>1917.01</ele>
        <time>2015-06-22T12:26:43Z</time>
      </trkpt>
      <trkpt lat="42.21094" lon="8.99285">
        <ele>1914.6</ele>
        <time>2015-06-22T12:26:55Z</time>
      </trkpt>
      <trkpt lat="42.21093" lon="8.99271">
        <ele>1913.16</ele>
        <time>2015-06-22T12:27:08Z</time>
      </trkpt>
      <trkpt lat="42.21092" lon="8.99258">
        <ele>1911.24</ele>
        <time>2015-06-22T12:27:23Z</time>
      </trkpt>
      <trkpt lat="42.21092" lon="8.99249">
        <ele>1910.76</ele>
        <time>2015-06-22T12:27:35Z</time>
      </trkpt>
      <trkpt lat="42.21088" lon="8.99244">
        <ele>1908.35</ele>
        <time>2015-06-22T12:27:47Z</time>
      </trkpt>
      <trkpt lat="42.21081" lon="8.99241">
        <ele>1906.43</ele>
        <time>2015-06-22T12:28:02Z</time>
      </trkpt>
      <trkpt lat="42.21083" lon="8.99232">
        <ele>1904.99</ele>
        <time>2015-06-22T12:28:15Z</time>
      </trkpt>
      <trkpt lat="42.21081" lon="8.99224">
        <ele>1903.55</ele>
        <time>2015-06-22T12:28:30Z</time>
      </trkpt>
      <trkpt lat="42.21074" lon="8.9922">
        <ele>1901.63</ele>
        <time>2015-06-22T12:28:45Z</time>
      </trkpt>
      <trkpt lat="42.21075" lon="8.99208">
        <ele>1899.7</ele>
        <time>2015-06-22T12:28:58Z</time>
      </trkpt>
      <trkpt lat="42.21074" lon="8.99198">
        <ele>1898.26</ele>
        <time>2015-06-22T12:29:14Z</time>
      </trkpt>
      <trkpt lat="42.21072" lon="8.99188">
        <ele>1895.86</ele>
        <time>2015-06-22T12:29:29Z</time>
      </trkpt>
      <trkpt lat="42.21068" lon="8.99179">
        <ele>1892.97</ele>
        <time>2015-06-22T12:29:43Z</time>
      </trkpt>
      <trkpt lat="42.2107" lon="8.99167">
        <ele>1891.05</ele>
        <time>2015-06-22T12:29:56Z</time>
      </trkpt>
      <trkpt lat="42.21072" lon="8.99152">
        <ele>1889.13</ele>
        <time>2015-06-22T12:30:09Z</time>
      </trkpt>
      <trkpt lat="42.21078" lon="8.99141">
        <ele>1888.65</ele>
        <time>2015-06-22T12:30:22Z</time>
      </trkpt>
      <trkpt lat="42.21081" lon="8.99134">
        <ele>1888.17</ele>
        <time>2015-06-22T12:30:29Z</time>
      </trkpt>
      <trkpt lat="42.21083" lon="8.9912">
        <ele>1885.76</ele>
        <time>2015-06-22T12:30:44Z</time>
      </trkpt>
      <trkpt lat="42.21084" lon="8.99117">
        <ele>1885.28</ele>
        <time>2015-06-22T12:30:46Z</time>
      </trkpt>
      <trkpt lat="42.21089" lon="8.99108">
        <ele>1884.32</ele>
        <time>2015-06-22T12:30:55Z</time>
      </trkpt>
      <trkpt lat="42.21091" lon="8.99097">
        <ele>1882.4</ele>
        <time>2015-06-22T12:31:08Z</time>
      </trkpt>
      <trkpt lat="42.21095" lon="8.99084">
        <ele>1880.48</ele>
        <time>2015-06-22T12:31:23Z</time>
      </trkpt>
      <trkpt lat="42.21101" lon="8.99073">
        <ele>1878.55</ele>
        <time>2015-06-22T12:31:40Z</time>
      </trkpt>
      <trkpt lat="42.21105" lon="8.99066">
        <ele>1879.51</ele>
        <time>2015-06-22T12:31:54Z</time>
      </trkpt>
      <trkpt lat="42.21107" lon="8.99065">
        <ele>1880.48</ele>
        <time>2015-06-22T12:31:59Z</time>
      </trkpt>
      <trkpt lat="42.21109" lon="8.99051">
        <ele>1880.48</ele>
        <time>2015-06-22T12:32:13Z</time>
      </trkpt>
      <trkpt lat="42.21111" lon="8.99042">
        <ele>1878.07</ele>
        <time>2015-06-22T12:32:26Z</time>
      </trkpt>
      <trkpt lat="42.21113" lon="8.99039">
        <ele>1877.11</ele>
        <time>2015-06-22T12:32:40Z</time>
      </trkpt>
      <trkpt lat="42.21112" lon="8.9904">
        <ele>1877.11</ele>
        <time>2015-06-22T12:33:01Z</time>
      </trkpt>
      <trkpt lat="42.21111" lon="8.99041">
        <ele>1877.11</ele>
        <time>2015-06-22T12:33:34Z</time>
      </trkpt>
      <trkpt lat="42.21111" lon="8.99041">
        <ele>1876.63</ele>
        <time>2015-06-22T12:34:05Z</time>
      </trkpt>
      <trkpt lat="42.21111" lon="8.9904">
        <ele>1876.63</ele>
        <time>2015-06-22T12:34:38Z</time>
      </trkpt>
      <trkpt lat="42.21111" lon="8.99041">
        <ele>1876.63</ele>
        <time>2015-06-22T12:35:13Z</time>
      </trkpt>
      <trkpt lat="42.21109" lon="8.99039">
        <ele>1875.67</ele>
        <time>2015-06-22T12:35:40Z</time>
      </trkpt>
      <trkpt lat="42.21112" lon="8.99034">
        <ele>1874.71</ele>
        <time>2015-06-22T12:35:53Z</time>
      </trkpt>
      <trkpt lat="42.21116" lon="8.9903">
        <ele>1873.27</ele>
        <time>2015-06-22T12:36:09Z</time>
      </trkpt>
      <trkpt lat="42.21113" lon="8.99027">
        <ele>1870.86</ele>
        <time>2015-06-22T12:36:22Z</time>
      </trkpt>
      <trkpt lat="42.21115" lon="8.99019">
        <ele>1868.94</ele>
        <time>2015-06-22T12:36:36Z</time>
      </trkpt>
      <trkpt lat="42.21117" lon="8.99011">
        <ele>1866.06</ele>
        <time>2015-06-22T12:36:51Z</time>
      </trkpt>
      <trkpt lat="42.21111" lon="8.99008">
        <ele>1863.17</ele>
        <time>2015-06-22T12:37:05Z</time>
      </trkpt>
      <trkpt lat="42.21112" lon="8.99002">
        <ele>1862.21</ele>
        <time>2015-06-22T12:37:19Z</time>
      </trkpt>
      <trkpt lat="42.21114" lon="8.98999">
        <ele>1861.25</ele>
        <time>2015-06-22T12:37:33Z</time>
      </trkpt>
      <trkpt lat="42.21111" lon="8.99">
        <ele>1859.33</ele>
        <time>2015-06-22T12:37:48Z</time>
      </trkpt>
      <trkpt lat="42.21111" lon="8.98991">
        <ele>1857.4</ele>
        <time>2015-06-22T12:38:04Z</time>
      </trkpt>
      <trkpt lat="42.21112" lon="8.98987">
        <ele>1855.96</ele>
        <time>2015-06-22T12:38:16Z</time>
      </trkpt>
      <trkpt lat="42.21113" lon="8.98983">
        <ele>1854.04</ele>
        <time>2015-06-22T12:38:30Z</time>
      </trkpt>
      <trkpt lat="42.21114" lon="8.98978">
        <ele>1852.6</ele>
        <time>2015-06-22T12:38:46Z</time>
      </trkpt>
      <trkpt lat="42.21113" lon="8.98973">
        <ele>1850.68</ele>
        <time>2015-06-22T12:38:59Z</time>
      </trkpt>
      <trkpt lat="42.21107" lon="8.98972">
        <ele>1847.79</ele>
        <time>2015-06-22T12:39:13Z</time>
      </trkpt>
      <trkpt lat="42.21104" lon="8.98971">
        <ele>1846.83</ele>
        <time>2015-06-22T12:39:29Z</time>
      </trkpt>
      <trkpt lat="42.21105" lon="8.98962">
        <ele>1843.95</ele>
        <time>2015-06-22T12:39:44Z</time>
      </trkpt>
      <trkpt lat="42.21109" lon="8.98959">
        <ele>1843.47</ele>
        <time>2015-06-22T12:39:56Z</time>
      </trkpt>
      <trkpt lat="42.21109" lon="8.98958">
        <ele>1842.5</ele>
        <time>2015-06-22T12:40:11Z</time>
      </trkpt>
      <trkpt lat="42.2111" lon="8.98957">
        <ele>1841.06</ele>
        <time>2015-06-22T12:40:26Z</time>
      </trkpt>
      <trkpt lat="42.21107" lon="8.98953">
        <ele>1839.14</ele>
        <time>2015-06-22T12:40:43Z</time>
      </trkpt>
      <trkpt lat="42.21108" lon="8.98947">
        <ele>1837.22</ele>
        <time>2015-06-22T12:40:56Z</time>
      </trkpt>
      <trkpt lat="42.21111" lon="8.98943">
        <ele>1834.33</ele>
        <time>2015-06-22T12:41:09Z</time>
      </trkpt>
      <trkpt lat="42.21109" lon="8.9894">
        <ele>1831.93</ele>
        <time>2015-06-22T12:41:25Z</time>
      </trkpt>
      <trkpt lat="42.21103" lon="8.9894">
        <ele>1831.93</ele>
        <time>2015-06-22T12:41:38Z</time>
      </trkpt>
      <trkpt lat="42.21097" lon="8.98941">
        <ele>1830.49</ele>
        <time>2015-06-22T12:41:54Z</time>
      </trkpt>
      <trkpt lat="42.21095" lon="8.98941">
        <ele>1829.53</ele>
        <time>2015-06-22T12:42:09Z</time>
      </trkpt>
      <trkpt lat="42.21095" lon="8.98934">
        <ele>1828.08</ele>
        <time>2015-06-22T12:42:22Z</time>
      </trkpt>
      <trkpt lat="42.21094" lon="8.9893">
        <ele>1825.2</ele>
        <time>2015-06-22T12:42:36Z</time>
      </trkpt>
      <trkpt lat="42.21092" lon="8.98924">
        <ele>1822.8</ele>
        <time>2015-06-22T12:42:51Z</time>
      </trkpt>
      <trkpt lat="42.21094" lon="8.98918">
        <ele>1822.32</ele>
        <time>2015-06-22T12:43:06Z</time>
      </trkpt>
      <trkpt lat="42.21098" lon="8.9891">
        <ele>1819.91</ele>
        <time>2015-06-22T12:43:18Z</time>
      </trkpt>
      <trkpt lat="42.21103" lon="8.98899">
        <ele>1817.99</ele>
        <time>2015-06-22T12:43:32Z</time>
      </trkpt>
      <trkpt lat="42.2111" lon="8.98892">
        <ele>1816.55</ele>
        <time>2015-06-22T12:43:43Z</time>
      </trkpt>
      <trkpt lat="42.21118" lon="8.98889">
        <ele>1815.11</ele>
        <time>2015-06-22T12:43:58Z</time>
      </trkpt>
      <trkpt lat="42.21123" lon="8.98886">
        <ele>1813.18</ele>
        <time>2015-06-22T12:44:13Z</time>
      </trkpt>
      <trkpt lat="42.21128" lon="8.98882">
        <ele>1812.22</ele>
        <time>2015-06-22T12:44:26Z</time>
      </trkpt>
      <trkpt lat="42.2113" lon="8.98874">
        <ele>1810.3</ele>
        <time>2015-06-22T12:44:37Z</time>
      </trkpt>
      <trkpt lat="42.21128" lon="8.98868">
        <ele>1808.86</ele>
        <time>2015-06-22T12:44:51Z</time>
      </trkpt>
      <trkpt lat="42.21129" lon="8.98855">
        <ele>1806.94</ele>
        <time>2015-06-22T12:45:04Z</time>
      </trkpt>
      <trkpt lat="42.21136" lon="8.98847">
        <ele>1805.49</ele>
        <time>2015-06-22T12:45:17Z</time>
      </trkpt>
      <trkpt lat="42.21136" lon="8.98846">
        <ele>1805.49</ele>
        <time>2015-06-22T12:45:19Z</time>
      </trkpt>
      <trkpt lat="42.21136" lon="8.98843">
        <ele>1805.49</ele>
        <time>2015-06-22T12:45:21Z</time>
      </trkpt>
      <trkpt lat="42.21137" lon="8.98835">
        <ele>1804.53</ele>
        <time>2015-06-22T12:45:27Z</time>
      </trkpt>
      <trkpt lat="42.21145" lon="8.98826">
        <ele>1803.57</ele>
        <time>2015-06-22T12:45:41Z</time>
      </trkpt>
      <trkpt lat="42.2115" lon="8.98821">
        <ele>1802.61</ele>
        <time>2015-06-22T12:45:48Z</time>
      </trkpt>
      <trkpt lat="42.21153" lon="8.9882">
        <ele>1801.65</ele>
        <time>2015-06-22T12:45:51Z</time>
      </trkpt>
      <trkpt lat="42.21156" lon="8.98818">
        <ele>1801.17</ele>
        <time>2015-06-22T12:45:55Z</time>
      </trkpt>
      <trkpt lat="42.21159" lon="8.98816">
        <ele>1800.69</ele>
        <time>2015-06-22T12:45:58Z</time>
      </trkpt>
      <trkpt lat="42.21172" lon="8.98809">
        <ele>1800.69</ele>
        <time>2015-06-22T12:46:11Z</time>
      </trkpt>
      <trkpt lat="42.21174" lon="8.98809">
        <ele>1800.69</ele>
        <time>2015-06-22T12:46:14Z</time>
      </trkpt>
      <trkpt lat="42.2118" lon="8.98807">
        <ele>1800.21</ele>
        <time>2015-06-22T12:46:21Z</time>
      </trkpt>
      <trkpt lat="42.21191" lon="8.98797">
        <ele>1799.24</ele>
        <time>2015-06-22T12:46:35Z</time>
      </trkpt>
      <trkpt lat="42.21202" lon="8.98782">
        <ele>1798.28</ele>
        <time>2015-06-22T12:46:49Z</time>
      </trkpt>
      <trkpt lat="42.21202" lon="8.98781">
        <ele>1798.28</ele>
        <time>2015-06-22T12:46:50Z</time>
      </trkpt>
      <trkpt lat="42.21203" lon="8.98779">
        <ele>1798.28</ele>
        <time>2015-06-22T12:46:52Z</time>
      </trkpt>
      <trkpt lat="42.21202" lon="8.98777">
        <ele>1798.28</ele>
        <time>2015-06-22T12:46:54Z</time>
      </trkpt>
      <trkpt lat="42.21205" lon="8.9877">
        <ele>1798.28</ele>
        <time>2015-06-22T12:47:03Z</time>
      </trkpt>
      <trkpt lat="42.21216" lon="8.98769">
        <ele>1798.76</ele>
        <time>2015-06-22T12:47:17Z</time>
      </trkpt>
      <trkpt lat="42.21226" lon="8.98764">
        <ele>1797.8</ele>
        <time>2015-06-22T12:47:30Z</time>
      </trkpt>
      <trkpt lat="42.21231" lon="8.98756">
        <ele>1795.88</ele>
        <time>2015-06-22T12:47:40Z</time>
      </trkpt>
      <trkpt lat="42.21232" lon="8.98752">
        <ele>1795.88</ele>
        <time>2015-06-22T12:47:44Z</time>
      </trkpt>
      <trkpt lat="42.21242" lon="8.98731">
        <ele>1794.92</ele>
        <time>2015-06-22T12:48:00Z</time>
      </trkpt>
      <trkpt lat="42.21246" lon="8.98718">
        <ele>1795.88</ele>
        <time>2015-06-22T12:48:11Z</time>
      </trkpt>
      <trkpt lat="42.21245" lon="8.987">
        <ele>1795.88</ele>
        <time>2015-06-22T12:48:27Z</time>
      </trkpt>
      <trkpt lat="42.21245" lon="8.98699">
        <ele>1795.4</ele>
        <time>2015-06-22T12:48:28Z</time>
      </trkpt>
      <trkpt lat="42.21246" lon="8.98696">
        <ele>1795.4</ele>
        <time>2015-06-22T12:48:30Z</time>
      </trkpt>
      <trkpt lat="42.21246" lon="8.9869">
        <ele>1794.92</ele>
        <time>2015-06-22T12:48:34Z</time>
      </trkpt>
      <trkpt lat="42.21245" lon="8.98686">
        <ele>1795.4</ele>
        <time>2015-06-22T12:48:38Z</time>
      </trkpt>
      <trkpt lat="42.21246" lon="8.98679">
        <ele>1795.4</ele>
        <time>2015-06-22T12:48:43Z</time>
      </trkpt>
      <trkpt lat="42.21251" lon="8.98673">
        <ele>1794.92</ele>
        <time>2015-06-22T12:48:49Z</time>
      </trkpt>
      <trkpt lat="42.2125" lon="8.9867">
        <ele>1795.4</ele>
        <time>2015-06-22T12:48:51Z</time>
      </trkpt>
      <trkpt lat="42.2125" lon="8.98668">
        <ele>1794.92</ele>
        <time>2015-06-22T12:48:53Z</time>
      </trkpt>
      <trkpt lat="42.21259" lon="8.98653">
        <ele>1794.44</ele>
        <time>2015-06-22T12:49:08Z</time>
      </trkpt>
      <trkpt lat="42.21269" lon="8.98638">
        <ele>1793.96</ele>
        <time>2015-06-22T12:49:22Z</time>
      </trkpt>
      <trkpt lat="42.21274" lon="8.98623">
        <ele>1794.44</ele>
        <time>2015-06-22T12:49:33Z</time>
      </trkpt>
      <trkpt lat="42.21285" lon="8.98604">
        <ele>1793.96</ele>
        <time>2015-06-22T12:49:49Z</time>
      </trkpt>
      <trkpt lat="42.21288" lon="8.98596">
        <ele>1793.96</ele>
        <time>2015-06-22T12:49:57Z</time>
      </trkpt>
      <trkpt lat="42.2129" lon="8.98594">
        <ele>1793.96</ele>
        <time>2015-06-22T12:49:59Z</time>
      </trkpt>
      <trkpt lat="42.21292" lon="8.98592">
        <ele>1794.44</ele>
        <time>2015-06-22T12:50:04Z</time>
      </trkpt>
      <trkpt lat="42.21299" lon="8.9858">
        <ele>1794.92</ele>
        <time>2015-06-22T12:50:18Z</time>
      </trkpt>
      <trkpt lat="42.21299" lon="8.9858">
        <ele>1794.44</ele>
        <time>2015-06-22T12:50:19Z</time>
      </trkpt>
      <trkpt lat="42.21304" lon="8.98578">
        <ele>1794.44</ele>
        <time>2015-06-22T12:50:24Z</time>
      </trkpt>
      <trkpt lat="42.21311" lon="8.98572">
        <ele>1795.4</ele>
        <time>2015-06-22T12:50:38Z</time>
      </trkpt>
      <trkpt lat="42.21317" lon="8.98563">
        <ele>1794.44</ele>
        <time>2015-06-22T12:50:52Z</time>
      </trkpt>
      <trkpt lat="42.21324" lon="8.98557">
        <ele>1792.52</ele>
        <time>2015-06-22T12:51:07Z</time>
      </trkpt>
      <trkpt lat="42.21325" lon="8.98548">
        <ele>1791.07</ele>
        <time>2015-06-22T12:51:22Z</time>
      </trkpt>
      <trkpt lat="42.21329" lon="8.98538">
        <ele>1789.15</ele>
        <time>2015-06-22T12:51:36Z</time>
      </trkpt>
      <trkpt lat="42.21334" lon="8.9853">
        <ele>1787.71</ele>
        <time>2015-06-22T12:51:50Z</time>
      </trkpt>
      <trkpt lat="42.21335" lon="8.98525">
        <ele>1786.75</ele>
        <time>2015-06-22T12:52:05Z</time>
      </trkpt>
      <trkpt lat="42.21337" lon="8.98524">
        <ele>1785.79</ele>
        <time>2015-06-22T12:52:26Z</time>
      </trkpt>
      <trkpt lat="42.21338" lon="8.98521">
        <ele>1784.34</ele>
        <time>2015-06-22T12:52:41Z</time>
      </trkpt>
      <trkpt lat="42.21341" lon="8.98518">
        <ele>1782.42</ele>
        <time>2015-06-22T12:52:53Z</time>
      </trkpt>
      <trkpt lat="42.21343" lon="8.98514">
        <ele>1780.98</ele>
        <time>2015-06-22T12:53:08Z</time>
      </trkpt>
      <trkpt lat="42.21345" lon="8.98508">
        <ele>1778.58</ele>
        <time>2015-06-22T12:53:22Z</time>
      </trkpt>
      <trkpt lat="42.21349" lon="8.98503">
        <ele>1777.13</ele>
        <time>2015-06-22T12:53:38Z</time>
      </trkpt>
      <trkpt lat="42.21355" lon="8.98497">
        <ele>1775.69</ele>
        <time>2015-06-22T12:53:53Z</time>
      </trkpt>
      <trkpt lat="42.21356" lon="8.98489">
        <ele>1772.81</ele>
        <time>2015-06-22T12:54:07Z</time>
      </trkpt>
      <trkpt lat="42.21359" lon="8.98489">
        <ele>1771.37</ele>
        <time>2015-06-22T12:54:24Z</time>
      </trkpt>
      <trkpt lat="42.21364" lon="8.98485">
        <ele>1769.92</ele>
        <time>2015-06-22T12:54:35Z</time>
      </trkpt>
      <trkpt lat="42.21364" lon="8.98483">
        <ele>1768.96</ele>
        <time>2015-06-22T12:54:39Z</time>
      </trkpt>
      <trkpt lat="42.21365" lon="8.98478">
        <ele>1768.96</ele>
        <time>2015-06-22T12:54:43Z</time>
      </trkpt>
      <trkpt lat="42.21368" lon="8.98474">
        <ele>1768.48</ele>
        <time>2015-06-22T12:54:47Z</time>
      </trkpt>
      <trkpt lat="42.21371" lon="8.98468">
        <ele>1768</ele>
        <time>2015-06-22T12:54:52Z</time>
      </trkpt>
      <trkpt lat="42.21383" lon="8.98461">
        <ele>1766.56</ele>
        <time>2015-06-22T12:55:08Z</time>
      </trkpt>
      <trkpt lat="42.21386" lon="8.98455">
        <ele>1765.6</ele>
        <time>2015-06-22T12:55:21Z</time>
      </trkpt>
      <trkpt lat="42.21389" lon="8.98451">
        <ele>1764.64</ele>
        <time>2015-06-22T12:55:32Z</time>
      </trkpt>
      <trkpt lat="42.21391" lon="8.98448">
        <ele>1764.16</ele>
        <time>2015-06-22T12:55:47Z</time>
      </trkpt>
      <trkpt lat="42.2139" lon="8.98447">
        <ele>1763.68</ele>
        <time>2015-06-22T12:56:01Z</time>
      </trkpt>
      <trkpt lat="42.21389" lon="8.98444">
        <ele>1762.71</ele>
        <time>2015-06-22T12:56:14Z</time>
      </trkpt>
      <trkpt lat="42.21391" lon="8.98445">
        <ele>1763.2</ele>
        <time>2015-06-22T12:56:31Z</time>
      </trkpt>
      <trkpt lat="42.2139" lon="8.98443">
        <ele>1762.71</ele>
        <time>2015-06-22T12:56:56Z</time>
      </trkpt>
      <trkpt lat="42.21392" lon="8.98443">
        <ele>1761.75</ele>
        <time>2015-06-22T12:57:09Z</time>
      </trkpt>
      <trkpt lat="42.21394" lon="8.98442">
        <ele>1761.27</ele>
        <time>2015-06-22T12:57:24Z</time>
      </trkpt>
      <trkpt lat="42.21397" lon="8.98442">
        <ele>1760.31</ele>
        <time>2015-06-22T12:57:36Z</time>
      </trkpt>
      <trkpt lat="42.21399" lon="8.98442">
        <ele>1759.35</ele>
        <time>2015-06-22T12:57:49Z</time>
      </trkpt>
      <trkpt lat="42.214" lon="8.98436">
        <ele>1756.47</ele>
        <time>2015-06-22T12:58:06Z</time>
      </trkpt>
      <trkpt lat="42.21404" lon="8.98435">
        <ele>1755.02</ele>
        <time>2015-06-22T12:58:19Z</time>
      </trkpt>
      <trkpt lat="42.21406" lon="8.98434">
        <ele>1754.06</ele>
        <time>2015-06-22T12:58:41Z</time>
      </trkpt>
      <trkpt lat="42.21409" lon="8.98433">
        <ele>1752.14</ele>
        <time>2015-06-22T12:58:56Z</time>
      </trkpt>
      <trkpt lat="42.2141" lon="8.9843">
        <ele>1750.7</ele>
        <time>2015-06-22T12:59:09Z</time>
      </trkpt>
      <trkpt lat="42.21411" lon="8.98429">
        <ele>1750.22</ele>
        <time>2015-06-22T12:59:25Z</time>
      </trkpt>
      <trkpt lat="42.21412" lon="8.98428">
        <ele>1748.78</ele>
        <time>2015-06-22T12:59:44Z</time>
      </trkpt>
      <trkpt lat="42.21415" lon="8.98426">
        <ele>1748.78</ele>
        <time>2015-06-22T13:00:05Z</time>
      </trkpt>
      <trkpt lat="42.21416" lon="8.98429">
        <ele>1747.81</ele>
        <time>2015-06-22T13:00:17Z</time>
      </trkpt>
      <trkpt lat="42.2142" lon="8.98426">
        <ele>1745.89</ele>
        <time>2015-06-22T13:00:29Z</time>
      </trkpt>
      <trkpt lat="42.21421" lon="8.98427">
        <ele>1744.93</ele>
        <time>2015-06-22T13:00:54Z</time>
      </trkpt>
      <trkpt lat="42.21424" lon="8.98427">
        <ele>1743.49</ele>
        <time>2015-06-22T13:01:09Z</time>
      </trkpt>
      <trkpt lat="42.21424" lon="8.98425">
        <ele>1742.05</ele>
        <time>2015-06-22T13:01:19Z</time>
      </trkpt>
      <trkpt lat="42.21429" lon="8.98426">
        <ele>1741.08</ele>
        <time>2015-06-22T13:01:33Z</time>
      </trkpt>
      <trkpt lat="42.2143" lon="8.98427">
        <ele>1739.16</ele>
        <time>2015-06-22T13:01:49Z</time>
      </trkpt>
      <trkpt lat="42.21433" lon="8.98428">
        <ele>1739.64</ele>
        <time>2015-06-22T13:02:15Z</time>
      </trkpt>
      <trkpt lat="42.21438" lon="8.98426">
        <ele>1736.76</ele>
        <time>2015-06-22T13:02:28Z</time>
      </trkpt>
      <trkpt lat="42.21442" lon="8.98422">
        <ele>1735.32</ele>
        <time>2015-06-22T13:02:41Z</time>
      </trkpt>
      <trkpt lat="42.2145" lon="8.98422">
        <ele>1732.91</ele>
        <time>2015-06-22T13:02:54Z</time>
      </trkpt>
      <trkpt lat="42.21454" lon="8.98425">
        <ele>1731.47</ele>
        <time>2015-06-22T13:03:08Z</time>
      </trkpt>
      <trkpt lat="42.21454" lon="8.98422">
        <ele>1730.51</ele>
        <time>2015-06-22T13:03:20Z</time>
      </trkpt>
      <trkpt lat="42.21454" lon="8.98418">
        <ele>1728.11</ele>
        <time>2015-06-22T13:03:36Z</time>
      </trkpt>
      <trkpt lat="42.2146" lon="8.98414">
        <ele>1726.18</ele>
        <time>2015-06-22T13:03:49Z</time>
      </trkpt>
      <trkpt lat="42.2147" lon="8.98413">
        <ele>1723.78</ele>
        <time>2015-06-22T13:04:06Z</time>
      </trkpt>
      <trkpt lat="42.21471" lon="8.98415">
        <ele>1723.3</ele>
        <time>2015-06-22T13:04:08Z</time>
      </trkpt>
      <trkpt lat="42.21479" lon="8.98419">
        <ele>1723.78</ele>
        <time>2015-06-22T13:04:23Z</time>
      </trkpt>
      <trkpt lat="42.21485" lon="8.98419">
        <ele>1721.86</ele>
        <time>2015-06-22T13:04:36Z</time>
      </trkpt>
      <trkpt lat="42.21489" lon="8.98417">
        <ele>1721.38</ele>
        <time>2015-06-22T13:04:48Z</time>
      </trkpt>
      <trkpt lat="42.21492" lon="8.98411">
        <ele>1718.97</ele>
        <time>2015-06-22T13:05:02Z</time>
      </trkpt>
      <trkpt lat="42.21495" lon="8.98408">
        <ele>1716.57</ele>
        <time>2015-06-22T13:05:14Z</time>
      </trkpt>
      <trkpt lat="42.215" lon="8.98411">
        <ele>1716.09</ele>
        <time>2015-06-22T13:05:29Z</time>
      </trkpt>
      <trkpt lat="42.21504" lon="8.98412">
        <ele>1715.13</ele>
        <time>2015-06-22T13:05:45Z</time>
      </trkpt>
      <trkpt lat="42.21507" lon="8.9841">
        <ele>1713.69</ele>
        <time>2015-06-22T13:05:56Z</time>
      </trkpt>
      <trkpt lat="42.21509" lon="8.98404">
        <ele>1712.25</ele>
        <time>2015-06-22T13:06:10Z</time>
      </trkpt>
      <trkpt lat="42.21509" lon="8.98401">
        <ele>1712.25</ele>
        <time>2015-06-22T13:06:14Z</time>
      </trkpt>
      <trkpt lat="42.21513" lon="8.98404">
        <ele>1710.32</ele>
        <time>2015-06-22T13:06:25Z</time>
      </trkpt>
      <trkpt lat="42.21515" lon="8.98412">
        <ele>1708.88</ele>
        <time>2015-06-22T13:06:41Z</time>
      </trkpt>
      <trkpt lat="42.21516" lon="8.98418">
        <ele>1707.92</ele>
        <time>2015-06-22T13:06:54Z</time>
      </trkpt>
      <trkpt lat="42.21516" lon="8.98418">
        <ele>1706.96</ele>
        <time>2015-06-22T13:07:07Z</time>
      </trkpt>
      <trkpt lat="42.21519" lon="8.98418">
        <ele>1706.48</ele>
        <time>2015-06-22T13:07:25Z</time>
      </trkpt>
      <trkpt lat="42.21521" lon="8.98412">
        <ele>1704.55</ele>
        <time>2015-06-22T13:07:38Z</time>
      </trkpt>
      <trkpt lat="42.21524" lon="8.9841">
        <ele>1703.11</ele>
        <time>2015-06-22T13:07:55Z</time>
      </trkpt>
      <trkpt lat="42.21525" lon="8.98408">
        <ele>1702.63</ele>
        <time>2015-06-22T13:08:11Z</time>
      </trkpt>
      <trkpt lat="42.21526" lon="8.98405">
        <ele>1701.19</ele>
        <time>2015-06-22T13:08:31Z</time>
      </trkpt>
      <trkpt lat="42.21525" lon="8.98401">
        <ele>1699.27</ele>
        <time>2015-06-22T13:08:44Z</time>
      </trkpt>
      <trkpt lat="42.21527" lon="8.984">
        <ele>1697.83</ele>
        <time>2015-06-22T13:08:58Z</time>
      </trkpt>
      <trkpt lat="42.2153" lon="8.98402">
        <ele>1695.9</ele>
        <time>2015-06-22T13:09:15Z</time>
      </trkpt>
      <trkpt lat="42.21533" lon="8.98399">
        <ele>1693.98</ele>
        <time>2015-06-22T13:09:33Z</time>
      </trkpt>
      <trkpt lat="42.21533" lon="8.98397">
        <ele>1692.54</ele>
        <time>2015-06-22T13:09:48Z</time>
      </trkpt>
      <trkpt lat="42.21536" lon="8.98392">
        <ele>1691.1</ele>
        <time>2015-06-22T13:10:04Z</time>
      </trkpt>
      <trkpt lat="42.21538" lon="8.98389">
        <ele>1689.65</ele>
        <time>2015-06-22T13:10:18Z</time>
      </trkpt>
      <trkpt lat="42.21539" lon="8.98387">
        <ele>1687.73</ele>
        <time>2015-06-22T13:10:31Z</time>
      </trkpt>
      <trkpt lat="42.21541" lon="8.98384">
        <ele>1686.77</ele>
        <time>2015-06-22T13:10:48Z</time>
      </trkpt>
      <trkpt lat="42.21542" lon="8.98379">
        <ele>1685.81</ele>
        <time>2015-06-22T13:11:00Z</time>
      </trkpt>
      <trkpt lat="42.21544" lon="8.98375">
        <ele>1684.37</ele>
        <time>2015-06-22T13:11:15Z</time>
      </trkpt>
      <trkpt lat="42.21552" lon="8.98375">
        <ele>1682.44</ele>
        <time>2015-06-22T13:11:28Z</time>
      </trkpt>
      <trkpt lat="42.21553" lon="8.98371">
        <ele>1681.96</ele>
        <time>2015-06-22T13:11:43Z</time>
      </trkpt>
      <trkpt lat="42.21556" lon="8.98371">
        <ele>1679.56</ele>
        <time>2015-06-22T13:11:57Z</time>
      </trkpt>
      <trkpt lat="42.21561" lon="8.98369">
        <ele>1678.6</ele>
        <time>2015-06-22T13:12:11Z</time>
      </trkpt>
      <trkpt lat="42.21568" lon="8.98363">
        <ele>1676.68</ele>
        <time>2015-06-22T13:12:27Z</time>
      </trkpt>
      <trkpt lat="42.21573" lon="8.98354">
        <ele>1674.27</ele>
        <time>2015-06-22T13:12:41Z</time>
      </trkpt>
      <trkpt lat="42.21585" lon="8.98358">
        <ele>1671.87</ele>
        <time>2015-06-22T13:12:55Z</time>
      </trkpt>
      <trkpt lat="42.2159" lon="8.98357">
        <ele>1670.91</ele>
        <time>2015-06-22T13:13:01Z</time>
      </trkpt>
      <trkpt lat="42.21599" lon="8.98356">
        <ele>1669.95</ele>
        <time>2015-06-22T13:13:16Z</time>
      </trkpt>
      <trkpt lat="42.2161" lon="8.98356">
        <ele>1668.02</ele>
        <time>2015-06-22T13:13:30Z</time>
      </trkpt>
      <trkpt lat="42.21617" lon="8.9835">
        <ele>1666.58</ele>
        <time>2015-06-22T13:13:43Z</time>
      </trkpt>
      <trkpt lat="42.21627" lon="8.98351">
        <ele>1665.14</ele>
        <time>2015-06-22T13:13:58Z</time>
      </trkpt>
      <trkpt lat="42.21636" lon="8.98351">
        <ele>1664.66</ele>
        <time>2015-06-22T13:14:10Z</time>
      </trkpt>
      <trkpt lat="42.21642" lon="8.98348">
        <ele>1664.66</ele>
        <time>2015-06-22T13:14:17Z</time>
      </trkpt>
      <trkpt lat="42.21651" lon="8.98348">
        <ele>1664.18</ele>
        <time>2015-06-22T13:14:27Z</time>
      </trkpt>
      <trkpt lat="42.21659" lon="8.98351">
        <ele>1663.22</ele>
        <time>2015-06-22T13:14:41Z</time>
      </trkpt>
      <trkpt lat="42.21666" lon="8.98347">
        <ele>1662.26</ele>
        <time>2015-06-22T13:14:55Z</time>
      </trkpt>
      <trkpt lat="42.21676" lon="8.98336">
        <ele>1661.3</ele>
        <time>2015-06-22T13:15:11Z</time>
      </trkpt>
      <trkpt lat="42.21683" lon="8.98326">
        <ele>1659.85</ele>
        <time>2015-06-22T13:15:25Z</time>
      </trkpt>
      <trkpt lat="42.2169" lon="8.98331">
        <ele>1660.33</ele>
        <time>2015-06-22T13:15:40Z</time>
      </trkpt>
      <trkpt lat="42.21694" lon="8.98326">
        <ele>1659.37</ele>
        <time>2015-06-22T13:15:54Z</time>
      </trkpt>
      <trkpt lat="42.21702" lon="8.98323">
        <ele>1659.85</ele>
        <time>2015-06-22T13:16:10Z</time>
      </trkpt>
      <trkpt lat="42.21705" lon="8.98313">
        <ele>1658.41</ele>
        <time>2015-06-22T13:16:23Z</time>
      </trkpt>
      <trkpt lat="42.2171" lon="8.98307">
        <ele>1657.93</ele>
        <time>2015-06-22T13:16:35Z</time>
      </trkpt>
      <trkpt lat="42.21714" lon="8.983">
        <ele>1657.45</ele>
        <time>2015-06-22T13:16:47Z</time>
      </trkpt>
      <trkpt lat="42.21718" lon="8.9829">
        <ele>1655.05</ele>
        <time>2015-06-22T13:17:02Z</time>
      </trkpt>
      <trkpt lat="42.21725" lon="8.98287">
        <ele>1654.09</ele>
        <time>2015-06-22T13:17:18Z</time>
      </trkpt>
      <trkpt lat="42.21736" lon="8.98281">
        <ele>1653.12</ele>
        <time>2015-06-22T13:17:34Z</time>
      </trkpt>
      <trkpt lat="42.21746" lon="8.98278">
        <ele>1653.6</ele>
        <time>2015-06-22T13:17:48Z</time>
      </trkpt>
      <trkpt lat="42.21753" lon="8.9828">
        <ele>1653.6</ele>
        <time>2015-06-22T13:18:03Z</time>
      </trkpt>
      <trkpt lat="42.21759" lon="8.98276">
        <ele>1652.16</ele>
        <time>2015-06-22T13:18:17Z</time>
      </trkpt>
      <trkpt lat="42.21769" lon="8.98273">
        <ele>1650.24</ele>
        <time>2015-06-22T13:18:33Z</time>
      </trkpt>
      <trkpt lat="42.21779" lon="8.98267">
        <ele>1648.32</ele>
        <time>2015-06-22T13:18:50Z</time>
      </trkpt>
      <trkpt lat="42.21792" lon="8.98258">
        <ele>1648.32</ele>
        <time>2015-06-22T13:19:06Z</time>
      </trkpt>
      <trkpt lat="42.21808" lon="8.98254">
        <ele>1646.88</ele>
        <time>2015-06-22T13:19:23Z</time>
      </trkpt>
      <trkpt lat="42.21821" lon="8.98252">
        <ele>1645.91</ele>
        <time>2015-06-22T13:19:37Z</time>
      </trkpt>
      <trkpt lat="42.21833" lon="8.98252">
        <ele>1643.99</ele>
        <time>2015-06-22T13:19:52Z</time>
      </trkpt>
      <trkpt lat="42.21844" lon="8.98247">
        <ele>1642.55</ele>
        <time>2015-06-22T13:20:08Z</time>
      </trkpt>
      <trkpt lat="42.21849" lon="8.98237">
        <ele>1640.15</ele>
        <time>2015-06-22T13:20:23Z</time>
      </trkpt>
      <trkpt lat="42.21855" lon="8.98226">
        <ele>1638.22</ele>
        <time>2015-06-22T13:20:37Z</time>
      </trkpt>
      <trkpt lat="42.21863" lon="8.98221">
        <ele>1636.78</ele>
        <time>2015-06-22T13:20:53Z</time>
      </trkpt>
      <trkpt lat="42.21868" lon="8.98219">
        <ele>1635.34</ele>
        <time>2015-06-22T13:21:06Z</time>
      </trkpt>
      <trkpt lat="42.21871" lon="8.98214">
        <ele>1632.94</ele>
        <time>2015-06-22T13:21:19Z</time>
      </trkpt>
      <trkpt lat="42.21882" lon="8.9821">
        <ele>1631.49</ele>
        <time>2015-06-22T13:21:33Z</time>
      </trkpt>
      <trkpt lat="42.21888" lon="8.98208">
        <ele>1630.53</ele>
        <time>2015-06-22T13:21:46Z</time>
      </trkpt>
      <trkpt lat="42.21896" lon="8.98206">
        <ele>1629.57</ele>
        <time>2015-06-22T13:22:00Z</time>
      </trkpt>
      <trkpt lat="42.21897" lon="8.98201">
        <ele>1628.61</ele>
        <time>2015-06-22T13:22:12Z</time>
      </trkpt>
      <trkpt lat="42.21905" lon="8.98198">
        <ele>1627.17</ele>
        <time>2015-06-22T13:22:25Z</time>
      </trkpt>
      <trkpt lat="42.21912" lon="8.98192">
        <ele>1625.73</ele>
        <time>2015-06-22T13:22:43Z</time>
      </trkpt>
      <trkpt lat="42.21917" lon="8.98189">
        <ele>1624.28</ele>
        <time>2015-06-22T13:22:55Z</time>
      </trkpt>
      <trkpt lat="42.21926" lon="8.98186">
        <ele>1622.36</ele>
        <time>2015-06-22T13:23:09Z</time>
      </trkpt>
      <trkpt lat="42.21937" lon="8.98182">
        <ele>1622.36</ele>
        <time>2015-06-22T13:23:23Z</time>
      </trkpt>
      <trkpt lat="42.21945" lon="8.98176">
        <ele>1622.36</ele>
        <time>2015-06-22T13:23:37Z</time>
      </trkpt>
      <trkpt lat="42.21954" lon="8.98171">
        <ele>1621.4</ele>
        <time>2015-06-22T13:23:51Z</time>
      </trkpt>
      <trkpt lat="42.2196" lon="8.98169">
        <ele>1621.88</ele>
        <time>2015-06-22T13:24:04Z</time>
      </trkpt>
      <trkpt lat="42.21965" lon="8.98164">
        <ele>1621.4</ele>
        <time>2015-06-22T13:24:15Z</time>
      </trkpt>
      <trkpt lat="42.21973" lon="8.9816">
        <ele>1620.92</ele>
        <time>2015-06-22T13:24:27Z</time>
      </trkpt>
      <trkpt lat="42.21981" lon="8.98153">
        <ele>1620.92</ele>
        <time>2015-06-22T13:24:41Z</time>
      </trkpt>
      <trkpt lat="42.21982" lon="8.98151">
        <ele>1619.96</ele>
        <time>2015-06-22T13:24:44Z</time>
      </trkpt>
      <trkpt lat="42.21993" lon="8.98146">
        <ele>1619.96</ele>
        <time>2015-06-22T13:24:59Z</time>
      </trkpt>
      <trkpt lat="42.21998" lon="8.98135">
        <ele>1618.04</ele>
        <time>2015-06-22T13:25:13Z</time>
      </trkpt>
      <trkpt lat="42.22005" lon="8.98129">
        <ele>1617.07</ele>
        <time>2015-06-22T13:25:23Z</time>
      </trkpt>
      <trkpt lat="42.22017" lon="8.9812">
        <ele>1615.63</ele>
        <time>2015-06-22T13:25:40Z</time>
      </trkpt>
      <trkpt lat="42.22026" lon="8.98113">
        <ele>1613.71</ele>
        <time>2015-06-22T13:25:54Z</time>
      </trkpt>
      <trkpt lat="42.2203" lon="8.98105">
        <ele>1612.27</ele>
        <time>2015-06-22T13:26:08Z</time>
      </trkpt>
      <trkpt lat="42.22033" lon="8.98096">
        <ele>1610.35</ele>
        <time>2015-06-22T13:26:21Z</time>
      </trkpt>
      <trkpt lat="42.22035" lon="8.98089">
        <ele>1607.94</ele>
        <time>2015-06-22T13:26:38Z</time>
      </trkpt>
      <trkpt lat="42.22034" lon="8.98082">
        <ele>1606.02</ele>
        <time>2015-06-22T13:26:48Z</time>
      </trkpt>
      <trkpt lat="42.2203" lon="8.98078">
        <ele>1606.02</ele>
        <time>2015-06-22T13:27:03Z</time>
      </trkpt>
      <trkpt lat="42.22027" lon="8.98071">
        <ele>1606.02</ele>
        <time>2015-06-22T13:27:27Z</time>
      </trkpt>
      <trkpt lat="42.2202" lon="8.9807">
        <ele>1607.46</ele>
        <time>2015-06-22T13:27:43Z</time>
      </trkpt>
      <trkpt lat="42.22012" lon="8.98064">
        <ele>1608.42</ele>
        <time>2015-06-22T13:27:58Z</time>
      </trkpt>
      <trkpt lat="42.22009" lon="8.98049">
        <ele>1609.86</ele>
        <time>2015-06-22T13:28:14Z</time>
      </trkpt>
      <trkpt lat="42.22001" lon="8.98038">
        <ele>1612.75</ele>
        <time>2015-06-22T13:28:32Z</time>
      </trkpt>
      <trkpt lat="42.21993" lon="8.98032">
        <ele>1613.71</ele>
        <time>2015-06-22T13:28:48Z</time>
      </trkpt>
      <trkpt lat="42.21994" lon="8.9803">
        <ele>1613.71</ele>
        <time>2015-06-22T13:29:13Z</time>
      </trkpt>
      <trkpt lat="42.21992" lon="8.98032">
        <ele>1613.23</ele>
        <time>2015-06-22T13:29:38Z</time>
      </trkpt>
      <trkpt lat="42.21992" lon="8.9803">
        <ele>1613.23</ele>
        <time>2015-06-22T14:06:48Z</time>
      </trkpt>
      <trkpt lat="42.21993" lon="8.98039">
        <ele>1613.23</ele>
        <time>2015-06-22T14:06:49Z</time>
      </trkpt>
      <trkpt lat="42.21999" lon="8.98035">
        <ele>1611.79</ele>
        <time>2015-06-22T14:07:04Z</time>
      </trkpt>
      <trkpt lat="42.22002" lon="8.98047">
        <ele>1610.83</ele>
        <time>2015-06-22T14:07:20Z</time>
      </trkpt>
      <trkpt lat="42.22002" lon="8.98053">
        <ele>1611.31</ele>
        <time>2015-06-22T14:07:26Z</time>
      </trkpt>
      <trkpt lat="42.22006" lon="8.98062">
        <ele>1610.35</ele>
        <time>2015-06-22T14:07:41Z</time>
      </trkpt>
      <trkpt lat="42.2201" lon="8.98058">
        <ele>1607.94</ele>
        <time>2015-06-22T14:07:51Z</time>
      </trkpt>
      <trkpt lat="42.22013" lon="8.98062">
        <ele>1606.98</ele>
        <time>2015-06-22T14:07:58Z</time>
      </trkpt>
      <trkpt lat="42.22022" lon="8.98068">
        <ele>1606.98</ele>
        <time>2015-06-22T14:08:13Z</time>
      </trkpt>
      <trkpt lat="42.22027" lon="8.98066">
        <ele>1604.58</ele>
        <time>2015-06-22T14:08:24Z</time>
      </trkpt>
      <trkpt lat="42.22034" lon="8.98082">
        <ele>1605.06</ele>
        <time>2015-06-22T14:08:39Z</time>
      </trkpt>
      <trkpt lat="42.22038" lon="8.98082">
        <ele>1604.58</ele>
        <time>2015-06-22T14:08:46Z</time>
      </trkpt>
      <trkpt lat="42.22043" lon="8.98081">
        <ele>1604.58</ele>
        <time>2015-06-22T14:09:01Z</time>
      </trkpt>
      <trkpt lat="42.22047" lon="8.98077">
        <ele>1602.66</ele>
        <time>2015-06-22T14:09:14Z</time>
      </trkpt>
      <trkpt lat="42.22055" lon="8.98071">
        <ele>1601.21</ele>
        <time>2015-06-22T14:09:29Z</time>
      </trkpt>
      <trkpt lat="42.22055" lon="8.98065">
        <ele>1600.25</ele>
        <time>2015-06-22T14:09:42Z</time>
      </trkpt>
      <trkpt lat="42.22058" lon="8.98056">
        <ele>1598.33</ele>
        <time>2015-06-22T14:09:57Z</time>
      </trkpt>
      <trkpt lat="42.22066" lon="8.9805">
        <ele>1596.41</ele>
        <time>2015-06-22T14:10:10Z</time>
      </trkpt>
      <trkpt lat="42.22071" lon="8.98045">
        <ele>1594.96</ele>
        <time>2015-06-22T14:10:22Z</time>
      </trkpt>
      <trkpt lat="42.22076" lon="8.98039">
        <ele>1594</ele>
        <time>2015-06-22T14:10:35Z</time>
      </trkpt>
      <trkpt lat="42.22083" lon="8.98032">
        <ele>1592.08</ele>
        <time>2015-06-22T14:10:47Z</time>
      </trkpt>
      <trkpt lat="42.22091" lon="8.98029">
        <ele>1591.6</ele>
        <time>2015-06-22T14:10:57Z</time>
      </trkpt>
      <trkpt lat="42.221" lon="8.98026">
        <ele>1593.04</ele>
        <time>2015-06-22T14:11:09Z</time>
      </trkpt>
      <trkpt lat="42.22111" lon="8.98025">
        <ele>1594.48</ele>
        <time>2015-06-22T14:11:23Z</time>
      </trkpt>
      <trkpt lat="42.22115" lon="8.98022">
        <ele>1594.48</ele>
        <time>2015-06-22T14:11:29Z</time>
      </trkpt>
      <trkpt lat="42.22116" lon="8.9802">
        <ele>1594.48</ele>
        <time>2015-06-22T14:11:31Z</time>
      </trkpt>
      <trkpt lat="42.22126" lon="8.98012">
        <ele>1592.08</ele>
        <time>2015-06-22T14:11:47Z</time>
      </trkpt>
      <trkpt lat="42.22131" lon="8.98007">
        <ele>1591.6</ele>
        <time>2015-06-22T14:11:54Z</time>
      </trkpt>
      <trkpt lat="42.22144" lon="8.98005">
        <ele>1591.12</ele>
        <time>2015-06-22T14:12:09Z</time>
      </trkpt>
      <trkpt lat="42.22147" lon="8.98001">
        <ele>1590.64</ele>
        <time>2015-06-22T14:12:14Z</time>
      </trkpt>
      <trkpt lat="42.22152" lon="8.98001">
        <ele>1592.08</ele>
        <time>2015-06-22T14:12:28Z</time>
      </trkpt>
      <trkpt lat="42.22156" lon="8.97995">
        <ele>1591.12</ele>
        <time>2015-06-22T14:12:46Z</time>
      </trkpt>
      <trkpt lat="42.22163" lon="8.9799">
        <ele>1592.08</ele>
        <time>2015-06-22T14:12:54Z</time>
      </trkpt>
      <trkpt lat="42.22173" lon="8.97989">
        <ele>1593.04</ele>
        <time>2015-06-22T14:13:07Z</time>
      </trkpt>
      <trkpt lat="42.22184" lon="8.97985">
        <ele>1591.6</ele>
        <time>2015-06-22T14:13:22Z</time>
      </trkpt>
      <trkpt lat="42.2219" lon="8.97984">
        <ele>1592.08</ele>
        <time>2015-06-22T14:13:29Z</time>
      </trkpt>
      <trkpt lat="42.22197" lon="8.97981">
        <ele>1591.12</ele>
        <time>2015-06-22T14:13:37Z</time>
      </trkpt>
      <trkpt lat="42.22207" lon="8.9798">
        <ele>1590.64</ele>
        <time>2015-06-22T14:13:49Z</time>
      </trkpt>
      <trkpt lat="42.2221" lon="8.9798">
        <ele>1591.12</ele>
        <time>2015-06-22T14:13:52Z</time>
      </trkpt>
      <trkpt lat="42.22212" lon="8.97977">
        <ele>1590.64</ele>
        <time>2015-06-22T14:13:57Z</time>
      </trkpt>
      <trkpt lat="42.22219" lon="8.97975">
        <ele>1589.68</ele>
        <time>2015-06-22T14:14:11Z</time>
      </trkpt>
      <trkpt lat="42.22228" lon="8.97973">
        <ele>1589.68</ele>
        <time>2015-06-22T14:14:24Z</time>
      </trkpt>
      <trkpt lat="42.22233" lon="8.9797">
        <ele>1589.2</ele>
        <time>2015-06-22T14:14:31Z</time>
      </trkpt>
      <trkpt lat="42.22239" lon="8.97968">
        <ele>1588.72</ele>
        <time>2015-06-22T14:14:38Z</time>
      </trkpt>
      <trkpt lat="42.22242" lon="8.97966">
        <ele>1588.24</ele>
        <time>2015-06-22T14:14:41Z</time>
      </trkpt>
      <trkpt lat="42.22253" lon="8.97968">
        <ele>1589.68</ele>
        <time>2015-06-22T14:14:56Z</time>
      </trkpt>
      <trkpt lat="42.22263" lon="8.97967">
        <ele>1589.68</ele>
        <time>2015-06-22T14:15:08Z</time>
      </trkpt>
      <trkpt lat="42.22272" lon="8.97964">
        <ele>1589.68</ele>
        <time>2015-06-22T14:15:23Z</time>
      </trkpt>
      <trkpt lat="42.22279" lon="8.97961">
        <ele>1588.72</ele>
        <time>2015-06-22T14:15:36Z</time>
      </trkpt>
      <trkpt lat="42.2229" lon="8.97956">
        <ele>1588.24</ele>
        <time>2015-06-22T14:15:50Z</time>
      </trkpt>
      <trkpt lat="42.22301" lon="8.97959">
        <ele>1590.64</ele>
        <time>2015-06-22T14:16:05Z</time>
      </trkpt>
      <trkpt lat="42.22301" lon="8.97959">
        <ele>1591.12</ele>
        <time>2015-06-22T14:16:07Z</time>
      </trkpt>
      <trkpt lat="42.22307" lon="8.97962">
        <ele>1592.56</ele>
        <time>2015-06-22T14:16:15Z</time>
      </trkpt>
      <trkpt lat="42.22319" lon="8.97963">
        <ele>1594</ele>
        <time>2015-06-22T14:16:29Z</time>
      </trkpt>
      <trkpt lat="42.22323" lon="8.97964">
        <ele>1594.96</ele>
        <time>2015-06-22T14:16:33Z</time>
      </trkpt>
      <trkpt lat="42.22337" lon="8.97962">
        <ele>1593.52</ele>
        <time>2015-06-22T14:16:48Z</time>
      </trkpt>
      <trkpt lat="42.22339" lon="8.97962">
        <ele>1593.04</ele>
        <time>2015-06-22T14:16:50Z</time>
      </trkpt>
      <trkpt lat="42.22353" lon="8.97962">
        <ele>1592.08</ele>
        <time>2015-06-22T14:17:04Z</time>
      </trkpt>
      <trkpt lat="42.22361" lon="8.97966">
        <ele>1592.56</ele>
        <time>2015-06-22T14:17:16Z</time>
      </trkpt>
      <trkpt lat="42.22374" lon="8.97966">
        <ele>1593.52</ele>
        <time>2015-06-22T14:17:30Z</time>
      </trkpt>
      <trkpt lat="42.22387" lon="8.97966">
        <ele>1593.52</ele>
        <time>2015-06-22T14:17:43Z</time>
      </trkpt>
      <trkpt lat="42.22395" lon="8.97971">
        <ele>1595.93</ele>
        <time>2015-06-22T14:17:55Z</time>
      </trkpt>
      <trkpt lat="42.22402" lon="8.97976">
        <ele>1597.85</ele>
        <time>2015-06-22T14:18:06Z</time>
      </trkpt>
      <trkpt lat="42.22404" lon="8.97979">
        <ele>1597.37</ele>
        <time>2015-06-22T14:18:11Z</time>
      </trkpt>
      <trkpt lat="42.2241" lon="8.97979">
        <ele>1596.41</ele>
        <time>2015-06-22T14:18:25Z</time>
      </trkpt>
      <trkpt lat="42.22411" lon="8.97974">
        <ele>1595.93</ele>
        <time>2015-06-22T14:18:31Z</time>
      </trkpt>
      <trkpt lat="42.22421" lon="8.97964">
        <ele>1595.93</ele>
        <time>2015-06-22T14:18:42Z</time>
      </trkpt>
      <trkpt lat="42.22424" lon="8.9796">
        <ele>1597.37</ele>
        <time>2015-06-22T14:18:46Z</time>
      </trkpt>
      <trkpt lat="42.22437" lon="8.9795">
        <ele>1595.93</ele>
        <time>2015-06-22T14:19:00Z</time>
      </trkpt>
      <trkpt lat="42.22446" lon="8.9795">
        <ele>1595.93</ele>
        <time>2015-06-22T14:19:09Z</time>
      </trkpt>
      <trkpt lat="42.22457" lon="8.97946">
        <ele>1595.93</ele>
        <time>2015-06-22T14:19:22Z</time>
      </trkpt>
      <trkpt lat="42.22471" lon="8.97943">
        <ele>1594.48</ele>
        <time>2015-06-22T14:19:35Z</time>
      </trkpt>
      <trkpt lat="42.22482" lon="8.97938">
        <ele>1594.48</ele>
        <time>2015-06-22T14:19:47Z</time>
      </trkpt>
      <trkpt lat="42.22483" lon="8.97937">
        <ele>1594.48</ele>
        <time>2015-06-22T14:19:48Z</time>
      </trkpt>
      <trkpt lat="42.22485" lon="8.97936">
        <ele>1594.48</ele>
        <time>2015-06-22T14:19:50Z</time>
      </trkpt>
      <trkpt lat="42.22497" lon="8.97925">
        <ele>1593.52</ele>
        <time>2015-06-22T14:20:04Z</time>
      </trkpt>
      <trkpt lat="42.22502" lon="8.97921">
        <ele>1593.52</ele>
        <time>2015-06-22T14:20:09Z</time>
      </trkpt>
      <trkpt lat="42.22514" lon="8.97919">
        <ele>1592.08</ele>
        <time>2015-06-22T14:20:23Z</time>
      </trkpt>
      <trkpt lat="42.22525" lon="8.97914">
        <ele>1591.6</ele>
        <time>2015-06-22T14:20:35Z</time>
      </trkpt>
      <trkpt lat="42.22532" lon="8.9791">
        <ele>1591.12</ele>
        <time>2015-06-22T14:20:43Z</time>
      </trkpt>
      <trkpt lat="42.22537" lon="8.97911">
        <ele>1591.12</ele>
        <time>2015-06-22T14:20:47Z</time>
      </trkpt>
      <trkpt lat="42.22551" lon="8.97911">
        <ele>1590.16</ele>
        <time>2015-06-22T14:21:01Z</time>
      </trkpt>
      <trkpt lat="42.22555" lon="8.97908">
        <ele>1590.16</ele>
        <time>2015-06-22T14:21:07Z</time>
      </trkpt>
      <trkpt lat="42.22557" lon="8.97907">
        <ele>1589.2</ele>
        <time>2015-06-22T14:21:09Z</time>
      </trkpt>
      <trkpt lat="42.22568" lon="8.97898">
        <ele>1590.16</ele>
        <time>2015-06-22T14:21:23Z</time>
      </trkpt>
      <trkpt lat="42.22573" lon="8.97893">
        <ele>1590.64</ele>
        <time>2015-06-22T14:21:29Z</time>
      </trkpt>
      <trkpt lat="42.22587" lon="8.97883">
        <ele>1588.24</ele>
        <time>2015-06-22T14:21:43Z</time>
      </trkpt>
      <trkpt lat="42.22601" lon="8.97875">
        <ele>1586.79</ele>
        <time>2015-06-22T14:21:58Z</time>
      </trkpt>
      <trkpt lat="42.22603" lon="8.97874">
        <ele>1586.79</ele>
        <time>2015-06-22T14:22:00Z</time>
      </trkpt>
      <trkpt lat="42.22611" lon="8.97862">
        <ele>1584.87</ele>
        <time>2015-06-22T14:22:14Z</time>
      </trkpt>
      <trkpt lat="42.22614" lon="8.9786">
        <ele>1584.39</ele>
        <time>2015-06-22T14:22:17Z</time>
      </trkpt>
      <trkpt lat="42.22617" lon="8.97855">
        <ele>1583.43</ele>
        <time>2015-06-22T14:22:22Z</time>
      </trkpt>
      <trkpt lat="42.22627" lon="8.97855">
        <ele>1582.95</ele>
        <time>2015-06-22T14:22:31Z</time>
      </trkpt>
      <trkpt lat="42.22635" lon="8.97849">
        <ele>1582.47</ele>
        <time>2015-06-22T14:22:39Z</time>
      </trkpt>
      <trkpt lat="42.22639" lon="8.97849">
        <ele>1582.47</ele>
        <time>2015-06-22T14:22:43Z</time>
      </trkpt>
      <trkpt lat="42.22657" lon="8.97846">
        <ele>1581.51</ele>
        <time>2015-06-22T14:22:58Z</time>
      </trkpt>
      <trkpt lat="42.22667" lon="8.97847">
        <ele>1581.51</ele>
        <time>2015-06-22T14:23:08Z</time>
      </trkpt>
      <trkpt lat="42.22674" lon="8.97841">
        <ele>1580.54</ele>
        <time>2015-06-22T14:23:17Z</time>
      </trkpt>
      <trkpt lat="42.22682" lon="8.97831">
        <ele>1579.1</ele>
        <time>2015-06-22T14:23:29Z</time>
      </trkpt>
      <trkpt lat="42.22689" lon="8.97825">
        <ele>1577.66</ele>
        <time>2015-06-22T14:23:37Z</time>
      </trkpt>
      <trkpt lat="42.2269" lon="8.97826">
        <ele>1577.66</ele>
        <time>2015-06-22T14:23:38Z</time>
      </trkpt>
      <trkpt lat="42.22695" lon="8.97831">
        <ele>1576.22</ele>
        <time>2015-06-22T14:23:48Z</time>
      </trkpt>
      <trkpt lat="42.22702" lon="8.97824">
        <ele>1574.3</ele>
        <time>2015-06-22T14:24:01Z</time>
      </trkpt>
      <trkpt lat="42.22702" lon="8.97824">
        <ele>1573.33</ele>
        <time>2015-06-22T14:24:02Z</time>
      </trkpt>
      <trkpt lat="42.22712" lon="8.97821">
        <ele>1570.45</ele>
        <time>2015-06-22T14:24:16Z</time>
      </trkpt>
      <trkpt lat="42.22718" lon="8.97812">
        <ele>1568.53</ele>
        <time>2015-06-22T14:24:29Z</time>
      </trkpt>
      <trkpt lat="42.22726" lon="8.97802">
        <ele>1566.61</ele>
        <time>2015-06-22T14:24:42Z</time>
      </trkpt>
      <trkpt lat="42.22728" lon="8.97801">
        <ele>1566.12</ele>
        <time>2015-06-22T14:24:44Z</time>
      </trkpt>
      <trkpt lat="42.22741" lon="8.97796">
        <ele>1565.16</ele>
        <time>2015-06-22T14:24:59Z</time>
      </trkpt>
      <trkpt lat="42.22744" lon="8.97794">
        <ele>1565.64</ele>
        <time>2015-06-22T14:25:20Z</time>
      </trkpt>
      <trkpt lat="42.22758" lon="8.97787">
        <ele>1563.72</ele>
        <time>2015-06-22T14:25:35Z</time>
      </trkpt>
      <trkpt lat="42.22772" lon="8.97786">
        <ele>1562.28</ele>
        <time>2015-06-22T14:25:50Z</time>
      </trkpt>
      <trkpt lat="42.22777" lon="8.97786">
        <ele>1561.8</ele>
        <time>2015-06-22T14:25:55Z</time>
      </trkpt>
      <trkpt lat="42.22782" lon="8.97783">
        <ele>1560.84</ele>
        <time>2015-06-22T14:26:00Z</time>
      </trkpt>
      <trkpt lat="42.22791" lon="8.97777">
        <ele>1559.88</ele>
        <time>2015-06-22T14:26:10Z</time>
      </trkpt>
      <trkpt lat="42.22813" lon="8.97779">
        <ele>1558.92</ele>
        <time>2015-06-22T14:26:28Z</time>
      </trkpt>
      <trkpt lat="42.22833" lon="8.9778">
        <ele>1559.4</ele>
        <time>2015-06-22T14:26:45Z</time>
      </trkpt>
      <trkpt lat="42.22853" lon="8.97781">
        <ele>1558.43</ele>
        <time>2015-06-22T14:27:00Z</time>
      </trkpt>
      <trkpt lat="42.22874" lon="8.97778">
        <ele>1558.43</ele>
        <time>2015-06-22T14:27:17Z</time>
      </trkpt>
      <trkpt lat="42.2289" lon="8.97777">
        <ele>1557.95</ele>
        <time>2015-06-22T14:27:32Z</time>
      </trkpt>
      <trkpt lat="42.22909" lon="8.97777">
        <ele>1558.43</ele>
        <time>2015-06-22T14:27:48Z</time>
      </trkpt>
      <trkpt lat="42.2293" lon="8.97772">
        <ele>1557.47</ele>
        <time>2015-06-22T14:28:05Z</time>
      </trkpt>
      <trkpt lat="42.22951" lon="8.9777">
        <ele>1557.47</ele>
        <time>2015-06-22T14:28:21Z</time>
      </trkpt>
      <trkpt lat="42.22974" lon="8.97774">
        <ele>1557.47</ele>
        <time>2015-06-22T14:28:39Z</time>
      </trkpt>
      <trkpt lat="42.22993" lon="8.97774">
        <ele>1557.95</ele>
        <time>2015-06-22T14:28:54Z</time>
      </trkpt>
      <trkpt lat="42.23017" lon="8.97779">
        <ele>1557.95</ele>
        <time>2015-06-22T14:29:13Z</time>
      </trkpt>
      <trkpt lat="42.23037" lon="8.97771">
        <ele>1557.47</ele>
        <time>2015-06-22T14:29:29Z</time>
      </trkpt>
      <trkpt lat="42.23056" lon="8.9776">
        <ele>1557.47</ele>
        <time>2015-06-22T14:29:45Z</time>
      </trkpt>
      <trkpt lat="42.23077" lon="8.97747">
        <ele>1556.99</ele>
        <time>2015-06-22T14:30:04Z</time>
      </trkpt>
      <trkpt lat="42.23094" lon="8.97734">
        <ele>1556.51</ele>
        <time>2015-06-22T14:30:19Z</time>
      </trkpt>
      <trkpt lat="42.23112" lon="8.97725">
        <ele>1555.55</ele>
        <time>2015-06-22T14:30:34Z</time>
      </trkpt>
      <trkpt lat="42.23132" lon="8.97721">
        <ele>1555.55</ele>
        <time>2015-06-22T14:30:49Z</time>
      </trkpt>
      <trkpt lat="42.23149" lon="8.97713">
        <ele>1554.59</ele>
        <time>2015-06-22T14:31:03Z</time>
      </trkpt>
      <trkpt lat="42.23167" lon="8.97698">
        <ele>1554.59</ele>
        <time>2015-06-22T14:31:19Z</time>
      </trkpt>
      <trkpt lat="42.23182" lon="8.97684">
        <ele>1555.07</ele>
        <time>2015-06-22T14:31:33Z</time>
      </trkpt>
      <trkpt lat="42.23184" lon="8.97682">
        <ele>1554.59</ele>
        <time>2015-06-22T14:31:35Z</time>
      </trkpt>
      <trkpt lat="42.23205" lon="8.97663">
        <ele>1555.07</ele>
        <time>2015-06-22T14:31:54Z</time>
      </trkpt>
      <trkpt lat="42.23223" lon="8.97653">
        <ele>1555.07</ele>
        <time>2015-06-22T14:32:09Z</time>
      </trkpt>
      <trkpt lat="42.23242" lon="8.9764">
        <ele>1555.07</ele>
        <time>2015-06-22T14:32:26Z</time>
      </trkpt>
      <trkpt lat="42.23246" lon="8.97639">
        <ele>1555.07</ele>
        <time>2015-06-22T14:32:29Z</time>
      </trkpt>
      <trkpt lat="42.23265" lon="8.97652">
        <ele>1554.59</ele>
        <time>2015-06-22T14:32:46Z</time>
      </trkpt>
      <trkpt lat="42.2327" lon="8.97654">
        <ele>1555.07</ele>
        <time>2015-06-22T14:33:00Z</time>
      </trkpt>
      <trkpt lat="42.23273" lon="8.97656">
        <ele>1555.07</ele>
        <time>2015-06-22T14:33:13Z</time>
      </trkpt>
      <trkpt lat="42.23282" lon="8.97665">
        <ele>1554.59</ele>
        <time>2015-06-22T14:33:29Z</time>
      </trkpt>
      <trkpt lat="42.23283" lon="8.97664">
        <ele>1554.59</ele>
        <time>2015-06-22T14:33:35Z</time>
      </trkpt>
      <trkpt lat="42.23295" lon="8.97669">
        <ele>1554.59</ele>
        <time>2015-06-22T14:33:53Z</time>
      </trkpt>
      <trkpt lat="42.23295" lon="8.9767">
        <ele>1555.07</ele>
        <time>2015-06-22T14:34:09Z</time>
      </trkpt>
      <trkpt lat="42.23295" lon="8.97668">
        <ele>1553.15</ele>
        <time>2015-06-22T14:34:24Z</time>
      </trkpt>
      <trkpt lat="42.23295" lon="8.97663">
        <ele>1554.59</ele>
        <time>2015-06-22T14:34:27Z</time>
      </trkpt>
      <trkpt lat="42.23296" lon="8.97657">
        <ele>1554.59</ele>
        <time>2015-06-22T14:34:31Z</time>
      </trkpt>
      <trkpt lat="42.23304" lon="8.97638">
        <ele>1555.07</ele>
        <time>2015-06-22T14:34:47Z</time>
      </trkpt>
      <trkpt lat="42.23314" lon="8.97644">
        <ele>1555.55</ele>
        <time>2015-06-22T14:35:01Z</time>
      </trkpt>
      <trkpt lat="42.23315" lon="8.97641">
        <ele>1555.55</ele>
        <time>2015-06-22T14:35:08Z</time>
      </trkpt>
      <trkpt lat="42.23318" lon="8.97623">
        <ele>1556.03</ele>
        <time>2015-06-22T14:35:22Z</time>
      </trkpt>
      <trkpt lat="42.23335" lon="8.97614">
        <ele>1555.55</ele>
        <time>2015-06-22T14:35:36Z</time>
      </trkpt>
      <trkpt lat="42.23351" lon="8.97609">
        <ele>1555.07</ele>
        <time>2015-06-22T14:35:50Z</time>
      </trkpt>
      <trkpt lat="42.23363" lon="8.97602">
        <ele>1555.55</ele>
        <time>2015-06-22T14:36:01Z</time>
      </trkpt>
      <trkpt lat="42.2338" lon="8.97588">
        <ele>1556.03</ele>
        <time>2015-06-22T14:36:17Z</time>
      </trkpt>
      <trkpt lat="42.23393" lon="8.97583">
        <ele>1556.03</ele>
        <time>2015-06-22T14:36:28Z</time>
      </trkpt>
      <trkpt lat="42.23401" lon="8.97579">
        <ele>1556.51</ele>
        <time>2015-06-22T14:36:35Z</time>
      </trkpt>
      <trkpt lat="42.23408" lon="8.97579">
        <ele>1555.55</ele>
        <time>2015-06-22T14:36:41Z</time>
      </trkpt>
      <trkpt lat="42.2342" lon="8.97577">
        <ele>1555.07</ele>
        <time>2015-06-22T14:36:53Z</time>
      </trkpt>
      <trkpt lat="42.23432" lon="8.97573">
        <ele>1555.55</ele>
        <time>2015-06-22T14:37:07Z</time>
      </trkpt>
      <trkpt lat="42.23442" lon="8.97559">
        <ele>1556.51</ele>
        <time>2015-06-22T14:37:22Z</time>
      </trkpt>
      <trkpt lat="42.2345" lon="8.97555">
        <ele>1557.47</ele>
        <time>2015-06-22T14:37:30Z</time>
      </trkpt>
      <trkpt lat="42.23467" lon="8.97549">
        <ele>1557.95</ele>
        <time>2015-06-22T14:37:46Z</time>
      </trkpt>
      <trkpt lat="42.23484" lon="8.97541">
        <ele>1558.92</ele>
        <time>2015-06-22T14:38:02Z</time>
      </trkpt>
      <trkpt lat="42.23499" lon="8.97535">
        <ele>1560.36</ele>
        <time>2015-06-22T14:38:18Z</time>
      </trkpt>
      <trkpt lat="42.23502" lon="8.97528">
        <ele>1561.32</ele>
        <time>2015-06-22T14:38:25Z</time>
      </trkpt>
      <trkpt lat="42.23512" lon="8.97514">
        <ele>1563.24</ele>
        <time>2015-06-22T14:38:42Z</time>
      </trkpt>
      <trkpt lat="42.23522" lon="8.97505">
        <ele>1565.16</ele>
        <time>2015-06-22T14:38:58Z</time>
      </trkpt>
      <trkpt lat="42.23532" lon="8.97502">
        <ele>1567.09</ele>
        <time>2015-06-22T14:39:12Z</time>
      </trkpt>
      <trkpt lat="42.23541" lon="8.97495">
        <ele>1569.97</ele>
        <time>2015-06-22T14:39:31Z</time>
      </trkpt>
      <trkpt lat="42.23552" lon="8.97487">
        <ele>1571.89</ele>
        <time>2015-06-22T14:39:48Z</time>
      </trkpt>
      <trkpt lat="42.23558" lon="8.97485">
        <ele>1572.85</ele>
        <time>2015-06-22T14:39:55Z</time>
      </trkpt>
      <trkpt lat="42.23569" lon="8.97483">
        <ele>1574.78</ele>
        <time>2015-06-22T14:40:08Z</time>
      </trkpt>
      <trkpt lat="42.23577" lon="8.9748">
        <ele>1576.22</ele>
        <time>2015-06-22T14:40:23Z</time>
      </trkpt>
      <trkpt lat="42.23582" lon="8.97484">
        <ele>1577.18</ele>
        <time>2015-06-22T14:40:28Z</time>
      </trkpt>
      <trkpt lat="42.23591" lon="8.97481">
        <ele>1580.06</ele>
        <time>2015-06-22T14:40:42Z</time>
      </trkpt>
      <trkpt lat="42.23599" lon="8.97478">
        <ele>1581.99</ele>
        <time>2015-06-22T14:40:54Z</time>
      </trkpt>
      <trkpt lat="42.23611" lon="8.97479">
        <ele>1583.91</ele>
        <time>2015-06-22T14:41:09Z</time>
      </trkpt>
      <trkpt lat="42.23618" lon="8.97476">
        <ele>1585.83</ele>
        <time>2015-06-22T14:41:19Z</time>
      </trkpt>
      <trkpt lat="42.23624" lon="8.97465">
        <ele>1587.27</ele>
        <time>2015-06-22T14:41:33Z</time>
      </trkpt>
      <trkpt lat="42.23633" lon="8.97463">
        <ele>1590.16</ele>
        <time>2015-06-22T14:41:45Z</time>
      </trkpt>
      <trkpt lat="42.23635" lon="8.97459">
        <ele>1591.12</ele>
        <time>2015-06-22T14:41:50Z</time>
      </trkpt>
      <trkpt lat="42.23639" lon="8.97453">
        <ele>1592.56</ele>
        <time>2015-06-22T14:41:56Z</time>
      </trkpt>
      <trkpt lat="42.23643" lon="8.97452">
        <ele>1592.56</ele>
        <time>2015-06-22T14:42:01Z</time>
      </trkpt>
      <trkpt lat="42.23649" lon="8.97447">
        <ele>1594</ele>
        <time>2015-06-22T14:42:09Z</time>
      </trkpt>
      <trkpt lat="42.23652" lon="8.97443">
        <ele>1594.48</ele>
        <time>2015-06-22T14:42:15Z</time>
      </trkpt>
      <trkpt lat="42.23659" lon="8.97441">
        <ele>1598.33</ele>
        <time>2015-06-22T14:42:28Z</time>
      </trkpt>
      <trkpt lat="42.2367" lon="8.9744">
        <ele>1600.25</ele>
        <time>2015-06-22T14:42:43Z</time>
      </trkpt>
      <trkpt lat="42.23678" lon="8.97433">
        <ele>1602.17</ele>
        <time>2015-06-22T14:42:59Z</time>
      </trkpt>
    </trkseg>
  </trk>
</gpx>